[[{"header":{"parameterUnit":"m.s-1","parameterCategory":1,"la1":30.6,"la2":28.766,"lo1":-90.7593,"lo2":-88.6598,"dy":0.0162,"dx":0.0183,"nx":116,"ny":114,"refTime":"2023-10-21T18:00:00:Z","depth":0,"parameterNumber":2,"parameterNumberName":"U-component_of_WINDS"},"data":[0.0,0.0,0.0,0.0,0.0,0.0,0.0,0.0,0.0,0.0,0.0,0.0,0.0,0.0,0.0,0.0,0.0,0.0,0.0,0.0,0.0,0.0,0.0,0.0,0.0,0.0,0.0,0.0,0.0,0.0,0.0,0.0,0.0,0.0,0.0,0.0,0.0,0.0,0.0,0.0,0.0,0.0,0.0,0.0,0.0,0.0,0.0,0.0,0.0,0.0,0.0,0.0,0.0,0.0,0.0,0.0,0.0,0.0,0.0,0.0,0.0,0.0,0.0,0.0,0.0,0.0,0.0,0.0,0.0,0.0,0.0,0.0,0.0,0.0,0.0,0.0,0.0,0.0,0.0,0.0,0.0,0.0,0.0,0.0,0.0,0.0,0.0,0.0,0.0,0.0,0.0,0.0,0.0,0.0,0.0,0.0,0.0,0.0,0.0,0.0,0.0,0.0,0.0,0.0,0.0,0.0,0.0,0.0,0.0,0.0,0.0,0.0,0.0,0.0,0.0,0.0,0.0,0.0,0.0,0.0,0.0,0.0,0.0,0.0,0.0,0.0,0.0,0.0,0.0,0.0,0.0,0.0,0.0,0.0,0.0,0.0,0.0,0.0,0.0,0.0,0.0,0.0,0.0,0.0,0.0,0.0,0.0,0.0,0.0,0.0,0.0,0.0,0.0,0.0,0.0,0.0,0.0,0.0,0.0,0.0,0.0,0.0,0.0,0.0,0.0,0.0,0.0,0.0,0.0,0.0,0.0,0.0,0.0,0.0,0.0,0.0,0.0,0.0,0.0,0.0,0.0,0.0,0.0,0.0,0.0,0.0,0.0,0.0,0.0,0.0,0.0,0.0,0.0,0.0,0.0,0.0,0.0,0.0,0.0,0.0,0.0,0.0,0.0,0.0,0.0,0.0,0.0,0.0,0.0,0.0,0.0,0.0,0.0,0.0,0.0,0.0,0.0,0.0,0.0,0.0,0.0,0.0,0.0,0.0,0.0,0.0,0.0,0.0,0.0,0.0,0.0,0.0,0.0,0.0,0.0,0.0,0.0,0.0,0.0,0.0,0.0,0.0,0.0,0.0,0.0,0.0,0.0,0.0,0.0,0.0,0.0,0.0,0.0,0.0,0.0,0.0,0.0,0.0,0.0,0.0,0.0,0.0,0.0,0.0,0.0,0.0,0.0,0.0,0.0,0.0,0.0,0.0,0.0,0.0,0.0,0.0,0.0,0.0,0.0,0.0,0.0,0.0,0.0,0.0,0.0,0.0,0.0,0.0,0.0,0.0,0.0,0.0,0.0,0.0,0.0,0.0,0.0,0.0,0.0,0.0,0.0,0.0,0.0,0.0,0.0,0.0,0.0,0.0,0.0,0.0,0.0,0.0,0.0,0.0,0.0,0.0,0.0,0.0,0.0,0.0,0.0,0.0,0.0,0.0,0.0,0.0,0.0,0.0,0.0,0.0,0.0,0.0,0.0,0.0,0.0,0.0,0.0,0.0,0.0,0.0,0.0,0.0,0.0,0.0,0.0,0.0,0.0,0.0,0.0,0.0,0.0,0.0,0.0,0.0,0.0,0.0,0.0,0.0,0.0,0.0,0.0,0.0,0.0,0.0,0.0,0.0,0.0,0.0,0.0,0.0,0.0,0.0,0.0,0.0,0.0,0.0,0.0,0.0,0.0,0.0,0.0,0.0,0.0,0.0,0.0,0.0,0.0,0.0,0.0,0.0,0.0,0.0,0.0,0.0,0.0,0.0,0.0,0.0,0.0,0.0,0.0,0.0,0.0,0.0,0.0,0.0,0.0,0.0,0.0,0.0,0.0,0.0,0.0,0.0,0.0,0.0,0.0,0.0,0.0,0.0,0.0,0.0,0.0,0.0,0.0,0.0,0.0,0.0,0.0,0.0,0.0,0.0,0.0,0.0,0.0,0.0,0.0,0.0,0.0,0.0,0.0,0.0,0.0,0.0,0.0,0.0,0.0,0.0,0.0,0.0,0.0,0.0,0.0,0.0,0.0,0.0,0.0,0.0,0.0,0.0,0.0,0.0,0.0,0.0,0.0,0.0,0.0,0.0,0.0,0.0,0.0,0.0,0.0,0.0,0.0,0.0,0.0,0.0,0.0,0.0,0.0,0.0,0.0,0.0,0.0,0.0,0.0,0.0,0.0,0.0,0.0,0.0,0.0,0.0,0.0,0.0,0.0,0.0,0.0,0.0,0.0,0.0,0.0,0.0,0.0,0.0,0.0,0.0,0.0,0.0,0.0,0.0,0.0,0.0,0.0,0.0,0.0,0.0,0.0,0.0,0.0,0.0,0.0,0.0,0.0,0.0,0.0,0.0,0.0,0.0,0.0,0.0,0.0,0.0,0.0,0.0,0.0,0.0,0.0,0.0,0.0,0.0,0.0,0.0,0.0,0.0,0.0,0.0,0.0,0.0,0.0,0.0,0.0,0.0,0.0,0.0,0.0,0.0,0.0,0.0,0.0,0.0,0.0,0.0,0.0,0.0,0.0,0.0,0.0,0.0,0.0,0.0,0.0,0.0,0.0,0.0,0.0,0.0,0.0,0.0,0.0,0.0,0.0,0.0,0.0,0.0,0.0,0.0,0.0,0.0,0.0,0.0,0.0,0.0,0.0,0.0,0.0,0.0,0.0,0.0,0.0,0.0,0.0,0.0,0.0,0.0,0.0,0.0,0.0,0.0,0.0,0.0,0.0,0.0,0.0,0.0,0.0,0.0,0.0,0.0,0.0,0.0,0.0,0.0,0.0,0.0,0.0,0.0,0.0,0.0,0.0,0.0,0.0,0.0,0.0,0.0,0.0,0.0,0.0,0.0,0.0,0.0,0.0,0.0,0.0,0.0,0.0,0.0,0.0,0.0,0.0,0.0,0.0,0.0,0.0,0.0,0.0,0.0,0.0,0.0,0.0,0.0,0.0,0.0,0.0,0.0,0.0,0.0,0.0,0.0,0.0,0.0,0.0,0.0,0.0,0.0,0.0,0.0,0.0,0.0,0.0,0.0,0.0,0.0,0.0,0.0,0.0,0.0,0.0,0.0,0.0,0.0,0.0,0.0,0.0,0.0,0.0,0.0,0.0,0.0,0.0,0.0,0.0,0.0,0.0,0.0,0.0,0.0,0.0,0.0,0.0,0.0,0.0,0.0,0.0,0.0,0.0,0.0,0.0,0.0,0.0,0.0,0.0,0.0,0.0,0.0,0.0,0.0,0.0,0.0,0.0,0.0,0.0,0.0,0.0,0.0,0.0,0.0,0.0,0.0,0.0,0.0,0.0,0.0,0.0,0.0,0.0,0.0,0.0,0.0,0.0,0.0,0.0,0.0,0.0,0.0,0.0,0.0,0.0,0.0,0.0,0.0,0.0,0.0,0.0,0.0,0.0,0.0,0.0,0.0,0.0,0.0,0.0,0.0,0.0,0.0,0.0,0.0,0.0,0.0,0.0,0.0,0.0,0.0,0.0,0.0,0.0,0.0,0.0,0.0,0.0,0.0,0.0,0.0,0.0,0.0,0.0,0.0,0.0,0.0,0.0,0.0,0.0,0.0,0.0,0.0,0.0,0.0,0.0,0.0,0.0,0.0,0.0,0.0,0.0,0.0,0.0,0.0,0.0,0.0,0.0,0.0,0.0,0.0,0.0,0.0,0.0,0.0,0.0,0.0,0.0,0.0,0.0,0.0,0.0,0.0,0.0,0.0,0.0,0.0,0.0,0.0,0.0,0.0,0.0,0.0,0.0,0.0,0.0,0.0,0.0,0.0,0.0,0.0,0.0,0.0,0.0,0.0,0.0,0.0,0.0,0.0,0.0,0.0,0.0,0.0,0.0,0.0,0.0,0.0,0.0,0.0,0.0,0.0,0.0,0.0,0.0,0.0,0.0,0.0,0.0,0.0,0.0,0.0,0.0,0.0,0.0,0.0,0.0,0.0,0.0,0.0,0.0,0.0,0.0,0.0,0.0,0.0,0.0,0.0,0.0,0.0,0.0,0.0,0.0,0.0,0.0,0.0,0.0,0.0,0.0,0.0,0.0,0.0,0.0,0.0,0.0,0.0,0.0,0.0,0.0,0.0,0.0,0.0,0.0,0.0,0.0,0.0,0.0,0.0,0.0,0.0,0.0,0.0,0.0,0.0,0.0,0.0,0.0,0.0,0.0,0.0,0.0,0.0,0.0,0.0,0.0,0.0,0.0,0.0,0.0,0.0,0.0,0.0,0.0,0.0,0.0,0.0,0.0,0.0,0.0,0.0,0.0,0.0,0.0,0.0,0.0,0.0,0.0,0.0,0.0,0.0,0.0,0.0,0.0,0.0,0.0,0.0,0.0,0.0,0.0,0.0,0.0,0.0,0.0,0.0,0.0,0.0,0.0,0.0,0.0,0.0,0.0,0.0,0.0,0.0,0.0,0.0,0.0,0.0,0.0,0.0,0.0,0.0,0.0,0.0,0.0,0.0,0.0,0.0,0.0,0.0,0.0,0.0,0.0,0.0,0.0,0.0,0.0,0.0,0.0,0.0,0.0,0.0,0.0,0.0,0.0,0.0,0.0,0.0,0.0,0.0,0.0,0.0,0.0,0.0,0.0,0.0,0.0,0.0,0.0,0.0,0.0,0.0,0.0,0.0,0.0,0.0,0.0,0.0,0.0,0.0,0.0,0.0,0.0,0.0,0.0,0.0,0.0,0.0,0.0,0.0,0.0,0.0,0.0,0.0,0.0,0.0,0.0,0.0,0.0,0.0,0.0,0.0,0.0,0.0,0.0,0.0,0.0,0.0,0.0,0.0,0.0,0.0,0.0,0.0,0.0,0.0,0.0,0.0,0.0,0.0,0.0,0.0,0.0,0.0,0.0,0.0,0.0,0.0,0.0,0.0,0.0,0.0,0.0,0.0,0.0,0.0,0.0,0.0,0.0,0.0,0.0,0.0,0.0,0.0,0.0,0.0,0.0,0.0,0.0,0.0,0.0,0.0,0.0,0.0,0.0,0.0,0.0,0.0,0.0,0.0,0.0,0.0,0.0,0.0,0.0,0.0,0.0,0.0,0.0,0.0,0.0,0.0,0.0,0.0,0.0,0.0,0.0,0.0,0.0,0.0,0.0,0.0,0.0,0.0,0.0,0.0,0.0,0.0,0.0,0.0,0.0,0.0,0.0,0.0,0.0,0.0,0.0,0.0,0.0,0.0,0.0,0.0,0.0,0.0,0.0,0.0,0.0,0.0,0.0,0.0,0.0,0.0,0.0,0.0,0.0,0.0,0.0,0.0,0.0,0.0,0.0,0.0,0.0,0.0,0.0,0.0,0.0,0.0,0.0,0.0,0.0,0.0,0.0,0.0,0.0,0.0,0.0,0.0,0.0,0.0,0.0,0.0,0.0,0.0,0.0,0.0,0.0,0.0,0.0,0.0,0.0,0.0,0.0,0.0,0.0,0.0,0.0,0.0,0.0,0.0,0.0,0.0,0.0,0.0,0.0,0.0,0.0,0.0,0.0,0.0,0.0,0.0,0.0,0.0,0.0,0.0,0.0,0.0,0.0,0.0,0.0,0.0,0.0,0.0,0.0,0.0,0.0,0.0,0.0,0.0,0.0,0.0,0.0,0.0,0.0,0.0,0.0,0.0,0.0,0.0,0.0,0.0,0.0,0.0,0.0,0.0,0.0,0.0,0.0,0.0,0.0,0.0,0.0,0.0,0.0,0.0,0.0,0.0,0.0,0.0,0.0,0.0,0.0,0.0,0.0,0.0,0.0,0.0,0.0,0.0,0.0,0.0,0.0,0.0,0.0,0.0,0.0,0.0,0.0,0.0,0.0,0.0,0.0,0.0,0.0,0.0,0.0,0.0,0.0,0.0,0.0,0.0,0.0,0.0,0.0,0.0,0.0,0.0,0.0,0.0,0.0,0.0,0.0,0.0,0.0,0.0,0.0,0.0,0.0,0.0,0.0,0.0,0.0,0.0,0.0,0.0,0.0,0.0,0.0,0.0,0.0,0.0,0.0,0.0,0.0,0.0,0.0,0.0,0.0,0.0,0.0,0.0,0.0,0.0,0.0,0.0,0.0,0.0,0.0,0.0,0.0,0.0,0.0,0.0,0.0,0.0,0.0,0.0,-2.3857,-2.4034,0.0,0.0,0.0,0.0,0.0,0.0,0.0,0.0,0.0,0.0,0.0,0.0,0.0,0.0,0.0,0.0,0.0,0.0,0.0,0.0,0.0,0.0,0.0,0.0,0.0,0.0,0.0,0.0,0.0,0.0,0.0,0.0,0.0,0.0,0.0,0.0,0.0,-3.025,-2.9227,-2.8667,-2.8545,-2.8545,-2.8979,-2.9707,0.0,0.0,0.0,0.0,0.0,0.0,0.0,0.0,0.0,0.0,0.0,0.0,0.0,0.0,0.0,0.0,0.0,0.0,0.0,0.0,0.0,0.0,0.0,0.0,0.0,0.0,0.0,0.0,0.0,0.0,0.0,0.0,0.0,0.0,0.0,0.0,0.0,0.0,0.0,0.0,0.0,0.0,0.0,0.0,0.0,0.0,0.0,0.0,0.0,0.0,0.0,0.0,0.0,0.0,0.0,0.0,0.0,0.0,0.0,0.0,0.0,0.0,0.0,0.0,0.0,0.0,0.0,0.0,0.0,0.0,-2.2404,-2.2518,0.0,0.0,0.0,0.0,0.0,0.0,0.0,0.0,0.0,0.0,0.0,0.0,0.0,0.0,0.0,0.0,0.0,0.0,0.0,0.0,0.0,0.0,0.0,-2.7194,-2.8026,-2.802,-2.8037,-2.8055,0.0,0.0,0.0,0.0,0.0,0.0,-3.0683,-2.9639,-2.9039,-2.9039,-2.7322,-2.6401,-2.6166,-2.586,-2.6411,-2.7704,-2.7864,0.0,0.0,0.0,0.0,0.0,0.0,0.0,0.0,0.0,0.0,0.0,0.0,0.0,0.0,0.0,0.0,0.0,0.0,0.0,0.0,0.0,0.0,0.0,0.0,0.0,0.0,0.0,0.0,0.0,0.0,0.0,0.0,0.0,0.0,0.0,0.0,0.0,0.0,0.0,0.0,0.0,0.0,0.0,0.0,0.0,0.0,0.0,0.0,0.0,0.0,0.0,0.0,0.0,0.0,0.0,0.0,0.0,0.0,0.0,0.0,0.0,0.0,0.0,-2.1109,-2.1109,-2.1109,-2.1109,-2.1109,-2.1109,-2.1109,-2.1109,-2.1109,-2.1109,0.0,0.0,0.0,0.0,0.0,0.0,0.0,0.0,0.0,0.0,0.0,0.0,0.0,0.0,0.0,0.0,0.0,0.0,0.0,-2.5984,-2.5984,-2.6167,-2.6405,-2.666,-2.6694,-2.6765,-2.7051,0.0,0.0,0.0,0.0,-2.7277,-2.7529,-2.7327,-2.7217,-2.7217,-2.6978,-2.6802,-2.6753,-2.5293,-2.4717,-2.4942,-2.5896,-2.6227,-2.6029,0.0,0.0,0.0,0.0,0.0,0.0,0.0,0.0,0.0,0.0,0.0,0.0,0.0,0.0,0.0,0.0,0.0,0.0,0.0,0.0,0.0,0.0,0.0,0.0,0.0,0.0,0.0,0.0,0.0,0.0,0.0,0.0,0.0,0.0,0.0,0.0,0.0,0.0,0.0,0.0,0.0,-2.0409,-2.0227,0.0,0.0,0.0,0.0,0.0,0.0,0.0,0.0,0.0,0.0,0.0,0.0,0.0,-2.1056,-2.1056,-2.1096,-2.1109,-2.1109,-2.1109,-2.1109,-2.1109,-2.1109,-2.1109,-2.1109,-2.1109,0.0,-2.1109,-2.1109,0.0,0.0,0.0,0.0,0.0,0.0,0.0,0.0,0.0,0.0,0.0,0.0,0.0,0.0,0.0,0.0,0.0,0.0,0.0,0.0,0.0,-2.4482,-2.5155,-2.5248,-2.5263,-2.5325,-2.5481,-2.4675,0.0,0.0,-2.5747,-2.6294,-2.7195,-2.6484,-2.552,-2.4356,-2.4356,-2.4268,-2.4157,-2.3392,-2.3079,-2.3065,-2.3542,-2.3691,-2.3577,-2.4301,0.0,0.0,0.0,0.0,0.0,0.0,0.0,0.0,0.0,0.0,0.0,0.0,0.0,0.0,0.0,0.0,0.0,0.0,0.0,0.0,0.0,0.0,0.0,0.0,0.0,0.0,0.0,0.0,0.0,0.0,0.0,0.0,0.0,0.0,0.0,0.0,0.0,0.0,0.0,-2.0722,-2.0722,-2.0722,-2.0842,-2.0922,0.0,0.0,0.0,0.0,0.0,0.0,0.0,0.0,0.0,-2.1109,-2.1109,-2.1109,-2.1109,-2.1269,-2.1363,-2.1363,-2.1523,-2.1603,-2.1603,-2.1603,-2.1603,-2.1603,-2.1603,-2.1603,-2.1577,-2.1243,-2.1109,-2.1109,0.0,0.0,0.0,0.0,-2.1109,-2.1109,0.0,0.0,0.0,0.0,0.0,0.0,0.0,0.0,0.0,0.0,0.0,0.0,-2.1735,-2.2939,-2.3797,-2.3884,-2.3898,-2.3927,-2.4014,-2.2921,-2.2789,-2.3948,-2.4378,-2.5092,-2.633,-2.5331,-2.4082,-2.2539,-2.2539,-2.2418,-2.2205,-2.2205,-2.2205,-2.2205,-2.2124,-2.1937,-2.1773,-2.2744,-2.2455,-2.1336,0.0,0.0,0.0,0.0,0.0,0.0,0.0,0.0,0.0,0.0,0.0,0.0,0.0,0.0,0.0,0.0,0.0,0.0,0.0,0.0,0.0,0.0,0.0,0.0,0.0,0.0,0.0,0.0,0.0,0.0,0.0,0.0,0.0,0.0,0.0,0.0,0.0,-2.1109,-2.1109,-2.1109,-2.1109,-2.1109,0.0,0.0,0.0,0.0,0.0,0.0,-2.1109,-2.1189,-2.1229,-2.1229,-2.1296,-2.1336,-2.1336,-2.155,-2.1735,-2.1735,-2.1884,-2.1991,-2.1991,-2.1991,-2.1991,-2.1991,-2.1991,-2.1991,-2.1951,-2.151,-2.1336,-2.1336,-2.1336,-2.1336,-2.1336,-2.1336,-2.1336,-2.1336,0.0,0.0,0.0,0.0,0.0,0.0,0.0,0.0,0.0,0.0,0.0,-2.1964,-2.1964,-2.2043,-2.223,-2.2499,-2.2526,-2.2647,-2.2929,-2.2887,-2.2887,-2.2956,-2.2969,-2.3038,-2.3106,-2.3051,-2.2983,-2.2846,-2.2846,-2.2901,-2.2819,-2.2819,-2.2819,-2.2806,-2.2525,-2.2231,-2.1964,-2.2082,-2.2003,-2.1937,-2.1937,0.0,0.0,0.0,0.0,0.0,0.0,0.0,0.0,0.0,0.0,0.0,0.0,0.0,0.0,0.0,0.0,0.0,0.0,0.0,0.0,0.0,0.0,0.0,0.0,0.0,0.0,0.0,0.0,0.0,0.0,0.0,0.0,0.0,0.0,0.0,0.0,0.0,0.0,-2.1109,-2.1109,0.0,0.0,0.0,0.0,-2.1109,-2.1109,-2.1109,-2.1109,-2.1376,-2.1601,-2.1601,-2.1804,-2.1937,-2.1937,-2.1951,-2.1964,-2.1964,-2.1977,-2.1991,-2.1991,-2.1991,-2.1991,-2.1991,-2.1991,-2.1991,-2.1977,-2.1951,-2.1937,-2.1937,-2.1937,-2.1937,-2.1937,-2.1937,-2.1937,-2.1937,0.0,0.0,0.0,0.0,0.0,0.0,0.0,0.0,-2.1991,-2.1991,-2.2151,-2.2258,-2.2258,-2.2432,-2.2592,-2.2699,-2.2699,-2.2752,-2.2928,-2.2928,-2.2928,-2.2928,-2.2928,-2.2928,-2.2928,-2.2928,-2.2928,-2.2928,-2.2928,-2.2928,-2.2928,-2.2928,-2.2928,-2.2859,-2.2752,-2.2645,-2.2525,-2.2151,-2.1991,-2.1991,-2.1991,-2.1991,0.0,0.0,0.0,0.0,0.0,0.0,0.0,0.0,0.0,0.0,0.0,0.0,0.0,0.0,0.0,0.0,0.0,0.0,0.0,0.0,0.0,0.0,0.0,0.0,0.0,0.0,0.0,0.0,0.0,0.0,0.0,0.0,0.0,0.0,0.0,0.0,0.0,-2.1109,-2.1109,0.0,-2.1376,-2.139,-2.147,-2.1657,-2.167,-2.167,-2.167,-2.1777,-2.183,-2.183,-2.1937,-2.1991,-2.1991,-2.2164,-2.2258,-2.2271,-2.2458,-2.2552,-2.2552,-2.2552,-2.2552,-2.2552,-2.2552,-2.2552,-2.2552,-2.2552,-2.2325,-2.1991,-2.1991,-2.1991,-2.1991,-2.1991,-2.1991,-2.1991,0.0,0.0,0.0,0.0,0.0,0.0,0.0,-2.2218,-2.2285,-2.2285,-2.2445,-2.2565,-2.2565,-2.2739,-2.2928,-2.2928,-2.2928,-2.2928,-2.2928,-2.2928,-2.2928,-2.2928,-2.2928,-2.2928,-2.2928,-2.2928,-2.2928,-2.2928,-2.2928,-2.2928,-2.2928,-2.2928,-2.2928,-2.2928,-2.2928,-2.2928,-2.2832,-2.2445,-2.2285,-2.2285,-2.2285,-2.2285,-2.2298,0.0,0.0,0.0,0.0,0.0,0.0,0.0,0.0,0.0,0.0,0.0,0.0,0.0,0.0,0.0,0.0,0.0,0.0,0.0,0.0,0.0,0.0,0.0,0.0,0.0,0.0,0.0,0.0,0.0,0.0,0.0,0.0,0.0,0.0,-2.1403,-2.1403,-2.1403,-2.1403,-2.1483,-2.1683,-2.1762,-2.1777,-2.1977,-2.1991,-2.1991,-2.1991,-2.2084,-2.2124,-2.2124,-2.2325,-2.2445,-2.2445,-2.2726,-2.2873,-2.2873,-2.3073,-2.3166,-2.3166,-2.3166,-2.3166,-2.3166,-2.3166,-2.3113,-2.302,-2.302,-2.2726,-2.2285,-2.2285,-2.2285,-2.2285,-2.2285,-2.2285,-2.2285,0.0,0.0,0.0,0.0,0.0,0.0,-2.2432,-2.2672,-2.2928,-2.2928,-2.2928,-2.2928,-2.2928,-2.2928,-2.2928,-2.2928,-2.2928,-2.2928,-2.2928,-2.2928,-2.2928,-2.2928,-2.2928,-2.2928,-2.2928,-2.2928,-2.2928,-2.2928,-2.2928,-2.2928,-2.2928,-2.2928,-2.2928,-2.2928,-2.2928,-2.2928,-2.2928,-2.2928,-2.2928,-2.2928,-2.2928,-2.2928,-2.2928,0.0,0.0,0.0,0.0,0.0,0.0,0.0,0.0,0.0,0.0,0.0,0.0,0.0,0.0,0.0,0.0,0.0,0.0,0.0,0.0,0.0,0.0,0.0,0.0,0.0,0.0,0.0,0.0,0.0,0.0,0.0,0.0,0.0,-2.1991,-2.1991,-2.1991,-2.1991,-2.1991,-2.1991,-2.2004,-2.2004,-2.2004,-2.2017,-2.2017,-2.2017,-2.2017,-2.2285,-2.2445,-2.2445,-2.3033,-2.334,-2.334,-2.3621,-2.3768,-2.3768,-2.3768,-2.3768,-2.3768,-2.3768,-2.3768,-2.3768,-2.3768,-2.3607,-2.334,-2.334,-2.3166,-2.2954,-2.2941,-2.2928,-2.2928,-2.2928,-2.2928,-2.2928,0.0,0.0,0.0,0.0,0.0,0.0,-2.2739,-2.2806,-2.2928,-2.2928,-2.2928,-2.2928,-2.2928,-2.2928,-2.2928,-2.2928,-2.2928,-2.2928,-2.2928,-2.2928,-2.2928,-2.2928,-2.2928,-2.2928,-2.2928,-2.2928,-2.2928,-2.2928,-2.2928,-2.2928,-2.2928,-2.2928,-2.2928,-2.2928,-2.2928,-2.2928,-2.2928,-2.2928,-2.2928,-2.2928,-2.2928,-2.2928,-2.2928,0.0,0.0,0.0,0.0,0.0,0.0,0.0,0.0,0.0,0.0,0.0,0.0,0.0,0.0,0.0,0.0,0.0,0.0,0.0,0.0,0.0,0.0,0.0,0.0,0.0,0.0,0.0,0.0,0.0,0.0,0.0,-2.2619,-2.2472,-2.2044,-2.1991,-2.1991,-2.1991,-2.1991,-2.2071,-2.2271,-2.2298,-2.2392,-2.2605,-2.2619,-2.2619,-2.2619,-2.2913,-2.3073,-2.3073,-2.3447,-2.3647,-2.3647,-2.3728,-2.3768,-2.3768,-2.3768,-2.3768,-2.3768,-2.3768,-2.3768,-2.3768,-2.3768,-2.3728,-2.3647,-2.3647,-2.3594,-2.3474,-2.3102,-2.2928,-2.2928,-2.2928,-2.2928,-2.2928,0.0,0.0,0.0,0.0,0.0,0.0,-2.2928,-2.2928,-2.2928,-2.2928,-2.2928,-2.2928,-2.2928,-2.2928,-2.2928,-2.2928,-2.2928,-2.2928,-2.2928,-2.2928,-2.2928,-2.2928,-2.2928,-2.2928,-2.2928,-2.2928,-2.2928,-2.2928,-2.2928,-2.2928,-2.2928,-2.2928,-2.2928,-2.2928,-2.2928,-2.2928,-2.2928,-2.2928,-2.2928,-2.2928,-2.2928,-2.2928,-2.2928,-2.2928,-2.2928,-2.2928,-2.2928,-2.2928,-2.2928,-2.2928,0.0,0.0,0.0,0.0,0.0,0.0,0.0,0.0,0.0,0.0,0.0,0.0,0.0,0.0,0.0,0.0,0.0,0.0,0.0,0.0,0.0,0.0,0.0,0.0,-2.2928,-2.2807,-2.2405,-2.2352,-2.2352,-2.2352,-2.2352,-2.2418,-2.2592,-2.2605,-2.2672,-2.2914,-2.2979,-2.306,-2.306,-2.334,-2.3514,-2.3514,-2.3794,-2.3955,-2.3955,-2.4075,-2.4142,-2.4142,-2.4142,-2.4142,-2.4142,-2.4142,-2.4142,-2.4142,-2.4142,-2.4062,-2.3955,-2.3955,-2.3875,-2.3728,0.0,0.0,0.0,0.0,-2.2928,-2.2928,0.0,0.0,0.0,0.0,0.0,0.0,-2.2928,-2.2928,-2.2928,-2.2928,-2.2928,-2.2928,-2.2928,-2.2928,-2.2928,-2.2928,-2.2928,-2.2928,-2.2928,-2.2928,-2.2928,-2.2928,-2.2928,-2.2928,-2.2928,-2.2928,-2.2928,-2.2928,-2.2928,-2.2928,-2.2928,-2.2928,-2.2928,-2.2928,-2.2928,-2.2928,-2.2928,-2.2928,-2.2928,-2.2928,-2.2928,-2.2928,-2.2928,-2.2928,-2.2928,-2.2928,-2.2928,-2.2928,-2.2928,-2.2928,0.0,0.0,0.0,0.0,0.0,0.0,0.0,0.0,0.0,0.0,0.0,0.0,0.0,0.0,0.0,0.0,0.0,0.0,0.0,0.0,0.0,0.0,0.0,0.0,-2.2928,-2.2928,-2.2928,-2.2928,-2.2928,-2.2928,-2.2928,-2.2928,-2.2928,-2.2928,-2.2873,-2.2913,-2.3166,-2.334,-2.338,-2.3661,0.0,0.0,0.0,-2.4249,-2.4249,-2.4502,-2.4649,-2.469,-2.469,-2.469,-2.469,-2.469,-2.4676,-2.4636,-2.4636,-2.4489,-2.4249,-2.4249,-2.4075,-2.3794,-2.3487,-2.338,-2.334,-2.3073,-2.3008,-2.2913,0.0,0.0,0.0,0.0,0.0,0.0,-2.2928,-2.2928,-2.2928,-2.2928,-2.2928,-2.2928,-2.2928,-2.2928,-2.2928,-2.2928,-2.2928,-2.2928,-2.2928,-2.2928,-2.2928,-2.2928,-2.2928,-2.2928,-2.2928,-2.2928,-2.2928,-2.2928,-2.2928,-2.2928,-2.2928,-2.2928,-2.2928,-2.2928,-2.2928,-2.2928,-2.2928,-2.2928,-2.2928,-2.2928,-2.2928,-2.2928,-2.2928,-2.2928,-2.2928,-2.2928,-2.2928,-2.2928,-2.2928,-2.2928,-2.2928,-2.2928,-2.2928,-2.2928,0.0,0.0,0.0,0.0,0.0,0.0,0.0,0.0,0.0,0.0,0.0,0.0,0.0,0.0,0.0,0.0,0.0,0.0,0.0,-2.2928,-2.2928,-2.2928,-2.2928,-2.2928,-2.2928,-2.2928,-2.2928,-2.2928,-2.2928,-2.2928,-2.2966,-2.322,-2.3287,-2.3434,-2.3674,-2.3955,-2.4115,-2.4115,-2.4396,-2.4556,-2.4556,-2.4609,-2.4756,-2.4997,-2.4997,0.0,-2.4997,-2.4997,-2.4863,-2.4636,-2.4636,-2.4609,-2.4556,-2.4556,-2.4382,-2.4088,-2.3794,-2.3688,-2.3674,-2.3621,-2.3447,-2.3233,0.0,0.0,0.0,0.0,0.0,0.0,-2.2928,-2.2928,-2.2928,-2.2928,-2.2928,-2.2928,-2.2928,-2.2928,-2.2928,-2.2928,-2.2928,-2.2928,-2.2928,-2.2928,-2.2928,-2.2928,-2.2928,-2.2928,-2.2928,-2.2928,-2.2928,-2.2928,-2.2928,-2.2928,-2.2928,-2.2928,-2.2928,-2.2928,-2.2928,-2.2928,-2.2928,-2.2928,-2.2928,-2.2928,-2.2928,-2.2928,-2.2928,-2.2928,-2.2928,-2.2928,-2.2928,-2.2928,-2.2928,-2.2928,-2.2928,-2.2928,-2.2928,-2.2928,-2.2928,0.0,0.0,0.0,0.0,0.0,0.0,0.0,0.0,0.0,0.0,0.0,0.0,0.0,0.0,-2.2928,-2.2928,0.0,-2.2928,-2.2928,-2.2928,-2.2928,-2.2928,-2.2928,-2.2928,-2.2928,-2.2928,-2.2928,-2.2928,-2.3006,-2.3153,-2.3313,-2.3607,-2.3834,-2.3981,-2.4262,-2.4422,-2.4422,-2.4703,-2.4863,-2.4863,-2.4997,-2.5144,-2.5291,-2.5291,-2.5291,-2.5291,-2.5291,-2.5211,-2.5077,-2.5077,-2.4997,-2.485,-2.4703,-2.4556,-2.4409,-2.4262,-2.4022,-2.3768,-2.3768,-2.3674,-2.3554,0.0,0.0,0.0,0.0,0.0,0.0,-2.2928,-2.2928,-2.2928,-2.2928,-2.2928,-2.2928,-2.2928,-2.2928,-2.2928,-2.2928,-2.2928,-2.2928,-2.2928,-2.2928,-2.2928,-2.2928,-2.2928,-2.2928,-2.2928,-2.2928,-2.2928,-2.2928,-2.2928,-2.2928,-2.2928,-2.2928,-2.2968,-2.2953,-2.2953,-2.2979,-2.3033,-2.2979,-2.2953,-2.2953,-2.2886,-2.2928,-2.2928,-2.2928,-2.2928,-2.2928,-2.2928,-2.2928,-2.2928,-2.2928,-2.2928,-2.2928,-2.2928,-2.2928,-2.2928,-2.2928,-2.2928,0.0,0.0,0.0,0.0,0.0,0.0,0.0,0.0,-2.2928,-2.2928,-2.2928,-2.2928,-2.2928,-2.2928,-2.2928,-2.2928,-2.2928,-2.2928,-2.2928,-2.2928,-2.2928,-2.2928,-2.2928,-2.2928,-2.2886,-2.2953,-2.318,-2.338,-2.3487,-2.3941,-2.4222,-2.4289,-2.4516,-2.4663,-2.4716,-2.4957,-2.5104,-2.5157,-2.5398,-2.5545,-2.5598,-2.5598,-2.5598,-2.5598,-2.5598,-2.5571,-2.5518,-2.5518,-2.5384,-2.5144,-2.4903,-2.477,-2.4716,-2.4716,-2.4176,-2.3425,-2.3785,-2.3686,-2.3262,0.0,0.0,0.0,0.0,0.0,0.0,0.0,0.0,-2.2928,-2.2928,-2.2928,-2.2928,-2.2928,-2.2928,-2.2928,-2.2928,-2.2928,-2.2928,-2.2928,-2.2928,-2.2928,-2.2928,-2.2928,-2.2928,-2.2928,-2.2928,-2.2928,-2.2928,-2.2928,-2.2928,-2.2928,-2.2928,-2.3006,-2.3273,-2.3273,-2.342,-2.3647,-2.3394,-2.3273,-2.3247,-2.2979,-2.2928,-2.2928,-2.2928,-2.2928,-2.2928,-2.2928,-2.2928,-2.2928,-2.2928,-2.2928,-2.2928,-2.2928,-2.2928,-2.2928,-2.2928,-2.2928,-2.2928,-2.2928,-2.2928,-2.2928,-2.2928,-2.2928,-2.2928,0.0,-2.2928,-2.2928,-2.2928,-2.2928,-2.2928,-2.2928,-2.2928,-2.2928,-2.2928,-2.2928,-2.2928,-2.2928,-2.2928,-2.2928,-2.2928,-2.2928,-2.2966,-2.3247,-2.33,-2.3541,-2.4062,-2.4168,-2.4315,-2.4569,-2.4549,-2.4756,-2.5024,-2.5064,-2.5197,-2.5464,-2.5504,-2.5651,-2.5905,-2.5905,-2.5905,-2.5905,-2.5905,-2.5758,-2.5518,-2.5518,-2.5491,-2.5464,-2.5424,-2.5264,-2.5037,-2.5037,-2.3753,-2.204,-2.3853,-2.3245,-2.1471,0.0,0.0,0.0,0.0,0.0,0.0,0.0,0.0,-2.2928,-2.2928,-2.2928,-2.2928,-2.2928,-2.2928,-2.2928,-2.2928,-2.2928,-2.2928,-2.2928,-2.2928,-2.2928,-2.2928,-2.2928,-2.2928,-2.2928,-2.2928,-2.2928,-2.2928,-2.2928,-2.2928,-2.2928,-2.3046,-2.3207,-2.334,-2.3514,-2.3661,-2.3768,-2.3634,-2.3581,-2.3581,-2.3447,-2.3394,-2.3394,-2.3394,-2.3394,-2.3367,-2.3193,-2.314,0.0,-2.314,-2.314,-2.31,-2.2926,-2.2993,-2.31,-2.2913,-2.2993,-2.31,-2.2913,-2.2928,-2.2654,-2.1527,-2.2091,-2.2585,-2.1527,-2.2091,-2.2585,-2.1527,-2.1252,-2.1252,-2.1252,-2.1252,-2.1596,-2.2722,-2.2928,-2.2928,-2.2928,-2.2928,-2.2928,-2.2928,-2.302,-2.318,-2.3313,-2.3487,-2.3754,-2.4168,-2.4356,-2.4516,-2.4549,-2.4796,-2.4957,-2.5077,-2.5411,-2.5651,-2.5772,-2.5932,-2.6092,-2.6213,-2.6213,-2.6213,-2.6213,-2.6213,-2.5413,-2.4083,-2.3934,-2.3147,-2.2018,-2.1791,-2.1677,-2.1574,-2.1574,-2.0968,-2.0462,-2.3465,-2.2509,-1.9863,0.0,0.0,0.0,0.0,0.0,0.0,0.0,0.0,0.0,0.0,-2.2928,-2.2928,-2.2928,-2.2928,-2.2928,-2.2928,-2.2928,-2.2928,-2.2928,-2.2928,-2.2928,-2.2928,-2.2928,-2.2928,-2.2928,-2.2928,-2.2928,-2.2928,-2.2928,-2.2928,-2.2941,-2.318,-2.3367,-2.346,-2.3754,-2.3928,-2.4008,-2.3928,-2.3888,-2.3888,-2.3808,-2.3768,-2.3768,-2.3768,-2.3768,-2.3741,-2.3527,-2.3447,-2.3447,-2.3447,-2.3447,-2.3407,-2.318,-2.3273,-2.3394,-2.3086,-2.3086,-2.3014,-2.2294,-2.216,-2.1803,-2.0409,-2.1113,-2.1897,-2.1143,-2.2,-2.251,-2.0613,-2.0274,-2.0274,-2.0274,-2.0274,-2.0695,-2.2045,-2.2753,-2.2961,-2.2393,-2.2823,-2.3182,-2.3182,-2.3313,-2.3487,-2.3567,-2.3768,-2.4008,-2.4302,-2.4516,-2.4676,-2.4756,-2.4957,-2.5157,-2.5317,-2.5732,-2.6077,-2.6079,-2.6279,-2.6386,-2.6386,-2.6386,-2.607,-2.5489,-2.484,-2.3712,-2.2247,-2.1986,-2.1022,-1.9564,-1.9323,-1.9213,-1.9153,-1.9153,-1.873,-1.8563,-2.1866,-2.0849,-1.8045,0.0,0.0,0.0,0.0,0.0,0.0,0.0,0.0,0.0,0.0,0.0,-2.2928,-2.2928,-2.2928,-2.2928,-2.2928,-2.2928,-2.2928,-2.2928,-2.2928,-2.2928,-2.2928,-2.2928,-2.2928,-2.2928,-2.2928,-2.2928,-2.2928,-2.2928,-2.2928,-2.2941,-2.318,-2.3487,-2.3768,-2.4062,-2.4342,-2.4596,-2.4302,-2.4195,-2.4168,-2.3888,-2.3768,-2.3768,-2.3768,-2.3768,-2.3768,-2.3754,-2.3754,-2.3754,-2.3754,-2.3754,-2.3754,-2.3741,-2.3754,-2.3701,-2.3407,-2.31,-2.2516,-2.0686,-2.0201,-2.0201,-2.0132,-2.0132,-2.069,-2.2745,-2.3244,-2.2819,-2.1043,-2.0659,-2.0659,-2.0659,-2.0659,-2.0731,-2.0731,-2.2489,-2.3086,-2.103,-2.2489,-2.3741,-2.3741,-2.3754,-2.3875,-2.4155,-2.4182,-2.4315,-2.4596,-2.4636,-2.4756,-2.505,-2.5077,-2.5344,-2.5919,-2.6023,-2.6092,-2.6373,-2.6386,-2.6386,-2.6386,-2.6386,-2.5251,-2.314,-2.1039,-2.0069,-1.9988,-1.9978,-1.9978,-1.9897,-1.9887,-1.9755,-1.9463,-1.9463,-1.8065,-1.6327,-1.8426,-1.7754,-1.5871,0.0,0.0,0.0,0.0,0.0,0.0,0.0,0.0,0.0,0.0,0.0,0.0,0.0,0.0,0.0,0.0,-2.2928,-2.2928,-2.2928,-2.2928,-2.2928,-2.2928,-2.2928,-2.2928,-2.2928,-2.2928,-2.2928,-2.2928,-2.2928,-2.2928,-2.2941,-2.338,-2.3674,-2.3794,-2.4275,-2.4543,-2.4549,-2.4529,-2.4489,-2.4476,-2.4382,-2.4342,-2.4342,-2.4342,-2.4342,-2.4342,0.0,-2.4222,-2.4062,-2.4062,-2.4062,-2.4022,-2.3834,-2.3901,-2.3995,-2.3701,-2.2396,-2.0894,-2.0271,-1.9259,-1.8393,-1.8464,-1.9517,-2.0377,-1.9874,-2.0697,-2.0649,-1.752,-1.6882,-1.7248,-1.8633,-1.7759,-1.8124,-2.2085,-2.2228,-2.2001,-2.2658,-2.3327,-2.3768,-2.3768,-2.3941,-2.4102,-2.4195,-2.4209,-2.4329,-2.4609,-2.4823,-2.497,-2.5077,-2.4112,-2.4236,-2.5945,-2.4771,-2.4831,-2.6386,-2.6386,-2.566,-2.4191,-2.274,-2.1684,-2.0958,-2.0231,-1.9095,-1.771,-1.771,-1.6901,-1.5604,-1.5604,-1.5565,-1.5428,-1.5428,-1.4988,-1.4364,-1.4973,-1.4655,-1.4266,0.0,0.0,0.0,0.0,0.0,0.0,0.0,0.0,0.0,0.0,0.0,0.0,0.0,0.0,0.0,0.0,0.0,-2.2928,-2.2928,-2.2928,-2.2928,-2.2928,-2.2928,-2.2928,-2.2928,-2.2928,-2.2928,-2.2928,-2.2928,-2.2928,-2.2941,-2.338,-2.3674,-2.3794,-2.4262,-2.4543,-2.4636,-2.4636,-2.4636,-2.4636,-2.4636,-2.4636,-2.4636,-2.4636,-2.4636,0.0,-2.4636,-2.4516,-2.4356,-2.4356,-2.4356,-2.4329,-2.4142,-2.4062,-2.3877,-2.3137,-2.1623,-1.9865,-1.8595,-1.7438,-1.661,-1.6682,-1.7659,-1.8508,-1.8079,-1.8905,-1.8853,-1.5755,-1.5698,-1.6368,-1.6953,-1.6582,-1.726,-2.0365,-2.0365,-2.0145,-2.0743,-2.1473,-2.1922,-2.1922,-2.2081,-2.2485,-2.3232,-2.3395,-2.3758,-2.4709,-2.497,-2.517,-2.5384,-2.3692,-2.3442,-2.4903,-2.3787,-2.3792,-2.5171,-2.5251,-2.4111,-2.1925,-1.9735,-1.8689,-1.8689,-1.7955,-1.682,-1.5432,-1.5432,-1.4698,-1.3403,-1.3403,-1.3403,-1.3403,-1.3403,-1.3403,-1.339,-1.3288,-1.3254,-1.3466,0.0,0.0,0.0,0.0,0.0,0.0,0.0,0.0,0.0,0.0,0.0,0.0,0.0,0.0,0.0,0.0,0.0,0.0,-2.2928,-2.2928,-2.2928,-2.2928,-2.2928,-2.2928,-2.2928,-2.2928,-2.2928,-2.2928,-2.2928,-2.2928,-2.2941,-2.318,-2.3487,-2.3781,-2.4075,-2.4369,-2.4636,-2.4636,-2.4636,-2.4636,-2.4636,-2.4636,-2.4636,-2.4636,-2.4562,-2.4488,-2.4488,-2.4414,-2.4327,-2.4414,-2.4488,-2.4488,-2.4562,-2.4176,-2.3334,-2.1667,-2.0645,-1.9299,-1.5811,-1.4843,-1.4777,-1.4925,-1.4933,-1.5419,-1.7466,-1.7961,-1.7488,-1.5726,-1.6904,-1.7739,-1.5845,-1.7132,-1.7815,-1.5989,-1.7284,-1.7891,-1.5922,-1.736,-1.8572,-1.8572,-1.8723,-1.9489,-2.1464,-2.1912,-2.3,-2.4966,-2.513,-2.5371,-2.5841,-2.3732,-2.2656,-2.2968,-2.282,-2.2808,-2.298,-2.2808,-2.1764,-1.9664,-1.7465,-1.6401,-1.6401,-1.4293,-1.3403,-1.3403,-1.3403,-1.3403,-1.3403,-1.3403,-1.3403,-1.3403,-1.3403,-1.3403,-1.3403,-1.3403,-1.3403,-1.3363,0.0,0.0,0.0,0.0,0.0,0.0,0.0,0.0,0.0,0.0,0.0,0.0,0.0,0.0,0.0,0.0,0.0,0.0,-2.2928,-2.2928,-2.2928,-2.2928,-2.2928,-2.2928,-2.2928,-2.2928,-2.2928,-2.2928,-2.2928,-2.2928,-2.2941,-2.318,-2.3487,-2.3781,-2.4075,-2.4369,-2.4636,-2.4636,-2.4636,-2.4636,-2.4636,-2.4636,-2.4636,-2.4636,-2.3648,-2.236,-2.236,-2.1365,-2.0391,-2.1826,-2.236,-2.2657,-2.4105,-2.3331,-2.1801,-2.1349,-1.8853,-1.6086,-1.5112,-1.3984,-1.3348,-1.4819,-1.5294,-1.548,-1.6063,-1.6148,-1.5633,-1.363,-1.3722,-1.433,-1.531,-1.5922,-1.6599,-1.7663,-1.827,-1.8421,-1.7891,-1.827,-1.8572,-1.8572,-1.993,-2.1146,-2.186,-2.3329,-2.4707,-2.5705,-2.5732,-2.5075,-2.3629,-2.1656,-2.0653,-2.0716,-1.9085,-1.9085,-2.0716,-1.9085,-1.7946,-1.7384,-1.5275,-1.4217,-1.4217,-1.3645,-1.3403,-1.3403,-1.3403,-1.3403,-1.3403,-1.3403,-1.3403,-1.3403,-1.3403,-1.3403,-1.3403,-1.3403,-1.3403,-1.339,0.0,0.0,0.0,0.0,0.0,0.0,0.0,0.0,0.0,0.0,0.0,0.0,0.0,0.0,0.0,0.0,0.0,0.0,0.0,-2.2928,-2.2928,-2.2928,-2.2928,-2.2928,-2.2928,-2.2928,-2.2926,-2.3073,-2.2926,-2.2939,-2.3073,-2.31,-2.3287,-2.3594,-2.3875,-2.4168,-2.4449,-2.4583,-2.4105,0.0,0.0,-2.2732,-2.1975,-2.1975,-2.1291,-2.0305,-2.0305,-1.895,-1.7588,-1.9629,-2.0305,-2.0466,-2.1601,-2.0969,-1.9678,-1.8957,-1.6964,-1.4828,-1.4018,-1.3141,-1.2685,-1.3809,-1.4099,-1.4176,-1.4176,-1.4176,-1.3868,-1.2733,-1.3182,-1.3868,-1.4176,-1.4935,-1.5616,-1.5845,-1.5922,-1.5922,-1.5922,-1.5922,-1.5922,-1.5922,-1.7816,-1.9146,-1.928,-2.1331,-2.2835,-2.3122,-2.4033,-2.4083,-2.2917,-2.0078,-1.8444,-1.8444,-1.722,-1.722,-1.8435,-1.722,-1.6164,-1.5185,-1.3969,-1.3403,-1.3403,-1.3403,-1.3403,-1.3403,-1.3403,-1.3403,-1.3403,-1.3403,-1.3403,-1.3403,-1.3403,-1.3403,-1.3403,-1.3403,-1.3403,-1.3403,0.0,0.0,0.0,0.0,0.0,0.0,0.0,0.0,0.0,0.0,0.0,0.0,0.0,0.0,0.0,0.0,0.0,0.0,0.0,0.0,-2.2928,-2.2928,-2.2928,-2.2928,-2.2928,-2.2928,-2.2993,-2.326,-2.2993,-2.3006,-2.326,-2.2993,-2.3033,-2.334,-2.3594,-2.3901,-2.4222,-2.4476,-2.3536,-2.1975,-2.1676,-2.0542,-1.895,0.0,-1.8421,-1.8118,-1.7891,-1.6599,-1.5387,-1.7208,-1.7967,-1.827,-1.8497,-1.8215,-1.7498,-1.5946,-1.5126,-1.4438,-1.2923,-1.2501,-1.2501,-1.2501,-1.2501,-1.2501,-1.2501,-1.2501,-1.2501,-1.2501,-1.3868,-1.4552,-1.2804,-1.4176,-1.4859,-1.2804,-1.2733,-1.2804,-1.2579,-1.2501,-1.2508,-1.2528,-1.4571,-1.5913,-1.5895,-1.8157,-1.9653,-1.9524,-2.0968,-2.2021,-2.2235,-1.8679,-1.6483,-1.6164,-1.6164,-1.6164,-1.6164,-1.6164,-1.5267,-1.3403,-1.3403,-1.3403,-1.3403,-1.3403,-1.3403,-1.3403,-1.3403,-1.3403,-1.3403,-1.3403,-1.3403,-1.3403,-1.3403,-1.3403,-1.3403,-1.3403,-1.3403,-1.3403,0.0,0.0,0.0,0.0,0.0,0.0,0.0,0.0,0.0,0.0,-2.2352,-2.2592,0.0,0.0,0.0,0.0,0.0,0.0,0.0,0.0,0.0,-2.2928,-2.2928,-2.2928,-2.2928,-2.2928,-2.2886,-2.2939,-2.2886,-2.2886,-2.2939,-2.2886,-2.3033,-2.3327,-2.338,-2.3701,-2.4209,-2.4262,-2.4189,-2.3957,-2.2285,-2.1377,-2.0916,-1.9252,0.0,0.0,-1.4176,-1.3337,-1.3112,-1.3414,-1.4629,-1.6371,-1.8042,-1.7407,-1.5878,-1.5608,-1.4306,-1.2846,-1.2572,-1.2501,-1.2501,-1.2501,-1.2501,-1.2501,-1.2501,-1.2501,-1.2501,-1.2501,-1.2811,-1.2881,-1.2579,-1.4176,-1.4859,-1.2804,-1.3868,-1.4399,-1.2733,-1.2501,-1.2549,-1.2678,-1.4571,-1.5945,-1.6258,-1.8248,-1.9644,-1.9836,-1.8469,-1.7665,-1.7701,-1.6975,-1.5753,-1.3969,-1.3969,-1.3969,-1.3969,-1.3969,-1.3811,-1.3403,-1.3403,-1.3403,-1.3403,-1.3403,-1.3403,-1.3403,-1.3403,-1.3403,-1.3403,-1.3403,-1.3403,-1.3403,-1.3403,-1.3403,-1.3403,-1.3403,-1.3403,-1.3403,0.0,0.0,0.0,0.0,0.0,0.0,0.0,-2.1323,-2.143,-2.1724,-2.1884,-2.2138,-2.2579,-2.2766,0.0,0.0,0.0,0.0,0.0,0.0,0.0,-2.2928,-2.2928,-2.2928,-2.2928,-2.2928,-2.2939,-2.31,0.0,-2.2939,-2.31,-2.2939,-2.2939,-2.3086,-2.326,-2.3487,-2.3768,-2.4075,-2.3679,-2.2768,-2.1927,-2.0305,-1.8345,-1.736,0.0,0.0,-1.2881,-1.2501,-1.2501,-1.2501,-1.3112,-1.4099,-1.5089,-1.4705,-1.3945,-1.3945,-1.3259,-1.2501,-1.2501,-1.2501,-1.2501,-1.2501,-1.2501,-1.2501,-1.2501,-1.2501,-1.2501,-1.2501,-1.2501,-1.2501,-1.2501,-1.3259,-1.3645,-1.2656,-1.3337,-1.3568,-1.2656,-1.2501,-1.2528,-1.2603,-1.461,-1.5652,-1.472,-1.6644,-1.7602,-1.6574,-1.5514,-1.5432,-1.6565,-1.5514,-1.4458,-1.3397,-1.3403,-1.3403,-1.3403,-1.3403,-1.3403,-1.3403,-1.3403,-1.3403,-1.3403,-1.3403,-1.3403,-1.3403,-1.3403,-1.3403,-1.3403,-1.3403,-1.3403,-1.3403,-1.3403,-1.3403,-1.3403,-1.3403,-1.3403,-1.3403,0.0,0.0,0.0,0.0,0.0,0.0,0.0,-2.1109,-2.1189,-2.1494,-2.1574,-2.1789,-2.2178,-2.2552,-2.2792,0.0,0.0,0.0,0.0,0.0,0.0,0.0,0.0,0.0,-2.2297,0.0,0.0,-2.2008,-2.1779,0.0,0.0,0.0,0.0,0.0,-2.1906,-2.2046,-2.2134,-2.2637,-2.1934,0.0,0.0,-1.8371,-1.5463,0.0,0.0,0.0,0.0,-1.2501,-1.2501,-1.2501,-1.2481,-1.2454,-1.2454,-1.2474,-1.2494,-1.2467,-1.2474,-1.2501,-1.2501,-1.2501,-1.2501,-1.2501,-1.2501,-1.2501,-1.2501,-1.2501,-1.2501,-1.2501,-1.2501,-1.2501,-1.2501,-1.2501,-1.2501,-1.2501,-1.2501,-1.2501,-1.2501,-1.2501,-1.2528,-1.2589,-1.4294,-1.4875,-1.3205,-1.4794,-1.5185,-1.3562,-1.3403,-1.4135,-1.5835,-1.4293,-1.3403,-1.3403,-1.3403,-1.3403,-1.3403,-1.3403,-1.3403,-1.3403,-1.3403,-1.3403,-1.3403,-1.3403,-1.3403,-1.3403,-1.3403,-1.3403,-1.3403,-1.3403,-1.3403,-1.3403,-1.3403,-1.3403,-1.3403,-1.3403,-1.3403,-1.3403,0.0,0.0,0.0,0.0,0.0,0.0,0.0,-2.1109,-2.1122,-2.1149,-2.139,-2.1641,-2.1695,-2.2124,-2.2565,0.0,0.0,0.0,0.0,0.0,0.0,0.0,0.0,0.0,0.0,0.0,0.0,-1.777,-1.7749,0.0,0.0,0.0,0.0,0.0,0.0,-1.7965,-1.8235,-1.8277,0.0,0.0,0.0,0.0,0.0,0.0,0.0,0.0,0.0,-1.2501,-1.2501,-1.2501,-1.2413,-1.2311,-1.2311,-1.24,-1.2474,-1.2345,-1.24,-1.2501,-1.2501,-1.2501,-1.2501,-1.2501,-1.2501,-1.2501,-1.2501,-1.2501,-1.2501,-1.2501,-1.2501,-1.2501,-1.2501,-1.2501,-1.2501,-1.2501,-1.2501,-1.2501,-1.2501,-1.2501,-1.2603,-1.2888,-1.3182,-1.3307,-1.3336,-1.3549,-1.3645,-1.3403,-1.3403,-1.3486,-1.3645,-1.348,-1.3403,-1.3403,-1.3403,-1.3403,-1.3403,-1.3403,-1.3403,-1.3403,-1.3403,-1.3403,-1.3403,-1.3403,-1.3403,-1.3403,-1.3403,-1.3403,-1.3403,-1.3403,-1.3403,-1.3403,-1.3403,-1.3403,-1.3403,-1.3403,-1.3403,-1.3403,0.0,0.0,0.0,0.0,0.0,0.0,-2.1109,-2.1109,-2.1109,-2.1109,-2.1216,-2.1349,-2.1601,-2.1764,-2.2084,0.0,0.0,0.0,0.0,0.0,0.0,0.0,0.0,0.0,0.0,0.0,-1.8379,-1.7178,-1.7178,0.0,0.0,0.0,0.0,0.0,0.0,-1.7298,-1.7389,-1.7602,0.0,0.0,0.0,0.0,0.0,0.0,0.0,0.0,0.0,0.0,-1.2501,-1.2501,-1.2406,-1.2277,-1.2182,-1.2189,-1.2244,-1.2277,-1.2332,-1.2393,-1.2481,-1.2501,-1.2501,-1.2501,-1.2501,-1.2501,-1.2501,-1.2501,-1.2501,-1.2501,-1.2501,-1.2501,-1.2501,-1.2501,-1.2501,-1.2501,-1.2501,-1.2501,-1.2501,-1.2501,-1.2583,-1.2793,-1.2901,-1.3037,-1.3247,-1.3349,-1.3403,-1.3403,-1.3403,-1.3403,-1.3403,-1.3403,-1.3403,-1.3403,-1.3403,-1.3403,-1.3403,-1.3403,-1.3403,-1.3403,-1.3403,-1.3403,-1.3403,-1.3403,-1.3403,-1.3403,-1.3403,-1.3403,-1.3403,-1.3403,-1.3403,-1.3403,-1.3403,-1.3403,-1.3403,-1.3403,-1.3403,-1.3403,0.0,0.0,0.0,0.0,0.0,-2.1109,-2.1109,-2.1109,-2.1109,-2.1109,-2.1109,-2.1189,-2.1403,-2.143,-2.1617,-2.2124,0.0,0.0,0.0,0.0,0.0,0.0,0.0,0.0,0.0,0.0,-1.7458,-1.5566,-1.5566,-1.5566,0.0,0.0,-1.5566,-1.5566,0.0,0.0,0.0,0.0,0.0,0.0,0.0,0.0,0.0,0.0,0.0,0.0,0.0,0.0,0.0,0.0,0.0,-1.2203,-1.2094,-1.1999,-1.1959,-1.2108,-1.2216,-1.2311,-1.2413,-1.2467,-1.2501,-1.2501,-1.2501,-1.2501,-1.2501,-1.2501,-1.2501,-1.2501,-1.2501,-1.2501,-1.2501,-1.2501,-1.2501,-1.2501,-1.2501,-1.2501,-1.2501,-1.2501,-1.2556,-1.2712,-1.2868,-1.3017,-1.3159,-1.3308,-1.3403,-1.3403,-1.3403,-1.3403,-1.3403,-1.3403,-1.3403,-1.3403,-1.3403,-1.3403,-1.3403,-1.3403,-1.3403,-1.3403,-1.3403,-1.3403,-1.3403,-1.3403,-1.3403,-1.3403,-1.3403,-1.3403,-1.3403,-1.3403,-1.3403,-1.3403,-1.3403,-1.3403,-1.3403,-1.3403,-1.3403,-1.3403,0.0,0.0,0.0,0.0,0.0,0.0,0.0,-2.1109,-2.1109,-2.1109,-2.1109,-2.1109,-2.1109,-2.1109,-2.1229,-2.1601,0.0,0.0,0.0,0.0,0.0,0.0,0.0,0.0,0.0,0.0,-1.3515,-1.1691,-1.1691,-1.1691,-1.1691,-1.1691,-1.1691,-1.1691,0.0,0.0,0.0,0.0,0.0,0.0,0.0,0.0,-1.2142,0.0,0.0,0.0,0.0,0.0,0.0,0.0,0.0,0.0,0.0,-1.1857,-1.1653,-1.1796,-1.2054,-1.2291,-1.2291,-1.2393,-1.2501,-1.2501,-1.2501,-1.2501,-1.2501,-1.2501,-1.2501,-1.2501,-1.2501,-1.2501,-1.2501,-1.2501,-1.2501,-1.2501,-1.2501,-1.2501,-1.2501,-1.2501,-1.2556,-1.2712,-1.2868,-1.3017,-1.3159,-1.3308,-1.3403,-1.3403,-1.3403,-1.3403,-1.3403,-1.3403,-1.3403,-1.3403,-1.3403,-1.3403,-1.3403,-1.3403,-1.3403,-1.3403,-1.3403,-1.3403,-1.3403,-1.3403,-1.3403,-1.3403,-1.3403,-1.3403,-1.3403,-1.3403,-1.3403,-1.3403,-1.3403,-1.3403,-1.3403,-1.3403,-1.3403,-1.3403,0.0,0.0,0.0,0.0,0.0,0.0,0.0,-2.1109,-2.1109,-2.1109,-2.1109,-2.1109,-2.1109,-2.1109,-2.0692,-1.9606,0.0,0.0,0.0,0.0,0.0,0.0,0.0,0.0,0.0,-1.4716,-1.3444,-1.1619,-1.1619,-1.1619,-1.1619,-1.1619,-1.1619,-1.1619,-1.1619,-1.1619,0.0,0.0,0.0,0.0,0.0,-1.1904,-1.1918,0.0,0.0,0.0,0.0,0.0,0.0,0.0,0.0,0.0,0.0,0.0,0.0,-1.1789,-1.1972,-1.2155,-1.2264,-1.2393,-1.2501,-1.2501,-1.2501,-1.2501,-1.2501,-1.2501,-1.2501,-1.2501,-1.2501,-1.2501,-1.2501,-1.2501,-1.2501,-1.2501,-1.2501,-1.2501,-1.2501,-1.2501,-1.2556,-1.2712,-1.2949,-1.3166,-1.3315,-1.337,-1.3403,-1.3403,-1.3403,-1.3403,-1.3403,-1.3403,-1.3403,-1.3403,-1.3403,-1.3403,-1.3403,-1.3403,-1.3403,-1.3403,-1.3403,-1.3403,-1.3403,-1.3403,-1.3403,-1.3403,-1.3403,-1.3403,-1.3403,-1.3403,-1.3403,-1.3403,-1.3403,-1.3403,-1.3403,-1.3403,-1.3403,-1.3403,0.0,0.0,0.0,0.0,0.0,0.0,0.0,-2.1109,-2.1109,-2.1109,-2.1109,-2.1109,-2.1109,-2.0526,-1.9674,-1.8576,0.0,0.0,0.0,0.0,0.0,0.0,0.0,0.0,-1.4432,-1.4432,-1.3444,-1.1619,-1.1619,-1.1619,-1.1619,-1.1619,-1.1619,-1.1619,-1.1619,-1.1619,0.0,0.0,0.0,0.0,-1.1714,-1.1748,-1.1762,0.0,0.0,0.0,0.0,0.0,0.0,0.0,0.0,0.0,0.0,0.0,0.0,0.0,-1.1938,-1.2094,-1.225,-1.2393,-1.2501,-1.2501,-1.2501,-1.2501,-1.2501,-1.2501,-1.2501,-1.2501,-1.2501,-1.2501,-1.2501,-1.2501,-1.2501,-1.2501,-1.2501,-1.2501,-1.2501,-1.2501,-1.2583,-1.2793,-1.2983,-1.3173,-1.3383,-1.3403,-1.3403,-1.3403,-1.3403,-1.3403,-1.3403,-1.3403,-1.3403,-1.3403,-1.3403,-1.3403,-1.3403,-1.3403,-1.3403,-1.3403,-1.3403,-1.3403,-1.3403,-1.3403,-1.3403,-1.3403,-1.3403,-1.3403,0.0,-1.3403,-1.3403,-1.3403,-1.3403,-1.3403,-1.3403,-1.3403,-1.3403,-1.3403,0.0,0.0,0.0,0.0,0.0,0.0,0.0,0.0,-2.1109,-2.1109,-2.1109,-2.1109,-2.1109,-1.9546,-1.8436,-1.832,0.0,0.0,0.0,0.0,0.0,0.0,0.0,0.0,-1.4219,-1.4219,-1.3381,-1.1619,-1.1619,-1.1619,-1.1619,-1.1619,-1.1619,-1.1619,-1.1619,-1.1619,-1.1619,0.0,0.0,0.0,-1.1619,-1.1619,0.0,0.0,0.0,0.0,0.0,0.0,0.0,0.0,0.0,0.0,0.0,0.0,0.0,0.0,0.0,0.0,0.0,-1.24,-1.2501,-1.2501,-1.2501,-1.2501,-1.2501,-1.2501,0.0,-1.2501,-1.2501,-1.2501,-1.2501,-1.2501,-1.2501,-1.2501,-1.2501,-1.2501,-1.2501,-1.2508,-1.263,-1.2929,-1.2969,-1.3085,-1.337,-1.3403,-1.3403,-1.3403,-1.3403,-1.3403,-1.3403,-1.3403,-1.3403,-1.3403,-1.3403,-1.3403,-1.3403,-1.3403,-1.3403,-1.3403,-1.3403,-1.3403,-1.3403,-1.3403,-1.3403,-1.3403,-1.3403,-1.3403,-1.3403,-1.3403,-1.3403,-1.3403,-1.3403,-1.3403,-1.3403,-1.3403,-1.3403,-1.3403,0.0,0.0,0.0,0.0,0.0,0.0,0.0,0.0,0.0,0.0,-2.1109,-2.1109,-2.1109,-1.9546,-1.7988,0.0,0.0,0.0,0.0,0.0,0.0,0.0,0.0,0.0,-1.2252,-1.2252,-1.2043,-1.1619,-1.1619,-1.1619,-1.1619,-1.1619,-1.1619,-1.1619,-1.1619,-1.1619,-1.1619,-1.1619,0.0,0.0,-1.1619,-1.1619,0.0,0.0,0.0,0.0,-1.1653,-1.1667,0.0,0.0,0.0,0.0,0.0,0.0,0.0,0.0,-1.2033,-1.2121,-1.2379,0.0,-1.2501,-1.2501,-1.2501,-1.2501,0.0,-1.2501,-1.2501,-1.2501,-1.2501,-1.2501,-1.2501,-1.2501,-1.2501,-1.2501,-1.2501,-1.2501,-1.2501,-1.2603,-1.2745,-1.2935,-1.3057,-1.3193,-1.3383,-1.3403,-1.3403,-1.3403,-1.3403,-1.3403,-1.3403,-1.3403,-1.3403,-1.3403,-1.3403,-1.3403,-1.3403,-1.3403,-1.3403,-1.3403,-1.3403,-1.3403,-1.3403,-1.3403,-1.3403,-1.3403,-1.3403,-1.3403,-1.3403,-1.3403,-1.3403,-1.3403,-1.3403,-1.3403,-1.3403,-1.3403,-1.3403,-1.3403,0.0,0.0,0.0,0.0,0.0,0.0,0.0,0.0,0.0,0.0,0.0,0.0,0.0,0.0,0.0,0.0,0.0,0.0,0.0,0.0,0.0,0.0,0.0,-1.1619,-1.1619,-1.1619,-1.1619,-1.1619,-1.1619,-1.1619,-1.1619,-1.1619,-1.1619,-1.1619,-1.1619,-1.1619,-1.1619,-1.1619,-1.1619,-1.1619,-1.1619,0.0,0.0,0.0,0.0,0.0,-1.1619,-1.1619,0.0,-1.1619,-1.1619,-1.1619,0.0,0.0,0.0,0.0,-1.2006,-1.2115,-1.2338,-1.2454,-1.2501,-1.2501,-1.2501,-1.2501,-1.2501,-1.2501,-1.2501,-1.2501,-1.2501,-1.2501,-1.2501,-1.2501,-1.2501,-1.2501,-1.2501,-1.2501,-1.2501,-1.263,-1.2786,-1.2942,-1.3085,-1.3234,-1.339,-1.3403,-1.3403,-1.3403,-1.3403,-1.3403,-1.3403,-1.3403,-1.3403,-1.3403,-1.3403,-1.3403,-1.3403,-1.3403,-1.3403,-1.3403,-1.3403,-1.3403,-1.3403,-1.3403,-1.3403,-1.3403,-1.3403,-1.3403,-1.3403,-1.3403,-1.3403,-1.3403,-1.3403,-1.3403,-1.3403,-1.3403,-1.3403,-1.3403,0.0,0.0,0.0,0.0,0.0,0.0,0.0,0.0,0.0,0.0,0.0,0.0,0.0,0.0,0.0,0.0,0.0,0.0,0.0,0.0,0.0,0.0,-1.147,-1.1619,-1.1619,-1.1619,-1.1619,-1.1619,-1.1619,-1.1619,-1.1619,-1.1619,-1.1619,-1.1619,-1.1619,-1.1619,-1.1619,-1.1619,-1.1619,-1.1619,-1.1619,0.0,0.0,0.0,0.0,0.0,0.0,0.0,0.0,-1.1619,-1.1619,-1.1619,-1.1619,0.0,0.0,0.0,0.0,0.0,-1.225,-1.2393,-1.2501,-1.2501,-1.2501,-1.2501,-1.2501,-1.2501,-1.2501,-1.2501,-1.2501,-1.2501,-1.2501,-1.2501,-1.2501,-1.2501,-1.2501,-1.2501,-1.2501,-1.2651,-1.2813,-1.2942,-1.3105,-1.3261,-1.339,-1.3403,-1.3403,-1.3403,-1.3403,-1.3403,-1.3403,-1.3403,-1.3403,-1.3403,-1.3403,-1.3403,-1.3403,-1.3403,-1.3403,-1.3403,-1.3403,-1.3403,-1.3403,-1.3403,-1.3403,-1.3403,-1.3403,-1.3403,-1.3403,-1.3403,-1.3403,-1.3403,-1.3403,-1.3403,-1.3403,-1.3403,-1.3403,-1.3403,0.0,0.0,0.0,0.0,0.0,0.0,0.0,0.0,0.0,0.0,0.0,0.0,0.0,0.0,0.0,0.0,0.0,0.0,0.0,0.0,0.0,-1.1355,-1.1525,-1.1619,-1.1619,-1.1619,-1.1619,-1.1619,-1.1619,-1.1619,-1.1619,-1.1619,-1.1619,-1.1619,-1.1619,-1.1619,-1.1619,-1.1619,-1.1619,-1.1619,-1.1619,0.0,0.0,0.0,0.0,0.0,0.0,0.0,0.0,-1.1619,-1.1619,-1.1619,-1.1619,0.0,0.0,0.0,0.0,0.0,-1.225,-1.2393,-1.2501,-1.2501,-1.2501,-1.2501,-1.2501,-1.2501,-1.2501,-1.2501,-1.2501,-1.2501,-1.2501,-1.2501,-1.2501,-1.2501,-1.2501,-1.2501,-1.2501,-1.2745,-1.2935,-1.3036,-1.32,-1.3376,-1.3397,-1.3403,-1.3403,-1.3403,-1.3403,-1.3403,-1.3403,-1.3403,-1.3403,-1.3403,-1.3403,-1.3403,-1.3403,-1.3403,-1.3403,-1.3403,-1.3403,-1.3403,-1.3403,-1.3403,-1.3403,-1.3403,-1.3403,-1.3403,-1.3403,-1.3403,-1.3403,-1.3403,-1.3403,-1.3403,-1.3403,-1.3403,-1.3403,-1.3403,0.0,0.0,0.0,0.0,0.0,0.0,0.0,0.0,0.0,0.0,0.0,0.0,0.0,0.0,0.0,0.0,0.0,0.0,0.0,0.0,-1.143,-1.1511,-1.1586,-1.1619,-1.1619,-1.1619,-1.1619,-1.1619,-1.1619,-1.1619,-1.1619,-1.1619,-1.1619,-1.1619,-1.1619,-1.1619,-1.1619,-1.1619,-1.1619,-1.1619,0.0,0.0,0.0,0.0,0.0,0.0,0.0,0.0,0.0,0.0,-1.1619,-1.1619,-1.1619,0.0,0.0,0.0,0.0,0.0,-1.2128,-1.2277,-1.2406,-1.2481,-1.2501,-1.2501,-1.2501,-1.2501,-1.2501,-1.2501,-1.2501,-1.2501,-1.2501,-1.2501,-1.2501,-1.2501,-1.2501,-1.2501,-1.2501,-1.2766,-1.2963,-1.2963,-1.322,-1.3403,-1.3403,-1.3403,-1.3403,-1.3403,-1.3403,-1.3403,-1.3403,-1.3403,-1.3403,-1.3403,-1.3403,-1.3403,-1.3403,-1.3403,-1.3403,-1.3403,-1.3403,-1.3403,-1.3403,-1.3403,-1.3403,-1.3403,-1.3403,-1.3403,-1.3403,-1.3403,-1.3403,-1.3403,-1.3403,-1.3403,-1.3403,-1.3403,-1.3403,-1.3403,0.0,0.0,0.0,0.0,0.0,0.0,0.0,0.0,0.0,0.0,0.0,0.0,0.0,0.0,0.0,0.0,0.0,0.0,0.0,-1.1443,-1.1497,-1.1613,-1.1619,-1.1619,-1.1619,-1.1619,-1.1619,-1.1619,-1.1619,-1.1619,-1.1619,-1.1619,-1.1619,-1.1619,-1.1619,-1.1619,-1.1619,-1.1619,-1.1619,-1.1619,0.0,0.0,0.0,0.0,0.0,0.0,0.0,0.0,0.0,0.0,0.0,0.0,0.0,0.0,0.0,-1.1619,-1.1721,-1.1857,-1.1972,-1.2149,-1.2318,-1.2427,-1.2474,-1.2501,-1.2501,-1.2501,-1.2501,-1.2501,-1.2501,-1.2501,-1.2501,-1.2501,-1.2501,-1.2501,-1.2501,-1.2515,-1.2549,-1.2793,-1.2976,-1.301,-1.3241,-1.3403,-1.3403,-1.3403,-1.3403,-1.3403,-1.3403,-1.3403,-1.3403,-1.3403,-1.3403,-1.3403,-1.3403,-1.3403,-1.3403,-1.3403,-1.3403,-1.3403,-1.3403,-1.3403,-1.3403,-1.3403,-1.3403,-1.3403,-1.3403,-1.3403,-1.3403,-1.3403,-1.3403,-1.3403,-1.3403,-1.3403,-1.3403,-1.3403,-1.3403,-1.3403,0.0,0.0,0.0,0.0,0.0,0.0,0.0,0.0,0.0,0.0,0.0,0.0,0.0,0.0,0.0,0.0,0.0,0.0,0.0,-1.1606,-1.1606,-1.1619,-1.1619,-1.1619,-1.1619,-1.1619,-1.1619,-1.1619,-1.1619,-1.1619,-1.1619,-1.1619,-1.1619,-1.1619,-1.1619,-1.1619,-1.1619,-1.1619,-1.1619,-1.1619,-1.1619,0.0,0.0,0.0,0.0,0.0,0.0,0.0,0.0,0.0,0.0,0.0,0.0,0.0,-1.1619,-1.1619,-1.1721,-1.183,-1.1843,-1.2067,-1.2291,-1.2305,-1.2406,-1.2501,-1.2501,-1.2501,-1.2501,-1.2501,-1.2501,-1.2501,-1.2501,-1.2501,-1.2501,-1.2501,-1.2501,-1.2549,-1.2691,-1.2854,-1.301,-1.3139,-1.3302,-1.3403,-1.3403,-1.3403,-1.3403,-1.3403,-1.3403,-1.3403,-1.3403,-1.3403,-1.3403,-1.3403,-1.3403,-1.3403,-1.3403,-1.3403,-1.3403,-1.3403,-1.3403,-1.3403,-1.3403,-1.3403,-1.3403,-1.3403,-1.3403,-1.3403,-1.3403,-1.3403,-1.3403,-1.3403,-1.3403,-1.3403,-1.3403,-1.3403,-1.3403,-1.3403,0.0,0.0,0.0,0.0,0.0,0.0,0.0,0.0,0.0,0.0,0.0,0.0,0.0,0.0,0.0,0.0,0.0,0.0,0.0,-1.1619,-1.1619,-1.1619,-1.1619,-1.1619,-1.1619,-1.1619,-1.1619,-1.1619,-1.1619,-1.1619,-1.1619,-1.1619,-1.1619,-1.1619,-1.1619,-1.1619,-1.1619,-1.1619,-1.1619,-1.1619,-1.1619,-1.1619,0.0,0.0,0.0,0.0,0.0,0.0,0.0,0.0,-1.1619,-1.1619,-1.1619,-1.1619,-1.1619,-1.1619,-1.166,-1.1714,-1.1809,-1.1918,-1.2047,-1.2244,-1.2332,-1.2393,-1.2481,-1.2501,-1.2501,-1.2501,-1.2501,-1.2501,-1.2501,-1.2501,-1.2501,-1.2501,-1.2501,-1.2556,-1.2712,-1.2861,-1.3017,-1.3152,-1.3308,-1.3403,-1.3403,-1.3403,-1.3403,-1.3403,-1.3403,-1.3403,-1.3403,-1.3403,-1.3403,-1.3403,-1.3403,-1.3403,-1.3403,-1.3403,-1.3403,-1.3403,-1.3403,-1.3403,-1.3403,-1.3403,-1.3403,-1.3403,-1.3403,-1.3403,-1.3403,-1.3403,-1.3403,-1.3403,-1.3403,-1.3403,-1.3403,-1.3403,-1.3403,-1.3403,0.0,0.0,0.0,0.0,0.0,0.0,0.0,0.0,0.0,0.0,0.0,0.0,0.0,0.0,0.0,0.0,0.0,0.0,-1.1691,-1.1619,-1.1619,-1.1619,-1.1619,-1.1619,-1.1619,-1.1619,-1.1619,-1.1619,-1.1619,-1.1619,-1.1619,-1.1619,-1.1619,-1.1619,-1.1619,-1.1619,-1.1619,-1.1619,-1.1619,-1.1619,-1.1619,-1.1619,0.0,0.0,0.0,0.0,0.0,0.0,0.0,0.0,-1.1619,-1.1619,-1.1619,-1.1619,-1.1619,-1.1619,-1.1619,-1.164,-1.1735,-1.1796,-1.1884,-1.2094,-1.2216,-1.2318,-1.2413,-1.2467,-1.2501,-1.2501,-1.2501,-1.2501,-1.2501,-1.2501,-1.2501,-1.2501,-1.2501,-1.2569,-1.2773,-1.2895,-1.303,-1.322,-1.3336,-1.3403,-1.3403,-1.3403,-1.3403,-1.3403,-1.3403,-1.3403,-1.3403,-1.3403,-1.3403,-1.3403,-1.3403,-1.3403,-1.3403,-1.3403,-1.3403,-1.3403,-1.3403,-1.3403,-1.3403,-1.3403,-1.3403,-1.3403,-1.3403,-1.3403,-1.3403,-1.3403,-1.3403,-1.3403,-1.3403,-1.3403,-1.3403,-1.3403,-1.3403,-1.341,0.0,0.0,0.0,0.0,0.0,0.0,0.0,0.0,0.0,0.0,0.0,0.0,0.0,0.0,0.0,0.0,0.0,0.0,-1.1691,-1.1619,-1.1619,-1.1619,-1.1619,-1.1619,-1.1619,-1.1619,-1.1619,-1.1619,-1.1619,-1.1619,-1.1619,-1.1619,-1.1619,-1.1619,-1.1619,-1.1619,-1.1619,-1.1619,-1.1619,-1.1619,-1.1619,-1.1619,-1.1619,0.0,0.0,0.0,0.0,0.0,0.0,0.0,-1.1619,-1.1619,-1.1619,-1.1619,-1.1619,-1.1619,-1.1619,-1.1619,-1.1619,-1.1721,-1.183,-1.183,-1.206,-1.2284,-1.2291,-1.24,-1.2501,-1.2501,-1.2501,-1.2501,-1.2501,-1.2501,-1.2501,-1.2501,-1.2501,-1.261,-1.2915,-1.2963,-1.3071,-1.3363,-1.3403,-1.3403,-1.3403,-1.3403,-1.3403,-1.3403,-1.3403,-1.3403,-1.3403,-1.3403,-1.3403,-1.3403,-1.3403,-1.3403,-1.3403,-1.3403,-1.3403,-1.3403,-1.3403,-1.3403,-1.3403,-1.3403,-1.3403,-1.3403,-1.3403,-1.3403,-1.3403,-1.3403,-1.3403,-1.3403,-1.3403,-1.3403,-1.3403,-1.3403,-1.3403,-1.3424,0.0,0.0,0.0,0.0,0.0,0.0,0.0,0.0,0.0,0.0,0.0,0.0,0.0,0.0,0.0,0.0,0.0,0.0,-1.1619,-1.1619,-1.1619,-1.1619,-1.1619,-1.1619,-1.1619,-1.1619,-1.1619,-1.1619,-1.1619,-1.1619,-1.1619,-1.1619,-1.1619,-1.1619,-1.1619,-1.1619,-1.1619,-1.1619,-1.1619,-1.1619,-1.1619,-1.1619,-1.1619,0.0,0.0,0.0,0.0,0.0,0.0,0.0,0.0,0.0,-1.1619,-1.1619,-1.1619,-1.1619,-1.1619,-1.1619,-1.1619,-1.1647,-1.1708,-1.1809,-1.1898,-1.2026,-1.2244,-1.24,-1.2501,-1.2501,-1.2501,-1.2501,-1.2501,-1.2501,-1.2501,-1.2501,-1.2501,-1.261,-1.2915,-1.2963,-1.3071,-1.3363,-1.3403,-1.3403,-1.3403,-1.3403,-1.3403,-1.3403,-1.3403,-1.3403,-1.3403,-1.3403,-1.3403,-1.3403,-1.3403,-1.3403,-1.3403,-1.3403,-1.3403,-1.3403,-1.3403,-1.3403,-1.3403,-1.3403,-1.3403,-1.3403,-1.3403,-1.3403,-1.3403,-1.3403,-1.3403,-1.3403,-1.3403,-1.3403,-1.3403,-1.3403,-1.3471,-1.3566,0.0,0.0,0.0,0.0,0.0,0.0,0.0,0.0,0.0,0.0,-1.8787,-1.7388,0.0,0.0,0.0,0.0,0.0,0.0,-1.1619,-1.1619,-1.1619,-1.1619,-1.1619,-1.1619,-1.1619,-1.1619,-1.1619,-1.1619,-1.1619,-1.1619,-1.1619,-1.1619,-1.1619,-1.1619,-1.1619,-1.1619,-1.1619,-1.1619,-1.1619,-1.1619,-1.1619,-1.1619,-1.1619,0.0,0.0,0.0,0.0,0.0,0.0,0.0,0.0,0.0,-1.1619,-1.1619,-1.1619,-1.1619,-1.1619,-1.1619,-1.1619,-1.1619,-1.164,-1.1728,-1.1789,-1.1898,-1.2142,-1.2359,-1.2501,-1.2501,-1.2501,-1.2501,-1.2501,-1.2501,-1.2501,-1.2501,-1.2501,-1.261,-1.2915,-1.2963,-1.3071,-1.3363,-1.3403,-1.3403,-1.3403,-1.3403,-1.3403,-1.3403,-1.3403,-1.3403,-1.3403,-1.3403,-1.3403,-1.3403,-1.3403,-1.3403,-1.3403,-1.3403,-1.3403,-1.3403,-1.3403,-1.3403,-1.3403,-1.3403,-1.3403,-1.3403,-1.3403,-1.3403,-1.3403,-1.3403,-1.3403,-1.3403,-1.3403,-1.3403,-1.341,-1.3471,-1.3553,-1.3648,0.0,0.0,0.0,0.0,0.0,0.0,0.0,0.0,0.0,0.0,-1.6685,-1.4361,0.0,0.0,0.0,0.0,0.0,0.0,0.0,-1.1619,-1.1619,-1.1619,-1.1619,-1.1619,-1.1619,-1.1619,-1.1619,-1.1619,-1.1619,-1.1619,-1.1619,-1.1619,-1.1619,-1.1619,-1.1619,-1.1619,-1.1619,-1.1619,-1.1619,-1.1548,-1.1397,-1.1325,-1.1325,-1.1109,0.0,0.0,0.0,0.0,0.0,0.0,0.0,0.0,-1.1619,-1.1619,-1.1619,-1.1619,-1.1619,-1.1619,-1.1619,-1.1619,-1.1619,-1.1619,-1.1728,-1.187,-1.2006,-1.2271,-1.2481,-1.2481,-1.2494,-1.2501,-1.2501,-1.2501,-1.2501,-1.2501,-1.2515,-1.2623,-1.2922,-1.2969,-1.3085,-1.337,-1.3403,-1.3403,-1.3403,-1.3403,-1.3403,-1.3403,-1.3403,-1.3403,-1.3403,-1.3403,-1.3403,-1.3403,-1.3403,-1.3403,-1.3403,-1.3403,-1.3403,-1.3403,-1.3403,-1.3403,-1.3403,-1.3403,-1.3403,-1.3403,-1.3403,-1.3403,-1.3403,-1.3403,-1.3403,-1.3403,-1.3403,-1.341,-1.3437,-1.358,-1.3648,-1.3709,0.0,0.0,0.0,0.0,0.0,0.0,0.0,0.0,0.0,0.0,0.0,0.0,0.0,0.0,0.0,0.0,0.0,0.0,0.0,-1.1619,-1.1619,-1.1619,-1.1619,-1.1619,-1.1619,-1.1619,-1.1619,-1.1619,-1.1619,-1.1619,-1.1619,-1.1619,-1.1619,-1.1619,-1.1619,-1.1619,-1.1619,-1.1619,-1.1619,-1.1476,-0.9939,-0.9357,-0.9141,-0.7621,-0.7042,0.0,0.0,0.0,0.0,0.0,0.0,0.0,-1.1619,-1.1619,-1.1619,-1.1619,-1.1619,-1.1619,-1.1619,-1.1619,-1.1619,-1.1619,-1.1728,-1.1837,-1.187,-1.2115,-1.2338,-1.2338,-1.2427,-1.2501,-1.2501,-1.2501,-1.2501,-1.2501,-1.2603,-1.2745,-1.2935,-1.3057,-1.3193,-1.3376,-1.3403,-1.3403,-1.3403,-1.3403,-1.3403,-1.3403,-1.3403,-1.3403,-1.3403,-1.3403,-1.3403,-1.3403,-1.3403,-1.3403,-1.3403,-1.3403,-1.3403,-1.3403,-1.3403,-1.3403,-1.3403,-1.3403,-1.3403,-1.3403,-1.3403,-1.3403,-1.3403,-1.3403,-1.3403,-1.3403,-1.3403,-1.3471,-1.3587,-1.3614,-1.3777,-1.3987,0.0,0.0,0.0,0.0,0.0,0.0,0.0,0.0,0.0,0.0,0.0,0.0,0.0,0.0,0.0,0.0,0.0,0.0,0.0,0.0,-1.1619,-1.1619,-1.1619,-1.1619,-1.1619,-1.1619,-1.1619,-1.1619,-1.1619,-1.1619,-1.1619,-1.1619,-1.1619,-1.1619,-1.1619,-1.1619,-1.1619,-1.1619,-1.1619,-1.1397,-0.9502,-0.8703,-0.8487,-0.6532,-0.5808,-0.5808,-0.5808,0.0,0.0,0.0,0.0,0.0,0.0,0.0,-1.0233,-1.0233,-1.0887,-1.1619,-1.1619,-1.1619,-1.1619,-1.1619,-1.1674,-1.1728,-1.1728,-1.1965,-1.2182,-1.2182,-1.2352,-1.2501,-1.2501,-1.2501,-1.2501,-1.2501,-1.263,-1.2786,-1.2942,-1.3085,-1.3227,-1.3383,-1.3403,-1.3403,-1.3403,-1.3403,-1.3403,-1.3403,-1.3403,-1.3403,-1.3403,-1.3403,-1.3403,-1.3403,-1.3403,-1.3403,-1.3403,-1.3403,-1.3403,-1.3403,-1.3403,-1.3403,-1.3403,-1.3403,-1.3403,-1.3403,-1.3403,-1.3403,-1.3403,-1.3403,-1.3403,-1.341,-1.3485,-1.3559,-1.3648,-1.379,-1.3939,-1.4082,0.0,0.0,0.0,0.0,0.0,0.0,0.0,0.0,0.0,0.0,0.0,0.0,0.0,0.0,0.0,0.0,0.0,0.0,0.0,0.0,0.0,-1.1619,-1.1619,-1.1619,-1.1619,-1.1619,-1.1619,-1.1619,-1.1619,-1.1619,-1.1619,-1.1619,-1.1619,-1.1619,-1.1619,-1.1619,-1.1619,-1.1619,-1.1619,-1.1397,-0.9141,-0.8194,-0.7977,-0.5663,-0.4796,-0.4796,-0.4796,-0.5011,-0.5301,-0.5301,0.0,0.0,0.0,0.0,-0.8703,-0.8703,-0.9867,-1.1181,-1.1476,-1.1619,-1.1619,-1.1619,-1.1619,-1.1619,-1.1619,-1.183,-1.2033,-1.2054,-1.2298,-1.2501,-1.2501,-1.2501,-1.2501,-1.2501,-1.2651,-1.2813,-1.2942,-1.3105,-1.3261,-1.3383,-1.3403,-1.3403,-1.3403,-1.3403,-1.3403,-1.3403,-1.3403,-1.3403,-1.3403,-1.3403,-1.3403,-1.3403,-1.3403,-1.3403,-1.3403,-1.3403,-1.3403,-1.3403,-1.3403,-1.3403,-1.3403,-1.3403,-1.3403,-1.3403,-1.3403,-1.3403,-1.3403,-1.3403,-1.3417,-1.3451,-1.358,-1.3661,-1.3736,-1.398,-1.4089,-1.4129,0.0,0.0,0.0,0.0,0.0,0.0,0.0,0.0,0.0,0.0,-1.2745,-1.1619,0.0,0.0,0.0,0.0,0.0,0.0,0.0,0.0,0.0,-1.1619,-1.1619,-1.1619,-1.1619,-1.1619,-1.1619,-1.1619,-1.1619,-1.1619,-1.1619,-1.1619,-1.1619,-1.1619,-1.1619,-1.1619,-1.1619,-1.1619,-1.1619,-1.1253,-0.7621,-0.617,-0.5808,-0.2184,-0.0802,-0.0802,-0.0802,-0.1893,-0.327,-0.327,-0.4431,0.0,0.0,0.0,-0.8703,-0.8703,-0.8848,-0.943,-1.1109,-1.1619,-1.1619,-1.1619,-1.1619,-1.1619,-1.1619,-1.1742,-1.1898,-1.2033,-1.2298,-1.2501,-1.2501,-1.2501,-1.2501,-1.2501,-1.2745,-1.2935,-1.3036,-1.32,-1.3376,-1.3397,-1.3403,-1.3403,-1.3403,-1.3403,-1.3403,-1.3403,-1.3403,-1.3403,-1.3403,-1.3403,-1.3403,-1.3403,-1.3403,-1.3403,-1.3403,-1.3403,-1.3403,-1.3403,-1.3403,-1.3403,-1.3403,-1.3403,-1.3403,-1.3403,-1.3403,-1.3403,-1.3403,-1.3403,-1.3478,-1.36,-1.362,-1.379,-1.4014,-1.4055,-1.4156,-1.4272,0.0,0.0,0.0,0.0,0.0,0.0,0.0,0.0,0.0,0.0,0.0,-1.1647,0.0,0.0,0.0,-1.1857,0.0,0.0,0.0,0.0,0.0,-1.187,-1.1782,-1.1735,-1.1735,-1.166,-1.1619,-1.1619,-1.1619,-1.1619,-1.1619,-1.1619,-1.1619,-1.1619,-1.1619,-1.1619,-1.1619,-1.1619,-1.1619,-1.1253,-0.7331,-0.5808,-0.5373,-0.1457,0.0,0.0,0.0,-0.0583,-0.1311,-0.1311,-0.182,-0.2547,-0.2547,0.0,0.0,0.0,-0.6242,-0.7472,-0.943,-0.9939,-1.0233,-1.1325,-1.1619,-1.1619,-1.1619,-1.1728,-1.1877,-1.2033,-1.223,-1.2406,-1.2488,-1.2501,-1.2501,-1.2501,-1.2759,-1.2963,-1.2963,-1.3214,-1.3403,-1.3403,-1.3403,-1.3403,-1.3403,-1.3403,-1.3403,-1.3403,-1.3403,-1.3403,-1.3403,-1.3403,-1.3403,-1.3403,-1.3403,-1.3403,-1.3403,-1.3403,-1.3403,-1.3403,-1.3403,-1.3403,-1.3403,-1.3403,-1.3403,-1.3403,-1.3403,-1.3403,-1.341,-1.3492,-1.3566,-1.3648,-1.381,-1.396,-1.4082,-1.417,-1.4245,-1.4299,0.0,0.0,0.0,0.0,0.0,0.0,0.0,0.0,0.0,0.0,0.0,0.0,0.0,0.0,0.0,0.0,-1.2135,0.0,0.0,0.0,0.0,-1.2135,-1.1952,-1.1891,-1.1891,-1.1782,-1.1714,-1.1674,-1.1674,-1.1653,-1.1619,-1.1619,-1.1619,-1.1619,-1.1619,-1.1325,-1.0887,-1.0887,-1.0599,-0.9801,-0.646,-0.5084,-0.4721,-0.1311,0.0,0.0,0.0,0.0,0.0,0.0,0.0,0.0,0.0,-0.1311,0.0,0.0,0.0,-0.6025,-0.6966,-0.7616,-0.8415,-1.0377,-1.0887,-1.0959,-1.1476,-1.1701,-1.183,-1.202,-1.2155,-1.2284,-1.2467,-1.2501,-1.2501,-1.2501,-1.2759,-1.2963,-1.2963,-1.3214,-1.3403,-1.3403,-1.3403,-1.3403,-1.3403,-1.3403,-1.3403,-1.3403,-1.3403,-1.3403,-1.3403,-1.3403,-1.3403,-1.3403,-1.3403,-1.3403,-1.3403,-1.3403,-1.3403,-1.3403,-1.3403,-1.3403,-1.3403,-1.3403,-1.3403,-1.3403,-1.3403,-1.3424,-1.3464,-1.358,-1.3675,-1.3763,-1.3987,-1.4095,-1.4143,-1.4258,-1.4299,-1.4299,0.0,0.0,0.0,0.0,0.0,0.0,0.0,0.0,0.0,0.0,0.0,0.0,-1.2033,-1.2047,-1.2054,-1.2135,-1.2135,-1.2135,-1.2135,-1.2135,0.0,-1.2135,-1.2054,0.0,-1.2047,-1.2115,-1.1965,-1.1823,-1.1823,-1.1748,-1.1619,-1.1619,-1.1619,-1.1619,-1.1619,-1.0593,-0.8848,-0.8848,-0.7761,-0.5953,-0.3851,-0.3052,-0.2836,-0.0802,0.0,0.0,0.0,0.0,0.0,0.0,0.0,0.0,0.0,-0.1311,-0.2909,0.0,0.0,0.0,-0.3705,-0.4576,-0.6387,-0.8343,-0.8848,-0.9357,-1.1181,-1.1626,-1.1714,-1.1999,-1.2142,-1.2162,-1.2447,-1.2501,-1.2501,-1.2501,-1.2759,-1.2963,-1.2963,-1.3214,-1.3403,-1.3403,-1.3403,-1.3403,-1.3403,-1.3403,-1.3403,-1.3403,-1.3403,-1.3403,-1.3403,-1.3403,-1.3403,-1.3403,-1.3403,-1.3403,-1.3403,-1.3403,-1.3403,-1.3403,-1.3403,-1.3403,-1.3403,-1.3403,-1.3403,-1.3403,-1.3403,-1.3485,-1.362,-1.3627,-1.3797,-1.4048,-1.4068,-1.4156,-1.4292,-1.4299,-1.4299,-1.4299,0.0,0.0,0.0,0.0,0.0,0.0,0.0,0.0,0.0,0.0,0.0,0.0,0.0,-1.221,-1.2244,-1.2338,-1.2345,-1.2345,-1.2345,-1.2345,0.0,-1.2345,-1.2257,-1.221,-1.221,-1.2115,-1.2033,-1.1979,-1.1979,-1.1904,-1.1755,-1.1755,-1.1708,-1.1619,-1.1619,-1.0521,-0.8703,-0.8703,-0.7544,-0.5736,-0.5011,-0.3996,-0.2836,-0.211,-0.1093,0.0,0.0,0.0,0.0,0.0,0.0,0.0,0.0,-0.051,-0.102,-0.102,-0.153,-0.2183,-0.2763,-0.3415,-0.4431,-0.6387,-0.7761,-0.8848,-0.9574,-1.0671,-1.1708,-1.1999,-1.2135,-1.2149,-1.2447,-1.2501,-1.2501,-1.2501,-1.2678,-1.2847,-1.2949,-1.3132,-1.3288,-1.339,-1.3403,-1.3403,-1.3403,-1.3403,-1.3403,-1.3403,-1.3403,-1.3403,-1.3403,-1.3403,-1.3403,-1.3403,-1.3403,-1.3403,-1.3403,-1.3403,-1.3403,-1.3403,-1.3403,-1.3403,-1.3403,-1.3403,-1.3458,-1.3546,-1.3546,-1.358,-1.3641,-1.3838,-1.3973,-1.4082,-1.4183,-1.4251,-1.4299,-1.4299,-1.4299,-1.4299,0.0,0.0,0.0,0.0,0.0,0.0,0.0,0.0,-1.1965,-1.2115,0.0,0.0,0.0,0.0,-1.24,-1.2494,-1.2501,-1.2501,-1.2501,-1.2501,-1.2501,-1.2501,-1.2413,-1.2359,-1.2359,-1.2162,-1.2088,-1.2142,-1.2033,-1.1959,-1.1911,-1.1911,-1.1857,-1.1769,-1.1714,-1.0564,-0.8631,-0.7977,-0.6604,-0.4794,-0.4794,-0.3635,-0.1965,-0.2618,-0.1675,-0.0073,-0.0729,-0.0947,-0.1093,-0.1748,-0.1529,-0.0947,-0.0947,-0.051,0.0,0.0,0.0,-0.0292,-0.1602,-0.1892,-0.2401,-0.4358,-0.6315,-0.7905,-0.8559,-1.0233,-1.1708,-1.1999,-1.2135,-1.2149,-1.2447,-1.2501,-1.2501,-1.2501,-1.263,-1.2786,-1.2942,-1.3085,-1.3227,-1.3383,-1.3403,-1.3403,-1.3403,-1.3403,-1.3403,-1.3403,-1.3403,-1.3403,-1.3403,-1.3403,-1.3403,-1.3403,-1.3403,-1.3403,-1.3403,-1.3403,-1.3403,-1.3403,-1.3403,-1.3403,-1.3403,-1.3451,-1.3532,-1.3634,-1.3736,-1.3777,-1.3797,-1.3994,-1.4102,-1.4156,-1.4258,-1.4299,-1.4299,-1.4299,-1.4299,-1.4299,0.0,0.0,0.0,0.0,0.0,0.0,0.0,0.0,-1.2121,-1.2277,0.0,0.0,0.0,0.0,0.0,-1.2501,-1.2501,-1.2501,-1.2501,-1.2501,-1.2501,-1.2501,0.0,0.0,-1.2501,-1.2223,-1.2149,-1.2298,-1.1999,-1.1925,-1.2142,-1.2142,-1.2067,-1.2054,-1.1904,-1.0723,-0.8641,-0.668,-0.4721,-0.2836,-0.2909,-0.182,-0.0292,-0.2257,-0.1821,-0.0438,-0.233,-0.2981,-0.3272,-0.5156,-0.4504,-0.2909,-0.2836,-0.1529,0.0,0.0,0.0,0.0,0.0,0.0,0.0,-0.2328,-0.4286,-0.6242,-0.8121,-1.0083,-1.1628,-1.1918,-1.206,-1.2149,-1.244,-1.2501,-1.2501,-1.2501,-1.2623,-1.2779,-1.2935,-1.3078,-1.3227,-1.3383,-1.3403,-1.3403,-1.3403,-1.3403,-1.3403,-1.3403,-1.3403,-1.3403,-1.3403,-1.3403,-1.3403,-1.3403,-1.3403,-1.3403,-1.3403,-1.3403,-1.3403,-1.3403,-1.3403,-1.3403,-1.3403,-1.3559,-1.3634,-1.3654,-1.3946,-1.4075,-1.4082,-1.4082,-1.4163,-1.4299,-1.4299,-1.4299,-1.4299,-1.4299,-1.4299,-1.4299,0.0,0.0,0.0,0.0,0.0,-1.2101,-1.221,-1.223,-1.2277,0.0,0.0,0.0,-1.2501,-1.2501,-1.2501,-1.2501,-1.2501,-1.2501,-1.2501,-1.2501,-1.2501,-1.2501,-1.2501,-1.2501,-1.2501,-1.242,-1.24,-1.244,-1.2359,-1.2284,-1.223,-1.223,-1.2169,-1.2135,-1.202,-1.1676,-1.1026,-0.8848,-0.5156,-0.102,-0.3853,-0.3873,-0.2435,-0.4417,-0.4886,-0.4622,-0.5023,-0.5149,-0.5217,-0.568,-0.4504,-0.2618,-0.1239,-0.0438,0.0,0.0,0.0,0.0,0.0,0.0,0.0,0.0,0.0,0.0,-0.4356,-0.711,-0.9546,-0.9781,-1.1008,-1.2121,-1.2311,-1.2433,-1.2501,-1.2501,-1.2535,-1.2657,-1.2922,-1.2996,-1.3112,-1.337,-1.3403,-1.3403,-1.3403,-1.3403,-1.3403,-1.3403,-1.3403,-1.3403,-1.3403,-1.3403,-1.3403,-1.3403,-1.3403,-1.3403,-1.3403,-1.3403,-1.3403,-1.3403,-1.3403,-1.3403,-1.3403,-1.3559,-1.3688,-1.379,-1.3987,-1.4136,-1.4238,-1.4238,-1.4265,-1.4299,-1.4299,-1.4299,-1.4299,-1.4299,-1.4299,-1.4299,0.0,0.0,0.0,0.0,0.0,-1.2277,-1.2366,-1.2379,-1.2406,0.0,0.0,0.0,-1.2501,-1.2501,-1.2501,-1.2501,-1.2501,-1.2501,-1.2501,-1.2501,-1.2501,-1.2501,-1.2501,-1.2501,-1.2501,-1.2379,-1.2379,-1.2501,-1.2379,-1.2338,-1.2379,-1.2379,-1.2332,-1.2244,-1.2182,-1.1697,-1.092,-1.0331,-0.7663,-0.4059,-0.6341,-0.5558,-0.3287,-0.5295,-0.502,-0.3771,-0.4489,-0.4699,-0.4917,-0.6581,-0.5806,-0.3878,-0.1822,-0.0656,0.0,0.0,0.0,0.0,0.0,0.0,0.0,0.0,0.0,0.0,-0.3923,-0.6456,-0.8951,-0.9883,-1.1205,-1.2108,-1.2264,-1.2406,-1.2501,-1.2501,-1.2501,-1.2589,-1.2827,-1.2922,-1.3051,-1.3275,-1.3363,-1.3403,-1.3403,-1.3403,-1.3403,-1.3403,-1.3403,-1.3403,-1.3403,-1.3403,-1.3403,-1.3403,-1.3403,-1.3403,-1.3403,-1.3403,-1.3403,-1.3403,-1.3403,-1.3437,-1.3498,-1.3648,-1.3797,-1.3946,-1.4102,-1.4217,-1.4299,-1.4299,-1.4299,-1.4299,-1.4299,-1.4299,-1.4299,-1.4299,-1.4299,-1.4299,0.0,0.0,-1.2352,-1.2481,-1.2501,-1.2501,-1.2501,-1.2501,-1.2501,0.0,-1.2501,-1.2501,-1.2501,-1.2501,-1.2501,-1.2501,-1.2501,-1.2501,-1.2501,-1.2501,-1.2501,-1.2501,-1.2501,-1.2501,-1.2501,-1.2244,-1.2237,-1.2501,-1.2237,-1.2244,-1.2501,-1.2501,-1.2501,-1.2494,-1.2372,-1.1384,-0.9829,-1.1478,-1.112,-0.9521,-0.927,-0.701,-0.4009,-0.5738,-0.4313,-0.1595,-0.3105,-0.3631,-0.4082,-0.7465,-0.7406,-0.5619,-0.3583,-0.1751,-0.0292,-0.0073,0.0,0.0,0.0,0.0,0.0,0.0,-0.1311,0.0,-0.4794,-0.6677,-0.8584,-1.045,-1.1119,-1.1495,-1.1548,-1.1696,-1.1798,-1.1798,-1.203,-1.2316,-1.2626,-1.2847,-1.2996,-1.3152,-1.3295,-1.3383,-1.3397,-1.3403,-1.3403,-1.3403,-1.3403,-1.3403,-1.3403,-1.3403,-1.3403,-1.3403,-1.3403,-1.3403,-1.3403,-1.3403,-1.3403,-1.3403,-1.3417,-1.3498,-1.3634,-1.379,-1.3939,-1.4082,-1.4231,-1.4299,-1.4299,-1.4299,-1.4299,-1.4299,-1.4299,-1.4299,-1.4299,-1.4299,-1.4299,-1.4299,0.0,-1.2461,-1.2467,-1.2494,-1.2501,-1.2501,-1.2501,-1.2501,-1.2501,-1.2501,-1.2501,-1.2501,-1.2501,-1.2501,-1.2501,-1.2501,-1.2501,-1.2501,-1.2501,-1.2501,-1.2501,-1.2501,-1.2501,-1.2501,-1.2501,-1.2447,-1.244,-1.2501,-1.244,-1.2447,-1.2501,-1.2501,-1.2501,-1.2501,-1.2474,-1.2223,-1.1908,-1.2273,-1.2183,-1.1689,-0.9941,-0.8785,-0.8179,-0.8559,-0.9305,-0.9916,-0.8435,-0.7946,-0.7861,-0.6879,-0.6319,-0.5618,-0.3705,0.0,0.0,-0.0512,0.0,0.0,0.0,0.0,0.0,0.0,-0.0292,0.0,-0.1021,-0.2619,-0.4143,-0.4589,-0.6008,-0.716,-0.7256,-0.739,-0.7501,-0.7501,-0.8905,-1.067,-1.2469,-1.2759,-1.2874,-1.3139,-1.32,-1.3268,-1.339,-1.3403,-1.3403,-1.3403,-1.3403,-1.3403,-1.3403,-1.3403,-1.3403,-1.3403,-1.3403,-1.3403,-1.3403,-1.3403,-1.3403,-1.3403,-1.3526,-1.36,-1.3641,-1.3905,-1.4041,-1.4082,-1.4231,-1.4299,-1.4299,-1.4299,-1.4299,-1.4299,-1.4299,-1.4299,-1.4299,-1.4299,-1.4299,-1.4299,-1.2501,-1.2501,-1.2501,-1.2501,-1.2501,-1.2501,-1.2501,-1.2501,-1.2501,-1.2501,-1.2501,-1.2501,-1.2501,-1.2501,-1.2501,-1.2501,-1.2501,-1.2501,-1.2501,-1.2501,-1.2501,-1.2501,-1.2501,-1.2501,-1.2501,-1.2501,-1.2501,-1.2501,-1.2501,-1.2501,-1.2501,-1.2501,-1.2501,-1.2501,-1.2501,-1.1953,-1.0934,-1.0934,-1.0934,-1.0922,-1.0868,-1.0239,-0.9367,-0.9367,-0.9403,-0.9289,-0.8147,-0.8438,-0.8962,-0.6717,-0.6084,-0.5995,-0.4876,-0.3142,-0.1572,0.0,-0.0814,0.0,0.0,0.0,0.0,0.0,0.0,0.0,0.0,-0.2183,-0.3203,-0.4175,-0.5209,-0.5964,-0.6001,-0.6179,-0.6332,-0.6332,-0.805,-0.9392,-0.9531,-1.133,-1.2813,-1.3037,-1.3132,-1.3234,-1.339,-1.3403,-1.3403,-1.3403,-1.3403,-1.3403,-1.3403,-1.3403,-1.3403,-1.3403,-1.3403,-1.3403,-1.3403,-1.3403,-1.3403,-1.3403,-1.3553,-1.3668,-1.3743,-1.3966,-1.4116,-1.419,-1.4265,-1.4299,-1.4299,-1.4299,-1.4299,-1.4299,-1.4299,-1.4299,-1.4299,-1.4299,-1.4299,-1.4299,-1.2501,-1.2501,-1.2501,-1.2501,-1.2501,-1.2501,-1.2501,-1.2501,-1.2501,-1.2501,-1.2501,-1.2501,-1.2501,-1.2501,-1.2501,-1.2501,-1.2501,-1.2501,-1.2501,-1.2501,-1.2501,-1.2501,-1.2501,-1.2501,-1.2501,-1.2501,-1.2501,-1.2501,-1.2501,-1.2501,-1.2501,-1.2501,-1.2501,-1.2501,-1.2501,-1.156,-0.9998,-0.9609,-0.962,-1.0114,-1.1448,-1.1191,-0.992,-0.9532,-0.8594,-0.7423,-0.7033,-0.7734,-0.8503,-0.6645,-0.6162,-0.6229,-0.5619,-0.3183,0.0,0.0,0.0,0.0,0.0,0.0,0.0,0.0,0.0,-0.0441,0.0,0.0,0.0,-0.4376,-0.4801,-0.4856,-0.4831,-0.4965,-0.5078,-0.5056,-0.6859,-0.7566,-0.5907,-0.9032,-1.1713,-1.2288,-1.2815,-1.32,-1.3383,-1.3403,-1.3403,-1.3403,-1.3403,-1.3403,-1.3403,-1.3403,-1.3403,-1.3403,-1.3403,-1.3403,-1.3403,-1.3403,-1.3417,-1.3444,-1.36,-1.3743,-1.3892,-1.4048,-1.4183,-1.4299,-1.385,-1.3584,-1.3584,-1.3135,-1.2952,-1.304,-1.3938,-1.4027,-1.3584,-1.3584,-1.3584,-1.3578,-1.2501,-1.2501,-1.2501,-1.2501,-1.2501,-1.2501,-1.2501,-1.2501,-1.2501,-1.2501,-1.2501,-1.2501,-1.2501,-1.2501,-1.2501,-1.2501,-1.2501,-1.2501,-1.2501,-1.2501,-1.2501,-1.2501,-1.2501,-1.2501,-1.2501,-1.2501,-1.2501,-1.2501,-1.2501,-1.2501,-1.2501,-1.2501,-1.2501,-1.2501,-1.2501,-1.2347,-1.203,-1.0153,-1.0531,-1.2148,-1.0561,-1.0806,-1.1953,-1.0075,-1.0391,-1.156,-0.9687,-0.805,-0.6644,-0.6325,-0.6244,-0.5997,0.0,-0.3149,-0.2453,-0.0835,0.0,0.0,0.0,0.0,0.0,0.0,0.0,0.0,0.0,0.0,-0.0377,-0.0604,0.0,-0.0693,-0.0693,0.0,0.0,-0.0687,-0.2473,-0.3727,-0.3499,-0.5486,-0.7818,-0.9923,-1.1832,-1.3091,-1.3376,-1.3403,-1.3403,-1.3403,-1.3403,-1.3403,-1.3403,-1.3403,-1.3403,-1.3403,-1.3403,-1.3403,-1.3403,-1.3403,-1.3471,-1.3607,-1.3749,-1.3899,-1.4048,-1.4204,-1.4285,-1.421,-1.2059,-1.1072,-1.0984,-0.8842,-0.7951,-0.8308,-1.2597,-1.2952,-1.1072,-1.1072,-1.1072,-1.0806,-1.2501,-1.2501,-1.2501,-1.2501,-1.2501,-1.2501,-1.2501,-1.2576,-1.263,-1.263,-1.2712,-1.2766,-1.2766,-1.2766,-1.2766,-1.2766,-1.2684,-1.2671,-1.2766,-1.2684,-1.263,-1.263,-1.263,-1.2589,-1.2501,-1.2501,-1.2501,-1.2501,-1.2501,-1.1876,-1.0701,-1.0701,-1.0075,-0.8983,-1.0153,-1.0036,-0.9071,-0.939,-1.0093,-1.0844,-0.8758,-0.985,-1.2687,-1.1811,-1.2048,-1.2687,-1.1805,-1.0928,-0.9972,0.0,-0.7497,0.0,0.0,0.0,0.0,-0.3277,0.0,0.0,0.0,0.0,0.0,0.0,0.0,0.0,-0.0303,0.0,0.0,0.0,0.0,0.0,0.0,0.0,0.0,0.0,-0.1713,-0.2654,-0.147,-0.4199,-0.6687,-0.7752,-0.8701,-0.98,-1.1363,-1.1469,-1.1973,-1.3314,-1.2139,-1.1973,-1.3321,-1.3403,-1.3403,-1.3403,-1.3403,-1.3403,-1.3403,-1.3403,-1.3478,-1.3634,-1.3777,-1.3926,-1.4075,-1.2802,-1.2237,-1.2059,-0.9646,-0.8575,-0.8575,-0.7506,-0.7057,-0.7324,-0.9286,-0.9468,-0.8575,-0.8575,-0.8575,-0.8486,-1.263,-1.2596,-1.2576,-1.2623,-1.263,-1.263,-1.263,-1.2725,-1.2793,-1.2793,-1.2895,-1.2963,-1.2963,-1.2963,-1.2963,-1.2963,-1.2861,-1.284,-1.2956,-1.2854,-1.2793,-1.2793,-1.2793,0.0,-1.2569,-1.2011,-1.1681,-1.1637,-1.1095,-0.9998,-0.8517,-0.8544,-0.7776,-0.6367,-0.8508,-0.8642,-0.7429,-0.9029,-1.0051,-1.0561,-0.8455,-0.9855,-1.3071,-1.299,-1.2963,-1.2963,-1.2963,-1.2963,-1.2635,-1.0517,-0.8733,0.0,-0.8652,-0.5715,-0.2484,0.0,0.0,0.0,-0.1095,0.0,0.0,0.0,0.0,0.0,0.0,0.0,0.0,0.0,0.0,0.0,0.0,0.0,0.0,0.0,0.0,-0.172,-0.0233,-0.2652,-0.487,-0.556,-0.6207,-0.7211,-0.9026,-0.9124,-1.0044,-1.2312,-1.0965,-1.0965,-1.3314,-1.3403,-1.3403,-1.3403,-1.3403,-1.3403,-1.3403,-1.3444,-1.3539,-1.3688,-1.3831,-1.3987,-1.4049,-1.1748,-1.0717,-1.0535,-0.7502,-0.6165,-0.6079,-0.5454,-0.5186,-0.5186,-0.5186,-0.5186,-0.5276,-0.5901,-0.6165,-0.6079,-1.2949,-1.2827,-1.2766,-1.2922,-1.2949,-1.2949,-1.2949,-1.2949,-1.2956,-1.2956,-1.3036,-1.2963,-1.2963,-1.2963,-1.2963,-1.2963,-1.2956,-1.2956,-1.2963,-1.2956,-1.2956,-1.2956,-1.2956,-1.2881,0.0,0.0,0.0,-0.9532,-0.7505,-0.6488,-0.6414,-0.6408,-0.6366,-0.637,-0.8611,-0.9542,-0.9547,-0.9703,-1.1068,-1.2915,-1.0776,-1.1265,-1.3356,-1.3071,-1.2963,-1.2963,-1.2963,-1.2963,0.0,-1.0517,-0.9783,0.0,0.0,0.0,0.0,0.0,0.0,0.0,0.0,0.0,0.0,-0.0558,0.0,0.0,0.0,0.0,0.0,0.0,0.0,0.0,0.0,0.0,0.0,0.0,0.0,0.0,0.0,-0.0155,-0.1024,-0.3183,-0.5361,-0.6697,-0.6777,-0.6784,-0.7789,-1.0044,-1.0044,-1.0965,-1.3314,-1.3403,-1.3403,-1.3403,-1.3403,-1.3403,-1.3403,-1.3546,-1.3695,-1.3838,-1.3987,-1.4143,-1.4204,-1.1788,-1.0717,-1.0446,-0.5722,-0.3669,-0.349,-0.1166,-0.0269,-0.0269,-0.0269,-0.0269,-0.0538,-0.2866,-0.3669,-0.3401,-1.3085,-1.3057,-1.301,-1.2969,-1.2963,-1.2963,-1.2963,-1.3044,-1.3098,-1.3098,-1.3193,-1.3254,-1.3254,-1.3254,-1.3254,-1.3254,-1.3159,-1.3146,-1.3247,-1.3159,-1.3098,-1.3098,-1.3098,-1.303,0.0,0.0,0.0,-0.9521,-0.88,-0.7042,-0.4166,-0.4181,-0.3467,-0.2261,-0.4369,-0.6181,-0.7778,-0.9164,-1.1201,-1.324,-1.2573,-1.2688,-1.339,-1.3288,-1.3254,-1.3254,-1.3254,-1.3254,0.0,-1.2414,-1.1171,-1.0097,-1.0842,-0.9057,-0.6959,-0.8512,-0.7896,-0.6556,0.0,0.0,-0.6755,-0.3064,0.0,0.0,0.0,0.0,0.0,0.0,0.0,0.0,0.0,0.0,0.0,0.0,0.0,0.0,0.0,0.0,-0.0316,-0.1048,-0.3166,-0.4518,-0.4521,-0.5867,-0.7622,-0.9961,-1.0044,-1.0965,-1.3314,-1.3403,-1.3403,-1.3403,-1.3403,-1.3403,-1.3403,-1.3553,-1.3702,-1.3759,-1.2415,-1.1758,-1.1788,-0.7773,-0.599,-0.5811,-0.2597,-0.1256,-0.1166,-0.0359,0.0,0.0,0.0,0.0,-0.009,-0.0897,-0.1256,-0.1076,-1.3234,-1.3254,-1.3227,-1.3132,-1.3119,-1.3119,-1.3119,-1.3193,-1.3254,-1.3254,-1.3342,-1.3403,-1.3403,-1.3403,-1.3403,-1.3403,-1.3308,-1.3295,-1.3397,-1.3308,-1.3254,-1.3254,-1.3254,-1.3186,0.0,0.0,0.0,-0.9708,-0.8178,-0.5913,-0.3163,-0.2364,-0.1308,-0.0082,-0.2214,-0.4447,-0.6876,-0.9026,-1.1223,-1.3403,-1.3403,-1.3403,-1.3403,-1.3403,-1.3403,-1.3403,0.0,-1.3403,-1.3403,-1.3403,-1.2395,-1.1469,-1.2982,-1.1411,-0.9356,-1.0848,-1.0214,-0.8929,-0.8109,-0.8901,0.0,-0.5378,-0.5523,0.0,-0.203,0.0,-0.0976,0.0,0.0,0.0,0.0,0.0,0.0,0.0,0.0,0.0,0.0,0.0,0.0,0.0,-0.1303,-0.2212,-0.218,-0.3441,-0.5282,-0.7539,-0.8373,-0.9795,-1.2056,-1.2982,-1.3403,-1.3403,-1.3403,-1.3403,-1.3403,-1.36,-1.3749,-1.3759,-1.1586,-1.0646,-1.0535,-0.5811,-0.358,-0.349,-0.1076,0.0,0.0,0.0,0.0,0.0,0.0,0.0,0.0,0.0,0.0,0.0,-1.3403,-1.3403,-1.3403,-1.3403,-1.3403,-1.3403,-1.3403,-1.3403,-1.3403,-1.3403,-1.3403,-1.3403,-1.3403,-1.3403,-1.3403,-1.3403,-1.3403,-1.3403,-1.3403,-1.3403,-1.3403,0.0,-1.3403,-1.3336,-1.3186,0.0,0.0,0.0,-0.5758,-0.3574,-0.3251,-0.1152,-0.0083,-0.0083,-0.234,-0.4528,-0.6871,-0.9128,-1.1386,-1.3403,-1.3403,-1.3403,-1.3403,-1.3403,-1.3403,-1.3403,-1.3403,-1.3403,-1.3403,-1.3403,-1.3403,-1.3403,-1.3403,-1.3403,-1.3403,-1.3403,-1.3403,-1.2982,-1.0798,-1.0216,-0.9636,-0.7416,-0.6866,0.0,0.0,0.0,-0.2682,0.0,0.0,0.0,0.0,0.0,0.0,0.0,0.0,0.0,0.0,0.0,0.0,0.0,0.0,0.0,0.0,-0.0084,-0.1009,-0.3107,-0.5449,-0.7702,-0.9878,-1.2056,-1.3314,-1.3403,-1.3403,-1.3403,-1.341,-1.3695,-1.3759,-1.3594,-1.1494,-1.0446,-1.018,-0.5544,-0.3401,-0.3313,-0.0987,0.0,0.0,0.0,0.0,0.0,0.0,0.0,0.0,0.0,0.0,0.0,-1.3403,-1.3403,-1.3403,-1.3403,-1.3403,-1.3403,-1.3403,-1.3403,-1.3403,-1.3403,-1.3403,-1.3403,-1.3403,-1.3403,-1.3403,-1.3403,-1.3403,-1.3403,-1.3403,-1.3403,-1.3403,-1.3403,-1.3403,-1.3383,-1.3342,-1.284,0.0,-1.004,-0.888,-0.6642,-0.3329,-0.2755,-0.159,-0.0084,-0.2349,-0.4612,-0.6871,-0.9128,-1.1386,-1.3403,-1.3403,-1.3403,-1.3403,-1.3403,-1.3403,-1.3403,-1.3403,-1.3403,-1.3403,-1.3403,-1.3403,-1.3403,-1.3403,-1.3403,-1.3403,-1.3403,-1.3403,-1.3314,-1.2727,-1.2535,-1.2001,-0.975,-0.9151,-0.8632,0.0,0.0,0.0,0.0,0.0,0.0,0.0,0.0,0.0,0.0,0.0,0.0,0.0,0.0,0.0,0.0,0.0,0.0,0.0,-0.1513,-0.2771,-0.3357,-0.5449,-0.7706,-0.9961,-1.0549,-1.1635,-1.3314,-1.3403,-1.3458,-1.3566,-1.3749,-1.2939,-1.1291,-0.9052,-0.7146,-0.5365,-0.233,-0.0897,-0.0897,-0.0269,0.0,0.0,0.0,0.0,0.0,0.0,0.0,0.0,0.0,0.0,0.0,-1.3403,-1.3403,-1.3403,-1.3403,-1.3403,-1.3403,-1.3403,-1.3403,-1.3403,-1.3403,-1.3403,-1.3403,-1.3403,-1.3403,-1.3403,-1.3403,-1.3403,-1.3403,-1.3403,-1.3403,-1.3403,-1.3403,-1.3403,-1.3403,-1.3403,-1.3403,0.0,-1.1552,0.0,-0.829,-0.4779,-0.386,-0.2184,-0.0084,-0.1346,-0.3191,-0.5452,-0.8756,-1.1473,-1.3505,-1.3566,-1.3593,0.0,-1.3593,-1.3593,-1.3593,-1.3593,-1.3512,-1.3403,-1.3403,-1.3403,-1.3403,-1.3403,-1.3403,-1.3403,-1.3403,-1.3403,-1.3403,-1.3403,-1.3403,-1.3065,-1.1801,-1.1469,-1.0965,-0.8624,-0.7205,-0.57,0.0,-0.234,-0.1166,0.0,0.0,0.0,0.0,0.0,0.0,0.0,0.0,0.0,0.0,0.0,0.0,0.0,-0.1178,-0.1933,-0.1933,-0.4027,-0.6199,-0.8457,-0.9545,-1.1048,-1.3321,-1.3403,-1.3471,-1.3627,-1.377,-1.2693,-1.0457,-0.8175,-0.5901,-0.349,-0.1076,0.0,0.0,0.0,0.0,0.0,0.0,0.0,0.0,0.0,0.0,0.0,0.0,0.0,0.0,-1.3403,-1.3403,-1.3403,-1.3403,-1.3403,-1.3403,-1.3403,-1.3403,-1.3403,-1.3403,-1.3403,-1.341,-1.3431,-1.3431,-1.3437,-1.3458,-1.3458,-1.3451,-1.3431,-1.3431,-1.3424,-1.3403,-1.3403,-1.3403,-1.3403,-1.3403,-1.3403,0.0,0.0,-0.9212,-0.6617,-0.4695,-0.2436,0.0,-0.0337,-0.1854,-0.4551,-0.8924,-1.1859,-1.3668,-1.379,-1.3838,-1.3838,-1.3838,-1.3838,-1.3838,-1.3838,-1.3675,-1.3458,-1.3458,-1.3458,-1.3458,-1.3458,-1.3458,-1.3458,-1.3437,-1.3431,-1.3424,-1.3403,-1.3403,-1.3403,-1.3403,-1.3403,-1.2899,-1.0882,-1.0294,-0.8957,-0.5114,-0.3776,-0.2855,0.0,0.0,0.0,0.0,0.0,0.0,0.0,0.0,0.0,0.0,0.0,0.0,0.0,0.0,0.0,0.0,-0.1849,-0.4027,-0.6533,-0.854,-1.0798,-1.3321,-1.3417,-1.3331,-1.3141,-1.3278,-1.2113,-0.9601,-0.7559,-0.5365,-0.3045,-0.0987,0.0,0.0,0.0,0.0,0.0,0.0,0.0,0.0,0.0,0.0,0.0,0.0,0.0,0.0,-1.3403,-1.3403,-1.3403,-1.3403,-1.3403,-1.3403,-1.3403,-1.3403,-1.3403,-1.3403,-1.3403,-1.3451,-1.3573,-1.3587,-1.3634,-1.3749,-1.3763,-1.3715,-1.36,-1.3587,0.0,-1.3403,-1.3403,-1.3403,-1.3403,-1.3403,-1.3403,0.0,0.0,-1.0715,-0.67,-0.6285,-0.3944,-0.0084,-0.1952,-0.5125,-0.9288,-1.1977,-1.337,-1.3804,-1.3831,-1.3838,-1.3838,-1.3838,-1.3838,-1.3838,-1.3838,-1.3804,-1.3763,-1.3763,-1.3763,-1.3763,-1.3763,-1.3763,-1.3743,-1.3627,-1.3587,-1.3559,-1.3437,-1.3403,-1.3403,-1.3403,-1.3403,-1.3314,-1.2893,-1.1386,-0.9878,-0.9124,-0.5951,-0.386,-0.5282,0.0,0.0,0.0,0.0,0.0,0.0,0.0,0.0,0.0,0.0,0.0,0.0,0.0,0.0,0.0,-0.0337,-0.2352,-0.6449,-0.7121,-0.9207,0.0,-1.3526,-1.2712,0.0,0.0,-0.8987,-0.4815,-0.438,-0.2955,-0.0628,-0.0179,0.0,0.0,0.0,0.0,0.0,0.0,0.0,0.0,0.0,0.0,0.0,0.0,0.0,0.0,-1.3403,-1.3403,-1.3403,-1.3403,-1.3464,-1.3519,-1.3519,-1.358,-1.36,-1.3532,-1.3587,-1.3654,-1.3729,-1.3736,-1.377,-1.3752,-1.3838,-1.381,-1.3743,-1.3736,-1.3709,-1.3634,-1.3627,-1.3627,-1.3627,-1.3627,-1.3627,-1.3627,0.0,-1.1238,-0.6816,-0.809,-0.554,-0.0086,-0.2491,-0.5343,-0.8736,-1.1134,-1.291,-1.3966,-1.4048,-1.4082,-1.4082,-1.4082,-1.4082,-1.4082,-1.4082,-1.4082,-1.4055,-1.3892,-1.3838,-1.3838,-1.3838,-1.3838,-1.3824,-1.3756,-1.3736,-1.3722,-1.3648,-1.3627,-1.3614,-1.3539,-1.3519,-1.3498,-1.3417,-1.2561,-1.1469,-1.0294,-0.8373,-0.6871,-0.67,-0.4863,0.0,0.0,0.0,0.0,0.0,0.0,0.0,0.0,0.0,0.0,0.0,0.0,0.0,0.0,0.0,-0.1932,-0.6449,-0.67,-0.879,0.0,0.0,0.0,-1.2104,0.0,-0.8749,-0.5365,-0.4206,-0.233,0.0,0.0,0.0,0.0,0.0,0.0,0.0,0.0,0.0,0.0,0.0,0.0,0.0,0.0,0.0,0.0,-1.3444,-1.3451,-1.3458,-1.3492,-1.3593,-1.3675,-1.3675,-1.3797,-1.3838,-1.3695,-1.377,-1.3851,-1.3885,-1.3892,-1.3905,-1.3933,-1.3939,-1.3926,-1.3892,-1.3892,-1.3871,-1.3844,-1.3838,-1.3838,-1.3838,-1.3838,-1.3838,0.0,0.0,0.0,-0.6898,-0.8293,-0.6064,-0.0872,-0.3305,-0.5567,-0.7841,-1.0369,-1.2541,-1.4177,-1.4299,-1.4367,-1.4394,-1.4394,-1.4394,-1.4394,-1.4394,-1.4394,-1.4353,-1.4075,-1.396,-1.3939,-1.3939,-1.3939,-1.3933,-1.3899,-1.3892,-1.3885,-1.3851,-1.3838,-1.364,-1.3017,-1.29,-1.2699,-1.2083,-1.1975,-1.1628,-1.0252,-1.0482,-0.9961,-0.7205,-0.5616,0.0,0.0,0.0,0.0,0.0,0.0,0.0,0.0,0.0,0.0,0.0,0.0,0.0,0.0,0.0,-0.1765,-0.5784,0.0,0.0,0.0,0.0,-1.2021,-1.1624,0.0,-0.7883,-0.5544,-0.3759,-0.1883,0.0,0.0,0.0,0.0,0.0,0.0,0.0,0.0,0.0,0.0,0.0,0.0,0.0,0.0,0.0,0.0,-1.358,-1.3607,-1.3648,-1.3777,-1.381,-1.3824,-1.3824,-1.3953,-1.3994,-1.3838,-1.3831,-1.3892,-1.4034,-1.4048,-1.4109,-1.4245,-1.4258,-1.4197,-1.4061,-1.4048,-1.3987,-1.3844,-1.3838,-1.3838,-1.3838,-1.3838,-1.3838,0.0,0.0,-0.9374,0.0,-0.4913,-0.3746,-0.3343,-0.5709,-0.8121,0.0,-1.2927,-1.4175,-1.4468,-1.4482,-1.4577,-1.4699,-1.4699,-1.4699,-1.4699,-1.4699,-1.4699,-1.4672,-1.4509,-1.436,-1.4258,-1.4258,-1.4258,-1.4231,-1.4089,-1.4048,-1.4021,-1.3878,-1.3838,-1.3317,-1.1138,-1.0618,-1.0012,-0.7855,-0.7338,-0.7831,-0.971,-1.1718,-1.1807,-0.7455,-0.8207,-0.8123,0.0,0.0,0.0,0.0,0.0,0.0,0.0,0.0,0.0,0.0,0.0,0.0,0.0,0.0,-0.1093,-0.3524,0.0,0.0,-0.7226,-0.7473,-0.6512,-0.4393,-0.4265,-0.3042,-0.0628,-0.0449,-0.0179,0.0,0.0,0.0,0.0,0.0,0.0,0.0,0.0,0.0,0.0,0.0,0.0,0.0,0.0,0.0,0.0,-1.3743,-1.3756,-1.3777,-1.3831,-1.3919,-1.398,-1.398,-1.4109,-1.419,-1.4122,-1.4116,-1.4136,-1.4204,-1.4211,-1.4231,-1.4292,-1.4299,-1.4272,-1.4211,-1.4211,-1.4183,-1.4122,-1.4116,-1.4116,-1.4116,-1.4116,-1.4116,0.0,0.0,0.0,0.0,0.0,-0.9189,0.0,0.0,-0.996,-1.0993,-1.3521,-1.4597,-1.4652,-1.4652,-1.4685,-1.474,-1.474,-1.474,-1.474,-1.474,-1.474,-1.4733,-1.4672,-1.455,-1.4414,-1.4326,-1.4299,-1.4285,-1.4224,-1.4211,-1.3927,-1.236,-1.1905,-1.1357,-0.883,-0.8296,-0.8023,-0.6938,-0.6669,-0.6918,-0.7831,-0.874,-0.9309,-0.8964,-0.7307,-0.5924,-0.5586,0.0,0.0,0.0,0.0,0.0,0.0,0.0,0.0,0.0,0.0,0.0,0.0,0.0,-0.1009,0.0,0.0,0.0,-0.6643,0.0,-0.6479,-0.5542,-0.4271,-0.3134,-0.215,-0.0718,0.0,0.0,0.0,0.0,0.0,0.0,0.0,0.0,0.0,0.0,0.0,0.0,0.0,0.0,0.0,0.0,0.0,-1.3899,-1.3905,-1.3919,-1.3966,-1.4068,-1.4136,-1.4136,-1.4231,-1.4299,-1.4299,-1.434,-1.4346,-1.4306,-1.4299,-1.4299,-1.4299,-1.4299,-1.4299,-1.4299,-1.4299,-1.4299,-1.4299,-1.4299,0.0,-1.4299,-1.4299,-1.4319,-1.436,-1.3642,0.0,0.0,0.0,0.0,0.0,-1.0981,-1.1379,-1.2119,-1.3958,-1.4767,-1.4808,-1.4808,-1.4835,-1.4869,-1.4869,-1.4869,-1.4869,-1.4869,-1.4869,-1.4862,-1.4821,-1.427,-1.3609,-1.42,-1.4428,-1.4421,-1.4373,-1.382,-1.2912,-1.1172,-1.018,-0.9002,-0.6551,-0.5922,-0.5734,-0.4908,-0.4723,-0.4893,-0.5575,-0.6249,-0.7184,-0.8908,-0.6537,-0.4627,-0.5645,0.0,0.0,0.0,0.0,0.0,0.0,0.0,0.0,0.0,0.0,0.0,0.0,0.0,0.0,0.0,0.0,0.0,0.0,0.0,0.0,-0.4862,-0.33,-0.2509,-0.2507,-0.0807,0.0,0.0,0.0,0.0,0.0,0.0,0.0,0.0,0.0,0.0,0.0,0.0,0.0,0.0,0.0,0.0,0.0,-1.4041,-1.4068,-1.4116,-1.4272,-1.4299,-1.4299,-1.4299,-1.4299,-1.4299,-1.4299,-1.4421,-1.4455,-1.4319,-1.4299,-1.4299,-1.4299,-1.4299,-1.4299,-1.4299,-1.4299,-1.4299,0.0,0.0,-1.4299,-1.4299,-1.4299,-1.4367,-1.4509,0.0,0.0,-1.1146,0.0,-0.8932,-1.1227,-1.1227,-1.2518,-1.4649,-1.4649,-1.4828,-1.497,-1.497,-1.5052,-1.5174,-1.5174,-1.5174,-1.5174,-1.5174,-1.5174,-1.5153,-1.5018,-1.3276,-1.166,-1.395,-1.4733,-1.4706,-1.4557,-1.2783,-1.094,-1.0743,-0.893,-0.6611,-0.4204,-0.3669,-0.3043,-0.0628,-0.009,-0.0715,-0.3001,-0.5148,-0.6669,-0.6755,-0.6669,-0.5888,-0.3725,0.0,0.0,0.0,0.0,0.0,0.0,0.0,0.0,0.0,0.0,0.0,0.0,0.0,0.0,0.0,0.0,0.0,-0.0088,-0.0088,0.0,-0.009,-0.009,0.0,0.0,0.0,0.0,0.0,0.0,0.0,0.0,0.0,0.0,0.0,0.0,0.0,0.0,0.0,0.0,0.0,0.0,0.0,0.0,-1.4217,-1.4231,-1.4245,-1.4292,-1.438,-1.4441,-1.4441,-1.4529,-1.4597,-1.4597,-1.4638,-1.4652,-1.4604,-1.4597,-1.4597,0.0,-1.4597,-1.4597,0.0,-1.4597,-1.4597,-1.4597,-1.4597,-1.4597,-1.4597,-1.4597,-1.4624,-1.4665,0.0,0.0,0.0,-1.2829,-1.2853,-1.3632,-1.3732,-1.4244,-1.4903,-1.4997,-1.5072,-1.5113,-1.5113,-1.514,-1.5181,-1.5181,-1.5181,-1.5181,-1.5181,-1.5181,-1.5174,-1.5126,-1.3409,-1.1517,-1.2234,-1.1084,-0.9849,-1.1555,-1.0259,-0.7969,-0.6304,-0.5298,-0.4106,-0.1724,-0.1178,-0.0905,-0.018,0.0,-0.0179,-0.0893,-0.1601,-0.2661,-0.4252,-0.3261,-0.2456,-0.333,-0.2179,0.0,0.0,0.0,0.0,0.0,0.0,0.0,0.0,0.0,0.0,0.0,0.0,0.0,0.0,0.0,0.0,0.0,0.0,0.0,0.0,0.0,0.0,0.0,0.0,0.0,0.0,0.0,0.0,0.0,0.0,0.0,0.0,0.0,0.0,0.0,0.0,0.0,0.0,0.0,0.0,0.0,-1.438,-1.4428,-1.4468,-1.4468,-1.4536,-1.4597,-1.4597,-1.4679,-1.474,-1.474,-1.4794,-1.4828,-1.4828,-1.4875,0.0,-1.4746,-1.474,-1.474,-1.474,-1.474,-1.474,-1.474,-1.474,-1.474,-1.474,-1.474,0.0,-1.4828,-1.4882,-1.4909,-1.4909,-1.4909,-1.4909,-1.4909,-1.5004,-1.5052,-1.5059,-1.5147,-1.5181,-1.5181,-1.5181,-1.5215,-1.5269,-1.5269,-1.5269,-1.5269,-1.5269,-1.5228,-1.5087,-1.414,-1.2051,-0.9964,-0.9964,-0.7437,-0.5127,-0.8528,-0.7781,-0.5559,-0.3973,-0.2957,-0.1847,-0.0367,0.0,0.0,0.0,0.0,0.0,0.0,0.0,-0.0449,-0.1971,-0.0981,-0.0533,-0.204,-0.0971,0.0,0.0,0.0,0.0,0.0,0.0,0.0,0.0,0.0,0.0,0.0,0.0,0.0,0.0,0.0,0.0,0.0,0.0,0.0,0.0,0.0,0.0,0.0,0.0,0.0,0.0,0.0,0.0,0.0,0.0,0.0,0.0,0.0,0.0,0.0,0.0,0.0,0.0,0.0,0.0,0.0,-1.4529,-1.4638,-1.474,-1.474,-1.4746,-1.4753,-1.4753,-1.4767,-1.4767,-1.4767,-1.4896,-1.4984,-1.4984,-1.5106,-1.5072,-1.4794,0.0,0.0,-1.4767,-1.4767,-1.4767,-1.4767,-1.4767,-1.4767,-1.4767,-1.4767,-1.4841,-1.4984,-1.512,-1.5181,-1.5181,-1.5181,-1.5181,-1.5181,-1.5194,-1.5201,-1.5201,-1.5208,-1.5215,-1.5215,-1.5215,-1.5303,-1.5425,-1.5425,-1.5425,-1.5425,-1.5425,-1.5235,-1.4549,-1.2172,-0.9599,-0.7318,-0.7318,-0.3997,-0.0952,-0.573,-0.5433,-0.3463,-0.334,-0.1668,0.0,0.0,0.0,0.0,0.0,0.0,0.0,0.0,0.0,0.0,0.0,0.0,0.0,0.0,0.0,0.0,0.0,0.0,0.0,0.0,0.0,0.0,0.0,0.0,0.0,0.0,0.0,0.0,0.0,0.0,0.0,0.0,0.0,0.0,0.0,0.0,0.0,0.0,0.0,0.0,0.0,0.0,0.0,0.0,0.0,0.0,0.0,0.0,0.0,0.0,0.0,0.0,0.0,0.0,0.0,0.0,-1.4685,-1.4713,-1.474,-1.474,-1.4835,-1.4916,-1.4916,-1.5004,-1.5079,-1.5079,-1.5113,-1.5133,-1.5133,-1.516,-1.5153,-1.5086,-1.5079,-1.5079,-1.5079,-1.5079,-1.5079,-1.5079,-1.5079,-1.5079,-1.5079,-1.5079,-1.5092,-1.5133,-1.5167,-1.5181,-1.5181,-1.5181,-1.5181,-1.5187,-1.5303,-1.5357,-1.5364,-1.5479,-1.5533,-1.5533,-1.5533,-1.5554,-1.5588,-1.5588,-1.5588,-1.5588,-1.5588,-1.4192,-1.2315,-1.1737,-0.8495,-0.471,-0.471,-0.249,-0.0572,-0.3698,-0.2845,-0.0855,-0.0853,-0.0474,0.0,0.0,0.0,0.0,0.0,0.0,0.0,0.0,0.0,0.0,0.0,0.0,0.0,0.0,0.0,0.0,0.0,0.0,0.0,0.0,0.0,0.0,0.0,0.0,0.0,0.0,0.0,0.0,0.0,0.0,0.0,0.0,0.0,0.0,0.0,0.0,0.0,0.0,0.0,0.0,0.0,0.0,0.0,0.0,0.0,0.0,0.0,0.0,0.0,0.0,0.0,0.0,0.0,0.0,0.0,0.0,-1.4841,-1.4896,-1.4943,-1.4943,-1.5011,-1.5065,-1.5065,-1.5133,-1.5181,-1.5181,-1.5181,-1.5181,-1.5181,-1.5181,-1.5181,-1.5181,-1.5181,-1.5181,-1.5181,-1.5181,-1.5181,-1.5181,-1.5181,-1.5181,-1.5181,-1.5181,-1.5215,-1.5289,-1.5289,-1.5323,-1.5391,-1.5391,-1.5391,-1.5398,-1.5479,-1.5513,-1.552,-1.5601,-1.5642,-1.5642,-1.5642,-1.5676,-1.5737,-1.5737,-1.5737,-1.5542,-1.436,-1.2845,-1.1226,-0.8888,-0.6137,-0.3595,-0.2431,-0.1067,-0.029,-0.1632,-0.1052,0.0,0.0,0.0,0.0,0.0,0.0,0.0,0.0,0.0,0.0,0.0,0.0,0.0,0.0,0.0,0.0,0.0,0.0,0.0,0.0,0.0,0.0,0.0,0.0,0.0,0.0,0.0,0.0,0.0,0.0,0.0,0.0,0.0,0.0,0.0,0.0,0.0,0.0,0.0,0.0,0.0,0.0,0.0,0.0,0.0,0.0,0.0,0.0,0.0,0.0,0.0,0.0,0.0,0.0,0.0,0.0,0.0,0.0,0.0,-1.5004,-1.5099,-1.5181,-1.5181,-1.5181,-1.5181,-1.5181,-1.5181,-1.5181,-1.5181,-1.5181,-1.5181,-1.5181,-1.5181,-1.5181,-1.5181,-1.5181,-1.5181,-1.5181,-1.5181,-1.5181,-1.5181,-1.5181,-1.5194,-1.5215,-1.5242,-1.5316,-1.5445,-1.5445,-1.5513,-1.5642,-1.5642,-1.5642,-1.5642,-1.5662,-1.5669,-1.5676,-1.5696,-1.571,-1.571,-1.571,-1.5778,-1.5886,-1.5886,-1.5886,-1.5591,-1.2804,-1.1555,-1.0295,-0.5499,-0.3536,-0.2847,-0.0688,0.0,0.0,0.0,0.0,0.0,0.0,0.0,0.0,0.0,0.0,0.0,0.0,0.0,0.0,0.0,0.0,0.0,0.0,0.0,0.0,0.0,0.0,0.0,0.0,0.0,0.0,0.0,0.0,0.0,0.0,0.0,0.0,0.0,0.0,0.0,0.0,0.0,0.0,0.0,0.0,0.0,0.0,0.0,0.0,0.0,0.0,0.0,0.0,0.0,0.0,0.0,0.0,0.0,0.0,0.0,0.0,0.0,0.0,0.0,0.0,0.0,0.0,0.0,-1.5147,-1.5167,-1.5181,-1.5181,-1.5181,-1.5181,-1.5181,-1.5181,-1.5181,-1.5181,-1.5181,-1.5181,-1.5181,-1.5181,-1.5181,-1.5181,-1.5181,-1.5181,-1.5181,-1.5181,-1.5181,-1.5181,-1.5181,-1.5242,-1.5371,-1.5499,-1.5581,-1.5601,-1.5601,-1.5615,-1.5642,-1.5642,-1.5642,-1.5642,-1.5764,-1.5818,-1.5825,-1.5961,-1.6015,-1.6015,-1.6015,-1.6029,-1.6049,-1.6049,-1.6049,-1.5744,-1.3024,-1.0513,-0.8104,-0.5009,-0.2495,-0.0497,-0.0099,0.0,0.0,0.0,0.0,0.0,0.0,0.0,0.0,0.0,0.0,0.0,0.0,0.0,0.0,0.0,0.0,0.0,0.0,0.0,0.0,0.0,0.0,0.0,0.0,0.0,0.0,0.0,0.0,0.0,0.0,0.0,0.0,0.0,0.0,0.0,0.0,0.0,0.0,0.0,0.0,0.0,0.0,0.0,0.0,0.0,0.0,0.0,0.0,0.0,0.0,0.0,0.0,0.0,0.0,0.0,0.0,0.0,0.0,0.0,0.0,0.0,0.0,0.0,-1.5181,-1.5181,-1.5181,-1.5181,-1.5181,-1.5181,-1.5181,-1.5181,-1.5181,-1.5181,-1.5181,-1.5181,-1.5181,-1.5181,-1.5181,-1.5181,-1.5255,-1.5303,-1.5303,-1.5303,-1.5303,-1.5303,-1.5384,-1.5459,-1.5533,-1.5601,-1.5676,-1.5757,-1.5757,-1.5798,-1.5879,-1.5879,-1.5879,-1.5879,-1.5947,-1.5974,-1.5981,-1.6049,-1.6083,-1.6083,-1.6083,-1.6083,-1.6083,-1.6083,-1.6083,-1.5578,-1.1349,-0.904,-0.7336,-0.3223,-0.1006,0.0,0.0,0.0,0.0,0.0,0.0,0.0,0.0,0.0,0.0,0.0,0.0,0.0,0.0,0.0,0.0,0.0,0.0,0.0,0.0,0.0,0.0,0.0,0.0,0.0,0.0,0.0,0.0,0.0,0.0,0.0,0.0,0.0,0.0,0.0,0.0,0.0,0.0,0.0,0.0,0.0,0.0,0.0,0.0,0.0,0.0,0.0,0.0,0.0,0.0,0.0,0.0,0.0,0.0,0.0,0.0,0.0,0.0,0.0,0.0,0.0,0.0,0.0,0.0,0.0,-1.5181,-1.5181,-1.5181,-1.5181,-1.5181,-1.5181,-1.5181,-1.5181,-1.5181,-1.5181,-1.5181,-1.5181,-1.5181,-1.5215,-1.5235,-1.5235,-1.5377,-1.5466,-1.5466,-1.5493,-1.5499,-1.5466,-1.5608,-1.5689,-1.5689,-1.5723,-1.5798,-1.5906,-1.5906,-1.5967,-1.6083,-1.6083,-1.6083,-1.6083,-1.6083,-1.6083,-1.6083,-1.6083,-1.6083,-1.6083,-1.6083,-1.6083,-1.6083,-1.6083,-1.6083,-1.5373,-0.9945,-0.8041,-0.7139,-0.1815,0.0,0.0,0.0,0.0,0.0,0.0,0.0,0.0,0.0,0.0,0.0,0.0,0.0,0.0,0.0,0.0,0.0,0.0,0.0,0.0,0.0,0.0,0.0,0.0,0.0,0.0,0.0,0.0,0.0,0.0,0.0,0.0,0.0,0.0,0.0,0.0,0.0,0.0,0.0,0.0,0.0,0.0,0.0,0.0,0.0,0.0,0.0,0.0,0.0,0.0,0.0,0.0,0.0,0.0,0.0,0.0,0.0,0.0,0.0,0.0,0.0,0.0,0.0,0.0,0.0,0.0,-1.5181,-1.5181,-1.5181,-1.5181,-1.5181,-1.5181,-1.5181,-1.5181,-1.5181,-1.5181,-1.5181,-1.5181,-1.5181,-1.5309,-1.5391,-1.5391,-1.5533,-1.5622,-1.5622,-1.5744,-1.5764,-1.5628,-1.5757,-1.5839,-1.5839,-1.5974,-1.6056,-1.6062,-1.6062,-1.6069,-1.6083,-1.6083,-1.6083,-1.6083,-1.6083,-1.6083,-1.6083,-1.6083,-1.6083,-1.6083,-1.6083,-1.6083,-1.6083,-1.6083,-1.6083,-1.5373,-0.9945,-0.8041,-0.7139,-0.1815,0.0,0.0,0.0,0.0,0.0,0.0,0.0,0.0,0.0,0.0,0.0,0.0,0.0,0.0,0.0,0.0,0.0,0.0,0.0,0.0,0.0,0.0,0.0,0.0,0.0,0.0,0.0,0.0,0.0,0.0,0.0,0.0,0.0,0.0,0.0,0.0,0.0,0.0,0.0,0.0,0.0,0.0,0.0,0.0,0.0,0.0,0.0,0.0,0.0,0.0,0.0,0.0,0.0,0.0,0.0,0.0,0.0,0.0,0.0,0.0,0.0,0.0,0.0,0.0,0.0,0.0,-1.5181,-1.5181,-1.5181,-1.5181,-1.5181,-1.5181,-1.5181,-1.5181,-1.5181,-1.5181,-1.5181,-1.5221,-1.5316,-1.5377,-1.5452,-1.5547,-1.5689,-1.5771,-1.5771,-1.5913,-1.5967,-1.5913,-1.5967,-1.5995,-1.5995,-1.6049,-1.6083,-1.6083,-1.6083,-1.6083,-1.6083,-1.6083,-1.6083,-1.6083,-1.6083,-1.6083,-1.6083,-1.6083,-1.5167,-1.376,-1.5472,-1.5068,-1.376,-1.5472,-1.6083,-1.5373,-0.9945,-0.8041,-0.7139,-0.1815,0.0,0.0,0.0,0.0,0.0,0.0,0.0,0.0,0.0,0.0,0.0,0.0,0.0,0.0,0.0,0.0,0.0,0.0,0.0,0.0,0.0,0.0,0.0,0.0,0.0,0.0,0.0,0.0,0.0,0.0,0.0,0.0,0.0,0.0,0.0,0.0,0.0,0.0,0.0,0.0,0.0,0.0,0.0,0.0,0.0,0.0,0.0,0.0,0.0,0.0,0.0,0.0,0.0,0.0,0.0,0.0,0.0,0.0,0.0,0.0,0.0,0.0,0.0,0.0,0.0,0.0,-1.5181,-1.5181,-1.5181,-1.5181,-1.5181,-1.5181,-1.5181,-1.5181,-1.5201,-1.5248,-1.5255,-1.5309,-1.5466,-1.552,-1.5594,-1.5696,-1.5839,-1.5927,-1.5927,-1.6022,-1.6083,-1.6083,-1.6083,-1.6083,-1.6083,-1.6083,-1.6083,-1.6083,-1.6083,-1.6083,-1.6083,-1.6083,-1.6083,-1.6083,-1.6083,-1.6083,-1.6083,-1.6083,-1.5068,-1.3456,-1.4464,-1.4265,-1.3456,-1.4464,-1.5373,-1.5373,-0.9945,-0.8041,-0.7139,-0.1815,0.0,0.0,0.0,0.0,0.0,0.0,0.0,0.0,0.0,0.0,0.0,0.0,0.0,0.0,0.0,0.0,0.0,0.0,0.0,0.0,0.0,0.0,0.0,0.0,0.0,0.0,0.0,0.0,0.0,0.0,0.0,0.0,0.0,0.0,0.0,0.0,0.0,0.0,0.0,0.0,0.0,0.0,0.0,0.0,0.0,0.0,0.0,0.0,0.0,0.0,0.0,0.0,0.0,0.0,0.0,0.0,0.0,0.0,0.0,0.0,0.0,0.0,0.0,0.0,0.0,0.0,-1.5181,-1.5181,-1.5181,-1.5181,-1.5181,-1.5181,-1.5181,-1.5181,-1.5242,-1.5391,-1.5411,-1.5472,-1.5622,-1.5771,-1.5852,-1.5852,-1.5995,-1.6083,-1.6083,-1.6083,-1.6083,-1.6083,-1.6083,-1.6083,-1.6083,-1.6083,-1.6083,-1.6083,-1.6083,-1.6083,-1.6083,-1.6083,-1.6083,-1.6083,-1.6083,-1.6083,-1.6083,-1.6083,-1.6083,-1.5778,-1.3151,-1.3655,-1.5778,-1.3051,-1.376,-1.5373,-0.9945,-0.7938,-0.7139,-0.1815,0.0,0.0,0.0,0.0,0.0,0.0,0.0,0.0,0.0,0.0,0.0,0.0,0.0,0.0,0.0,0.0,0.0,0.0,0.0,0.0,0.0,0.0,0.0,0.0,0.0,0.0,0.0,0.0,0.0,0.0,0.0,0.0,0.0,0.0,0.0,0.0,0.0,0.0,0.0,0.0,0.0,0.0,0.0,0.0,0.0,0.0,0.0,0.0,0.0,0.0,0.0,0.0,0.0,0.0,0.0,0.0,0.0,0.0,0.0,0.0,0.0,0.0,0.0,0.0,0.0,0.0,-1.5181,-1.5181,-1.5181,-1.5181,-1.5181,-1.5221,-1.5323,-1.5343,-1.5398,-1.5554,-1.5567,-1.5628,-1.5771,-1.5825,-1.59,-1.6001,-1.6056,-1.6083,-1.6083,-1.6083,-1.6083,-1.6083,-1.6083,-1.6083,-1.6083,-1.6083,-1.6083,-1.6083,-1.6083,-1.6083,-1.6083,-1.6083,-1.6083,-1.6083,-1.6083,-1.6083,-1.6083,-1.6083,-1.386,-1.0545,-1.1649,-1.1449,-1.0345,-0.9544,-1.0945,-1.2552,-0.7136,-0.5231,-0.4628,-0.1211,0.0,0.0,0.0,0.0,0.0,0.0,0.0,0.0,0.0,0.0,0.0,0.0,0.0,0.0,0.0,0.0,0.0,0.0,0.0,0.0,0.0,0.0,0.0,0.0,0.0,0.0,0.0,0.0,0.0,0.0,0.0,0.0,0.0,0.0,0.0,0.0,0.0,0.0,0.0,0.0,0.0,0.0,0.0,0.0,0.0,0.0,0.0,0.0,0.0,0.0,0.0,0.0,0.0,0.0,0.0,0.0,0.0,0.0,0.0,0.0,0.0,0.0,0.0,0.0,0.0,0.0,-1.5181,-1.5181,-1.5201,-1.5262,-1.5269,-1.5323,-1.5479,-1.5499,-1.5554,-1.5703,-1.5723,-1.5778,-1.5927,-1.594,-1.5981,-1.6076,-1.6083,-1.6083,-1.6083,-1.6083,-1.6083,-1.6083,-1.6083,-1.6083,-1.6083,-1.6083,-1.6083,-1.6083,-1.6083,-1.6083,-1.6083,-1.6083,-1.6083,-1.6083,-1.6083,-1.6083,-1.6083,-1.6083,-1.4165,-1.1149,-1.0645,-1.0145,-0.934,-0.7236,-0.8739,-1.1344,-0.5932,-0.4728,-0.503,-0.1312,0.0,0.0,0.0,0.0,0.0,0.0,0.0,0.0,0.0,0.0,0.0,0.0,0.0,0.0,0.0,0.0,0.0,0.0,0.0,0.0,0.0,0.0,0.0,0.0,0.0,0.0,0.0,0.0,0.0,0.0,0.0,0.0,0.0,0.0,0.0,0.0,0.0,0.0,0.0,0.0,0.0,0.0,0.0,0.0,0.0,0.0,0.0,0.0,0.0,0.0,0.0,0.0,0.0,0.0,0.0,0.0,0.0,0.0,0.0,0.0,0.0,0.0,0.0,0.0,0.0,0.0,-1.5201,-1.5215,-1.5269,-1.5404,-1.5432,-1.5486,-1.5635,-1.5655,-1.571,-1.5852,-1.5872,-1.5927,-1.6069,-1.6083,-1.6083,-1.6083,-1.6083,-1.6083,-1.6083,-1.6083,-1.6083,-1.6083,-1.6083,-1.6083,-1.6083,-1.6083,-1.6083,-1.6083,-1.6083,-1.6083,-1.6083,-1.6083,-1.6083,-1.6083,-1.6083,-1.6083,-1.6083,-1.6083,-1.5977,-1.5273,-1.0045,-0.954,-1.1144,-0.5731,-0.7032,-1.1045,-0.563,-0.5331,-0.6838,-0.1715,0.0,0.0,0.0,0.0,0.0,0.0,0.0,0.0,0.0,0.0,0.0,0.0,0.0,0.0,0.0,0.0,0.0,0.0,0.0,0.0,0.0,0.0,0.0,0.0,0.0,0.0,0.0,0.0,0.0,0.0,0.0,0.0,0.0,0.0,0.0,0.0,0.0,0.0,0.0,0.0,0.0,0.0,0.0,0.0,0.0,0.0,0.0,0.0,0.0,0.0,0.0,0.0,0.0,0.0,0.0,0.0,0.0,0.0,0.0,0.0,0.0,0.0,0.0,0.0,0.0,0.0,-1.5364,-1.5459,-1.5554,-1.5588,-1.5588,-1.5635,-1.5784,-1.5805,-1.5859,-1.6015,-1.6035,-1.6042,-1.6076,-1.6083,-1.6083,-1.6083,-1.6083,-1.6083,-1.6083,-1.6083,-1.6083,-1.6083,-1.6083,-1.6083,-1.6083,-1.6083,-1.6083,-1.6083,-1.6083,-1.6083,-1.6083,-1.6083,-1.6083,-1.6083,-1.6083,-1.6083,-1.6083,-1.6083,-1.4869,-1.2652,-0.934,-0.8342,-0.8339,-0.2922,-0.4227,-0.8138,-0.2821,-0.262,-0.4326,-0.111,0.0,0.0,0.0,0.0,0.0,0.0,0.0,0.0,0.0,0.0,0.0,0.0,0.0,0.0,0.0,0.0,0.0,0.0,0.0,0.0,0.0,0.0,0.0,0.0,0.0,0.0,0.0,0.0,0.0,0.0,0.0,0.0,0.0,0.0,0.0,0.0,0.0,0.0,0.0,0.0,0.0,0.0,0.0,0.0,0.0,0.0,0.0,0.0,0.0,0.0,0.0,0.0,0.0,0.0,0.0,0.0,0.0,0.0,0.0,0.0,0.0,0.0,0.0,0.0,0.0,0.0,-1.552,-1.5588,-1.5662,-1.573,-1.5744,-1.5791,-1.594,-1.5961,-1.5988,-1.6069,-1.6083,-1.6083,-1.6083,-1.6083,-1.6083,-1.6083,-1.6083,-1.6083,-1.6083,-1.6083,-1.6083,-1.6083,-1.6083,-1.6083,-1.6083,-1.6083,-1.6083,-1.6083,-1.6083,-1.6083,-1.6083,-1.6083,-1.6083,-1.6083,-1.6083,-1.6083,-1.5983,-1.4769,-1.3356,-1.1744,-0.7737,-0.6132,-0.5633,-0.1513,-0.252,-0.5532,-0.1513,-0.0908,-0.1915,-0.0505,0.0,0.0,0.0,0.0,0.0,0.0,0.0,0.0,0.0,0.0,0.0,0.0,0.0,0.0,0.0,0.0,0.0,0.0,0.0,0.0,0.0,0.0,0.0,0.0,0.0,0.0,0.0,0.0,0.0,0.0,0.0,0.0,0.0,0.0,0.0,0.0,0.0,0.0,0.0,0.0,0.0,0.0,0.0,0.0,0.0,0.0,0.0,0.0,0.0,0.0,0.0,0.0,0.0,0.0,0.0,0.0,0.0,0.0,0.0,0.0,0.0,0.0,0.0,0.0,0.0,0.0,-1.5676,-1.5696,-1.575,-1.5872,-1.5893,-1.5934,-1.6062,-1.6083,-1.6083,-1.6083,-1.6083,-1.6083,-1.6083,-1.6083,-1.6083,-1.6083,-1.6083,-1.6083,-1.6083,-1.6083,-1.6083,-1.6083,-1.6083,-1.6083,-1.6083,-1.6083,-1.6083,-1.6083,-1.6083,-1.6083,-1.6083,-1.6083,-1.6083,-1.6083,-1.6083,-1.6083,-1.5877,-1.3256,-1.2148,-1.1644,-0.6233,-0.4026,-0.3724,-0.1009,-0.1715,-0.3624,-0.1009,0.0,0.0,0.0,0.0,0.0,0.0,0.0,0.0,0.0,0.0,0.0,0.0,0.0,0.0,0.0,0.0,0.0,0.0,0.0,0.0,0.0,0.0,0.0,0.0,0.0,0.0,0.0,0.0,0.0,0.0,0.0,0.0,0.0,0.0,0.0,0.0,0.0,0.0,0.0,0.0,0.0,0.0,0.0,0.0,0.0,0.0,0.0,0.0,0.0,0.0,0.0,0.0,0.0,0.0,0.0,0.0,0.0,0.0,0.0,0.0,0.0,0.0,0.0,0.0,0.0,0.0,0.0,0.0,0.0,-1.5825,-1.5927,-1.6029,-1.6049,-1.6049,-1.6056,-1.6076,-1.6083,-1.6083,-1.6083,-1.6083,-1.6083,-1.6083,-1.6083,-1.6083,-1.6083,-1.6083,-1.6083,-1.6083,-1.6083,-1.6083,-1.6083,-1.6083,-1.6083,-1.6083,-1.6083,-1.6083,-1.6083,-1.6083,-1.6083,-1.6083,-1.6083,-1.6083,-1.6083,-1.6083,-1.6083,-1.5877,-1.3256,-1.2148,-1.1644,-0.6233,-0.4026,-0.3724,-0.1009,-0.1715,-0.3624,-0.1009,0.0,0.0,0.0,0.0,0.0,0.0,0.0,0.0,0.0,0.0,0.0,0.0,0.0,0.0,0.0,0.0,0.0,0.0,0.0,0.0,0.0,0.0,0.0,0.0,0.0,0.0,0.0,0.0,0.0,0.0,0.0,0.0,0.0,0.0,0.0,0.0,0.0,0.0,0.0,0.0,0.0,0.0,0.0,0.0,0.0,0.0,0.0,0.0,0.0,0.0,0.0,0.0,0.0,0.0,0.0,0.0,0.0,0.0,0.0,0.0,0.0,0.0,0.0,0.0,0.0,0.0,0.0,0.0,0.0,-1.5981,-1.6035,-1.6083,-1.6083,-1.6083,-1.6083,-1.6083,-1.6083,-1.6083,-1.6083,-1.6083,-1.6083,-1.6083,-1.6083,-1.6083,-1.6083,-1.6083,-1.6083,-1.6083,-1.6083,-1.6083,-1.6083,-1.6083,-1.6083,-1.6083,-1.6083,-1.6083,-1.6083,-1.6083,-1.6083,-1.6083,-1.6083,-1.6083,-1.6083,-1.6083,-1.6083,-1.5778,-1.1649,-0.984,-0.934,-0.3926,-0.1815,-0.1614,-0.0404,-0.0707,-0.1614,-0.0404,0.0,0.0,0.0,0.0,0.0,0.0,0.0,0.0,0.0,0.0,0.0,0.0,0.0,0.0,0.0,0.0,0.0,0.0,0.0,0.0,0.0,0.0,0.0,0.0,0.0,0.0,0.0,0.0,0.0,0.0,0.0,0.0,0.0,0.0,0.0,0.0,0.0,0.0,0.0,0.0,0.0,0.0,0.0,0.0,0.0,0.0,0.0,0.0,0.0,0.0,0.0,0.0,0.0,0.0,0.0,0.0,0.0,0.0,0.0,0.0,0.0,0.0,0.0,0.0,0.0,0.0,0.0,0.0,0.0]},{"header":{"parameterUnit":"m.s-1","parameterCategory":1,"la1":30.6,"la2":28.766,"lo1":-90.7593,"lo2":-88.6598,"dy":0.0162,"dx":0.0183,"nx":116,"ny":114,"refTime":"2023-10-21T18:00:00:Z","depth":0,"parameterNumber":3,"parameterNumberName":"V-component_of_WINDS"},"data":[0.0,0.0,0.0,0.0,0.0,0.0,0.0,0.0,0.0,0.0,0.0,0.0,0.0,0.0,0.0,0.0,0.0,0.0,0.0,0.0,0.0,0.0,0.0,0.0,0.0,0.0,0.0,0.0,0.0,0.0,0.0,0.0,0.0,0.0,0.0,0.0,0.0,0.0,0.0,0.0,0.0,0.0,0.0,0.0,0.0,0.0,0.0,0.0,0.0,0.0,0.0,0.0,0.0,0.0,0.0,0.0,0.0,0.0,0.0,0.0,0.0,0.0,0.0,0.0,0.0,0.0,0.0,0.0,0.0,0.0,0.0,0.0,0.0,0.0,0.0,0.0,0.0,0.0,0.0,0.0,0.0,0.0,0.0,0.0,0.0,0.0,0.0,0.0,0.0,0.0,0.0,0.0,0.0,0.0,0.0,0.0,0.0,0.0,0.0,0.0,0.0,0.0,0.0,0.0,0.0,0.0,0.0,0.0,0.0,0.0,0.0,0.0,0.0,0.0,0.0,0.0,0.0,0.0,0.0,0.0,0.0,0.0,0.0,0.0,0.0,0.0,0.0,0.0,0.0,0.0,0.0,0.0,0.0,0.0,0.0,0.0,0.0,0.0,0.0,0.0,0.0,0.0,0.0,0.0,0.0,0.0,0.0,0.0,0.0,0.0,0.0,0.0,0.0,0.0,0.0,0.0,0.0,0.0,0.0,0.0,0.0,0.0,0.0,0.0,0.0,0.0,0.0,0.0,0.0,0.0,0.0,0.0,0.0,0.0,0.0,0.0,0.0,0.0,0.0,0.0,0.0,0.0,0.0,0.0,0.0,0.0,0.0,0.0,0.0,0.0,0.0,0.0,0.0,0.0,0.0,0.0,0.0,0.0,0.0,0.0,0.0,0.0,0.0,0.0,0.0,0.0,0.0,0.0,0.0,0.0,0.0,0.0,0.0,0.0,0.0,0.0,0.0,0.0,0.0,0.0,0.0,0.0,0.0,0.0,0.0,0.0,0.0,0.0,0.0,0.0,0.0,0.0,0.0,0.0,0.0,0.0,0.0,0.0,0.0,0.0,0.0,0.0,0.0,0.0,0.0,0.0,0.0,0.0,0.0,0.0,0.0,0.0,0.0,0.0,0.0,0.0,0.0,0.0,0.0,0.0,0.0,0.0,0.0,0.0,0.0,0.0,0.0,0.0,0.0,0.0,0.0,0.0,0.0,0.0,0.0,0.0,0.0,0.0,0.0,0.0,0.0,0.0,0.0,0.0,0.0,0.0,0.0,0.0,0.0,0.0,0.0,0.0,0.0,0.0,0.0,0.0,0.0,0.0,0.0,0.0,0.0,0.0,0.0,0.0,0.0,0.0,0.0,0.0,0.0,0.0,0.0,0.0,0.0,0.0,0.0,0.0,0.0,0.0,0.0,0.0,0.0,0.0,0.0,0.0,0.0,0.0,0.0,0.0,0.0,0.0,0.0,0.0,0.0,0.0,0.0,0.0,0.0,0.0,0.0,0.0,0.0,0.0,0.0,0.0,0.0,0.0,0.0,0.0,0.0,0.0,0.0,0.0,0.0,0.0,0.0,0.0,0.0,0.0,0.0,0.0,0.0,0.0,0.0,0.0,0.0,0.0,0.0,0.0,0.0,0.0,0.0,0.0,0.0,0.0,0.0,0.0,0.0,0.0,0.0,0.0,0.0,0.0,0.0,0.0,0.0,0.0,0.0,0.0,0.0,0.0,0.0,0.0,0.0,0.0,0.0,0.0,0.0,0.0,0.0,0.0,0.0,0.0,0.0,0.0,0.0,0.0,0.0,0.0,0.0,0.0,0.0,0.0,0.0,0.0,0.0,0.0,0.0,0.0,0.0,0.0,0.0,0.0,0.0,0.0,0.0,0.0,0.0,0.0,0.0,0.0,0.0,0.0,0.0,0.0,0.0,0.0,0.0,0.0,0.0,0.0,0.0,0.0,0.0,0.0,0.0,0.0,0.0,0.0,0.0,0.0,0.0,0.0,0.0,0.0,0.0,0.0,0.0,0.0,0.0,0.0,0.0,0.0,0.0,0.0,0.0,0.0,0.0,0.0,0.0,0.0,0.0,0.0,0.0,0.0,0.0,0.0,0.0,0.0,0.0,0.0,0.0,0.0,0.0,0.0,0.0,0.0,0.0,0.0,0.0,0.0,0.0,0.0,0.0,0.0,0.0,0.0,0.0,0.0,0.0,0.0,0.0,0.0,0.0,0.0,0.0,0.0,0.0,0.0,0.0,0.0,0.0,0.0,0.0,0.0,0.0,0.0,0.0,0.0,0.0,0.0,0.0,0.0,0.0,0.0,0.0,0.0,0.0,0.0,0.0,0.0,0.0,0.0,0.0,0.0,0.0,0.0,0.0,0.0,0.0,0.0,0.0,0.0,0.0,0.0,0.0,0.0,0.0,0.0,0.0,0.0,0.0,0.0,0.0,0.0,0.0,0.0,0.0,0.0,0.0,0.0,0.0,0.0,0.0,0.0,0.0,0.0,0.0,0.0,0.0,0.0,0.0,0.0,0.0,0.0,0.0,0.0,0.0,0.0,0.0,0.0,0.0,0.0,0.0,0.0,0.0,0.0,0.0,0.0,0.0,0.0,0.0,0.0,0.0,0.0,0.0,0.0,0.0,0.0,0.0,0.0,0.0,0.0,0.0,0.0,0.0,0.0,0.0,0.0,0.0,0.0,0.0,0.0,0.0,0.0,0.0,0.0,0.0,0.0,0.0,0.0,0.0,0.0,0.0,0.0,0.0,0.0,0.0,0.0,0.0,0.0,0.0,0.0,0.0,0.0,0.0,0.0,0.0,0.0,0.0,0.0,0.0,0.0,0.0,0.0,0.0,0.0,0.0,0.0,0.0,0.0,0.0,0.0,0.0,0.0,0.0,0.0,0.0,0.0,0.0,0.0,0.0,0.0,0.0,0.0,0.0,0.0,0.0,0.0,0.0,0.0,0.0,0.0,0.0,0.0,0.0,0.0,0.0,0.0,0.0,0.0,0.0,0.0,0.0,0.0,0.0,0.0,0.0,0.0,0.0,0.0,0.0,0.0,0.0,0.0,0.0,0.0,0.0,0.0,0.0,0.0,0.0,0.0,0.0,0.0,0.0,0.0,0.0,0.0,0.0,0.0,0.0,0.0,0.0,0.0,0.0,0.0,0.0,0.0,0.0,0.0,0.0,0.0,0.0,0.0,0.0,0.0,0.0,0.0,0.0,0.0,0.0,0.0,0.0,0.0,0.0,0.0,0.0,0.0,0.0,0.0,0.0,0.0,0.0,0.0,0.0,0.0,0.0,0.0,0.0,0.0,0.0,0.0,0.0,0.0,0.0,0.0,0.0,0.0,0.0,0.0,0.0,0.0,0.0,0.0,0.0,0.0,0.0,0.0,0.0,0.0,0.0,0.0,0.0,0.0,0.0,0.0,0.0,0.0,0.0,0.0,0.0,0.0,0.0,0.0,0.0,0.0,0.0,0.0,0.0,0.0,0.0,0.0,0.0,0.0,0.0,0.0,0.0,0.0,0.0,0.0,0.0,0.0,0.0,0.0,0.0,0.0,0.0,0.0,0.0,0.0,0.0,0.0,0.0,0.0,0.0,0.0,0.0,0.0,0.0,0.0,0.0,0.0,0.0,0.0,0.0,0.0,0.0,0.0,0.0,0.0,0.0,0.0,0.0,0.0,0.0,0.0,0.0,0.0,0.0,0.0,0.0,0.0,0.0,0.0,0.0,0.0,0.0,0.0,0.0,0.0,0.0,0.0,0.0,0.0,0.0,0.0,0.0,0.0,0.0,0.0,0.0,0.0,0.0,0.0,0.0,0.0,0.0,0.0,0.0,0.0,0.0,0.0,0.0,0.0,0.0,0.0,0.0,0.0,0.0,0.0,0.0,0.0,0.0,0.0,0.0,0.0,0.0,0.0,0.0,0.0,0.0,0.0,0.0,0.0,0.0,0.0,0.0,0.0,0.0,0.0,0.0,0.0,0.0,0.0,0.0,0.0,0.0,0.0,0.0,0.0,0.0,0.0,0.0,0.0,0.0,0.0,0.0,0.0,0.0,0.0,0.0,0.0,0.0,0.0,0.0,0.0,0.0,0.0,0.0,0.0,0.0,0.0,0.0,0.0,0.0,0.0,0.0,0.0,0.0,0.0,0.0,0.0,0.0,0.0,0.0,0.0,0.0,0.0,0.0,0.0,0.0,0.0,0.0,0.0,0.0,0.0,0.0,0.0,0.0,0.0,0.0,0.0,0.0,0.0,0.0,0.0,0.0,0.0,0.0,0.0,0.0,0.0,0.0,0.0,0.0,0.0,0.0,0.0,0.0,0.0,0.0,0.0,0.0,0.0,0.0,0.0,0.0,0.0,0.0,0.0,0.0,0.0,0.0,0.0,0.0,0.0,0.0,0.0,0.0,0.0,0.0,0.0,0.0,0.0,0.0,0.0,0.0,0.0,0.0,0.0,0.0,0.0,0.0,0.0,0.0,0.0,0.0,0.0,0.0,0.0,0.0,0.0,0.0,0.0,0.0,0.0,0.0,0.0,0.0,0.0,0.0,0.0,0.0,0.0,0.0,0.0,0.0,0.0,0.0,0.0,0.0,0.0,0.0,0.0,0.0,0.0,0.0,0.0,0.0,0.0,0.0,0.0,0.0,0.0,0.0,0.0,0.0,0.0,0.0,0.0,0.0,0.0,0.0,0.0,0.0,0.0,0.0,0.0,0.0,0.0,0.0,0.0,0.0,0.0,0.0,0.0,0.0,0.0,0.0,0.0,0.0,0.0,0.0,0.0,0.0,0.0,0.0,0.0,0.0,0.0,0.0,0.0,0.0,0.0,0.0,0.0,0.0,0.0,0.0,0.0,0.0,0.0,0.0,0.0,0.0,0.0,0.0,0.0,0.0,0.0,0.0,0.0,0.0,0.0,0.0,0.0,0.0,0.0,0.0,0.0,0.0,0.0,0.0,0.0,0.0,0.0,0.0,0.0,0.0,0.0,0.0,0.0,0.0,0.0,0.0,0.0,0.0,0.0,0.0,0.0,0.0,0.0,0.0,0.0,0.0,0.0,0.0,0.0,0.0,0.0,0.0,0.0,0.0,0.0,0.0,0.0,0.0,0.0,0.0,0.0,0.0,0.0,0.0,0.0,0.0,0.0,0.0,0.0,0.0,0.0,0.0,0.0,0.0,0.0,0.0,0.0,0.0,0.0,0.0,0.0,0.0,0.0,0.0,0.0,0.0,0.0,0.0,0.0,0.0,0.0,0.0,0.0,0.0,0.0,0.0,0.0,0.0,0.0,0.0,0.0,0.0,0.0,0.0,0.0,0.0,0.0,0.0,0.0,0.0,0.0,0.0,0.0,0.0,0.0,0.0,0.0,0.0,0.0,0.0,0.0,0.0,0.0,0.0,0.0,0.0,0.0,0.0,0.0,0.0,0.0,0.0,0.0,0.0,0.0,0.0,0.0,0.0,0.0,0.0,0.0,0.0,0.0,0.0,0.0,0.0,0.0,0.0,0.0,0.0,0.0,0.0,0.0,0.0,0.0,0.0,0.0,0.0,0.0,0.0,0.0,0.0,0.0,0.0,0.0,0.0,0.0,0.0,0.0,0.0,0.0,0.0,0.0,0.0,0.0,0.0,0.0,0.0,0.0,0.0,0.0,0.0,0.0,0.0,0.0,0.0,0.0,0.0,0.0,0.0,0.0,0.0,0.0,0.0,0.0,0.0,0.0,0.0,0.0,0.0,0.0,0.0,0.0,0.0,0.0,0.0,0.0,0.0,0.0,0.0,0.0,0.0,0.0,0.0,0.0,0.0,0.0,0.0,0.0,0.0,0.0,0.0,0.0,0.0,0.0,0.0,0.0,0.0,0.0,0.0,0.0,0.0,0.0,0.0,0.0,0.0,0.0,0.0,0.0,0.0,0.0,0.0,0.0,0.0,0.0,0.0,0.0,0.0,0.0,0.0,0.0,0.0,0.0,0.0,0.0,0.0,0.0,0.0,0.0,0.0,0.0,0.0,0.0,0.0,0.0,0.0,0.0,0.0,0.0,0.0,0.0,0.0,0.0,0.0,0.0,0.0,0.0,0.0,0.0,0.0,0.0,5.4542,5.3823,0.0,0.0,0.0,0.0,0.0,0.0,0.0,0.0,0.0,0.0,0.0,0.0,0.0,0.0,0.0,0.0,0.0,0.0,0.0,0.0,0.0,0.0,0.0,0.0,0.0,0.0,0.0,0.0,0.0,0.0,0.0,0.0,0.0,0.0,0.0,0.0,0.0,5.5138,5.5113,5.4922,5.4544,5.4544,5.4359,5.4009,0.0,0.0,0.0,0.0,0.0,0.0,0.0,0.0,0.0,0.0,0.0,0.0,0.0,0.0,0.0,0.0,0.0,0.0,0.0,0.0,0.0,0.0,0.0,0.0,0.0,0.0,0.0,0.0,0.0,0.0,0.0,0.0,0.0,0.0,0.0,0.0,0.0,0.0,0.0,0.0,0.0,0.0,0.0,0.0,0.0,0.0,0.0,0.0,0.0,0.0,0.0,0.0,0.0,0.0,0.0,0.0,0.0,0.0,0.0,0.0,0.0,0.0,0.0,0.0,0.0,0.0,0.0,0.0,0.0,0.0,5.6333,5.5909,0.0,0.0,0.0,0.0,0.0,0.0,0.0,0.0,0.0,0.0,0.0,0.0,0.0,0.0,0.0,0.0,0.0,0.0,0.0,0.0,0.0,0.0,0.0,5.5144,5.4857,5.4992,5.5026,5.5061,0.0,0.0,0.0,0.0,0.0,0.0,5.5211,5.6485,5.7146,5.7146,5.7122,5.6779,5.6113,5.6255,5.5998,5.5414,5.4983,0.0,0.0,0.0,0.0,0.0,0.0,0.0,0.0,0.0,0.0,0.0,0.0,0.0,0.0,0.0,0.0,0.0,0.0,0.0,0.0,0.0,0.0,0.0,0.0,0.0,0.0,0.0,0.0,0.0,0.0,0.0,0.0,0.0,0.0,0.0,0.0,0.0,0.0,0.0,0.0,0.0,0.0,0.0,0.0,0.0,0.0,0.0,0.0,0.0,0.0,0.0,0.0,0.0,0.0,0.0,0.0,0.0,0.0,0.0,0.0,0.0,0.0,0.0,5.7997,5.7997,5.7997,5.7997,5.7997,5.7997,5.7997,5.7997,5.7997,5.7997,0.0,0.0,0.0,0.0,0.0,0.0,0.0,0.0,0.0,0.0,0.0,0.0,0.0,0.0,0.0,0.0,0.0,0.0,0.0,5.5724,5.5724,5.5638,5.5828,5.6528,5.6599,5.6911,5.7683,0.0,0.0,0.0,0.0,5.7836,5.7716,5.7942,5.8036,5.8036,5.8019,5.7971,5.7865,5.8518,5.8763,5.8583,5.6496,5.561,5.566,0.0,0.0,0.0,0.0,0.0,0.0,0.0,0.0,0.0,0.0,0.0,0.0,0.0,0.0,0.0,0.0,0.0,0.0,0.0,0.0,0.0,0.0,0.0,0.0,0.0,0.0,0.0,0.0,0.0,0.0,0.0,0.0,0.0,0.0,0.0,0.0,0.0,0.0,0.0,0.0,0.0,5.5507,5.5574,0.0,0.0,0.0,0.0,0.0,0.0,0.0,0.0,0.0,0.0,0.0,0.0,0.0,5.785,5.785,5.796,5.7997,5.7997,5.7997,5.7997,5.7997,5.7997,5.7997,5.7997,5.7997,0.0,5.7997,5.7997,0.0,0.0,0.0,0.0,0.0,0.0,0.0,0.0,0.0,0.0,0.0,0.0,0.0,0.0,0.0,0.0,0.0,0.0,0.0,0.0,0.0,5.7675,5.7853,5.8239,5.8275,5.8418,5.8777,5.9204,0.0,0.0,5.9215,5.9231,5.8822,5.9659,6.012,6.0095,6.0095,5.9878,5.9417,5.9765,5.9928,5.9892,5.8823,5.8089,5.7629,5.6733,0.0,0.0,0.0,0.0,0.0,0.0,0.0,0.0,0.0,0.0,0.0,0.0,0.0,0.0,0.0,0.0,0.0,0.0,0.0,0.0,0.0,0.0,0.0,0.0,0.0,0.0,0.0,0.0,0.0,0.0,0.0,0.0,0.0,0.0,0.0,0.0,0.0,0.0,0.0,5.6932,5.6932,5.6932,5.7262,5.7483,0.0,0.0,0.0,0.0,0.0,0.0,0.0,0.0,0.0,5.7997,5.7997,5.7997,5.7997,5.8437,5.8694,5.8694,5.9134,5.9355,5.9355,5.9355,5.9355,5.9355,5.9355,5.9355,5.9281,5.8364,5.7997,5.7997,0.0,0.0,0.0,0.0,5.7997,5.7997,0.0,0.0,0.0,0.0,0.0,0.0,0.0,0.0,0.0,0.0,0.0,0.0,5.9515,5.9564,5.9647,5.9865,5.9901,5.9973,6.0191,6.0699,6.0749,6.0217,6.0719,6.0765,6.0196,6.1343,6.1927,6.1924,6.1924,6.1594,6.1006,6.1006,6.1006,6.1006,6.0786,6.0272,5.9417,5.8298,5.8117,5.8621,0.0,0.0,0.0,0.0,0.0,0.0,0.0,0.0,0.0,0.0,0.0,0.0,0.0,0.0,0.0,0.0,0.0,0.0,0.0,0.0,0.0,0.0,0.0,0.0,0.0,0.0,0.0,0.0,0.0,0.0,0.0,0.0,0.0,0.0,0.0,0.0,0.0,5.7997,5.7997,5.7997,5.7997,5.7997,0.0,0.0,0.0,0.0,0.0,0.0,5.7997,5.8217,5.8327,5.8327,5.851,5.8621,5.8621,5.9208,5.9515,5.9515,6.0126,6.0419,6.0419,6.0419,6.0419,6.0419,6.0419,6.0419,6.0309,5.9098,5.8621,5.8621,5.8621,5.8621,5.8621,5.8621,5.8621,5.8621,0.0,0.0,0.0,0.0,0.0,0.0,0.0,0.0,0.0,0.0,0.0,6.0346,6.0346,6.0358,6.0664,6.1398,6.1471,6.1801,6.2572,6.267,6.267,6.2645,6.2682,6.2657,6.2631,6.2693,6.2718,6.2768,6.2768,6.2707,6.2695,6.2695,6.2695,6.2658,6.1887,6.108,6.0346,6.0261,6.0248,6.0272,6.0272,0.0,0.0,0.0,0.0,0.0,0.0,0.0,0.0,0.0,0.0,0.0,0.0,0.0,0.0,0.0,0.0,0.0,0.0,0.0,0.0,0.0,0.0,0.0,0.0,0.0,0.0,0.0,0.0,0.0,0.0,0.0,0.0,0.0,0.0,0.0,0.0,0.0,0.0,5.7997,5.7997,0.0,0.0,0.0,0.0,5.7997,5.7997,5.7997,5.7997,5.8731,5.9148,5.9148,5.9905,6.0272,6.0272,6.0309,6.0346,6.0346,6.0382,6.0419,6.0419,6.0419,6.0419,6.0419,6.0419,6.0419,6.0382,6.0309,6.0272,6.0272,6.0272,6.0272,6.0272,6.0272,6.0272,6.0272,0.0,0.0,0.0,0.0,0.0,0.0,0.0,0.0,6.0419,6.0419,6.086,6.1153,6.1153,6.163,6.2071,6.2365,6.2365,6.2511,6.278,6.278,6.278,6.278,6.278,6.278,6.278,6.278,6.278,6.278,6.278,6.278,6.278,6.278,6.278,6.2805,6.2511,6.2218,6.1887,6.086,6.0419,6.0419,6.0419,6.0419,0.0,0.0,0.0,0.0,0.0,0.0,0.0,0.0,0.0,0.0,0.0,0.0,0.0,0.0,0.0,0.0,0.0,0.0,0.0,0.0,0.0,0.0,0.0,0.0,0.0,0.0,0.0,0.0,0.0,0.0,0.0,0.0,0.0,0.0,0.0,0.0,0.0,5.7997,5.7997,0.0,5.8731,5.8767,5.8988,5.9501,5.9538,5.9538,5.9538,5.9832,5.9979,5.9979,6.0272,6.0419,6.0419,6.0896,6.1153,6.119,6.1704,6.1961,6.1961,6.1961,6.1961,6.1961,6.1961,6.1961,6.1961,6.1961,6.1337,6.0419,6.0419,6.0419,6.0419,6.0419,6.0419,6.0419,0.0,0.0,0.0,0.0,0.0,0.0,0.0,6.1043,6.1227,6.1227,6.1667,6.1998,6.1998,6.2475,6.278,6.278,6.278,6.278,6.278,6.278,6.278,6.278,6.278,6.278,6.278,6.278,6.278,6.278,6.278,6.278,6.278,6.278,6.278,6.278,6.278,6.278,6.2732,6.1667,6.1227,6.1227,6.1227,6.1227,6.1263,0.0,0.0,0.0,0.0,0.0,0.0,0.0,0.0,0.0,0.0,0.0,0.0,0.0,0.0,0.0,0.0,0.0,0.0,0.0,0.0,0.0,0.0,0.0,0.0,0.0,0.0,0.0,0.0,0.0,0.0,0.0,0.0,0.0,0.0,5.8804,5.8804,5.8804,5.8804,5.9024,5.9575,5.9588,5.9832,6.0382,6.0419,6.0419,6.0419,6.0676,6.0786,6.0786,6.1337,6.1667,6.1667,6.2438,6.2842,6.2842,6.3392,6.3649,6.3649,6.3649,6.3649,6.3649,6.3649,6.3503,6.3246,6.3246,6.2438,6.1227,6.1227,6.1227,6.1227,6.1227,6.1227,6.1227,0.0,0.0,0.0,0.0,0.0,0.0,6.163,6.2291,6.278,6.278,6.278,6.278,6.278,6.278,6.278,6.278,6.278,6.278,6.278,6.278,6.278,6.278,6.278,6.278,6.278,6.278,6.278,6.278,6.278,6.278,6.278,6.278,6.278,6.278,6.278,6.278,6.278,6.278,6.278,6.278,6.278,6.278,6.278,0.0,0.0,0.0,0.0,0.0,0.0,0.0,0.0,0.0,0.0,0.0,0.0,0.0,0.0,0.0,0.0,0.0,0.0,0.0,0.0,0.0,0.0,0.0,0.0,0.0,0.0,0.0,0.0,0.0,0.0,0.0,0.0,0.0,6.0419,6.0419,6.0419,6.0419,6.0419,6.0419,6.0456,6.0456,6.0456,6.0493,6.0493,6.0493,6.0493,6.1227,6.1667,6.1667,6.3282,6.4127,6.4127,6.4897,6.5301,6.5301,6.5301,6.5301,6.5301,6.5301,6.5301,6.5301,6.5301,6.4861,6.4127,6.4127,6.3649,6.2853,6.2817,6.278,6.278,6.278,6.278,6.278,0.0,0.0,0.0,0.0,0.0,0.0,6.2475,6.2658,6.278,6.278,6.278,6.278,6.278,6.278,6.278,6.278,6.278,6.278,6.278,6.278,6.278,6.278,6.278,6.278,6.278,6.278,6.278,6.278,6.278,6.278,6.278,6.278,6.278,6.278,6.278,6.278,6.278,6.278,6.278,6.278,6.278,6.278,6.278,0.0,0.0,0.0,0.0,0.0,0.0,0.0,0.0,0.0,0.0,0.0,0.0,0.0,0.0,0.0,0.0,0.0,0.0,0.0,0.0,0.0,0.0,0.0,0.0,0.0,0.0,0.0,0.0,0.0,0.0,0.0,6.2144,6.1741,6.0566,6.0419,6.0419,6.0419,6.0419,6.0639,6.119,6.1263,6.152,6.2108,6.2144,6.2144,6.2144,6.2952,6.3392,6.3392,6.442,6.4971,6.4971,6.5191,6.5301,6.5301,6.5301,6.5301,6.5301,6.5301,6.5301,6.5301,6.5301,6.5191,6.4971,6.4971,6.4824,6.4494,6.3257,6.278,6.278,6.278,6.278,6.278,0.0,0.0,0.0,0.0,0.0,0.0,6.278,6.278,6.278,6.278,6.278,6.278,6.278,6.278,6.278,6.278,6.278,6.278,6.278,6.278,6.278,6.278,6.278,6.278,6.278,6.278,6.278,6.278,6.278,6.278,6.278,6.278,6.278,6.278,6.278,6.278,6.278,6.278,6.278,6.278,6.278,6.278,6.278,6.278,6.278,6.278,6.278,6.278,6.278,6.278,0.0,0.0,0.0,0.0,0.0,0.0,0.0,0.0,0.0,0.0,0.0,0.0,0.0,0.0,0.0,0.0,0.0,0.0,0.0,0.0,0.0,0.0,0.0,0.0,6.278,6.245,6.1557,6.141,6.141,6.141,6.141,6.1594,6.2071,6.2108,6.2291,6.2743,6.3135,6.3356,6.3356,6.4127,6.4604,6.4604,6.5375,6.5815,6.5815,6.6145,6.6329,6.6329,6.6329,6.6329,6.6329,6.6329,6.6329,6.6329,6.6329,6.6109,6.5815,6.5815,6.5595,6.5191,0.0,0.0,0.0,0.0,6.278,6.278,0.0,0.0,0.0,0.0,0.0,0.0,6.278,6.278,6.278,6.278,6.278,6.278,6.278,6.278,6.278,6.278,6.278,6.278,6.278,6.278,6.278,6.278,6.278,6.278,6.278,6.278,6.278,6.278,6.278,6.278,6.278,6.278,6.278,6.278,6.278,6.278,6.278,6.278,6.278,6.278,6.278,6.278,6.278,6.278,6.278,6.278,6.278,6.278,6.278,6.278,0.0,0.0,0.0,0.0,0.0,0.0,0.0,0.0,0.0,0.0,0.0,0.0,0.0,0.0,0.0,0.0,0.0,0.0,0.0,0.0,0.0,0.0,0.0,0.0,6.278,6.278,6.278,6.278,6.278,6.278,6.278,6.278,6.278,6.278,6.2842,6.2952,6.3649,6.4127,6.4237,6.5007,0.0,0.0,0.0,6.6623,6.6623,6.732,6.7724,6.7834,6.7834,6.7834,6.7834,6.7834,6.7797,6.7687,6.7687,6.7283,6.6623,6.6623,6.6145,6.5375,6.453,6.4237,6.4127,6.3392,6.3,6.2952,0.0,0.0,0.0,0.0,0.0,0.0,6.278,6.278,6.278,6.278,6.278,6.278,6.278,6.278,6.278,6.278,6.278,6.278,6.278,6.278,6.278,6.278,6.278,6.278,6.278,6.278,6.278,6.278,6.278,6.278,6.278,6.278,6.278,6.278,6.278,6.278,6.278,6.278,6.278,6.278,6.278,6.278,6.278,6.278,6.278,6.278,6.278,6.278,6.278,6.278,6.278,6.278,6.278,6.278,0.0,0.0,0.0,0.0,0.0,0.0,0.0,0.0,0.0,0.0,0.0,0.0,0.0,0.0,0.0,0.0,0.0,0.0,0.0,6.278,6.278,6.278,6.278,6.278,6.278,6.278,6.278,6.278,6.278,6.278,6.3099,6.3796,6.398,6.4383,6.5044,6.5815,6.6256,6.6256,6.7026,6.7467,6.7467,6.7614,6.8017,6.8678,6.8678,0.0,6.8678,6.8678,6.8311,6.7687,6.7687,6.7614,6.7467,6.7467,6.699,6.6182,6.5375,6.5081,6.5044,6.4897,6.442,6.3833,0.0,0.0,0.0,0.0,0.0,0.0,6.278,6.278,6.278,6.278,6.278,6.278,6.278,6.278,6.278,6.278,6.278,6.278,6.278,6.278,6.278,6.278,6.278,6.278,6.278,6.278,6.278,6.278,6.278,6.278,6.278,6.278,6.278,6.278,6.278,6.278,6.278,6.278,6.278,6.278,6.278,6.278,6.278,6.278,6.278,6.278,6.278,6.278,6.278,6.278,6.278,6.278,6.278,6.278,6.278,0.0,0.0,0.0,0.0,0.0,0.0,0.0,0.0,0.0,0.0,0.0,0.0,0.0,0.0,6.278,6.278,0.0,6.278,6.278,6.278,6.278,6.278,6.278,6.278,6.278,6.278,6.278,6.278,6.3209,6.3613,6.4053,6.4861,6.5485,6.5888,6.6659,6.71,6.71,6.7871,6.8311,6.8311,6.8678,6.9082,6.9486,6.9486,6.9486,6.9486,6.9486,6.9265,6.8898,6.8898,6.8678,6.8274,6.7871,6.7467,6.7063,6.6659,6.5999,6.5301,6.5301,6.5044,6.4714,0.0,0.0,0.0,0.0,0.0,0.0,6.278,6.278,6.278,6.278,6.278,6.278,6.278,6.278,6.278,6.278,6.278,6.278,6.278,6.278,6.278,6.278,6.278,6.278,6.278,6.278,6.278,6.278,6.278,6.278,6.278,6.278,6.289,6.3062,6.3062,6.3135,6.3282,6.3135,6.3062,6.3062,6.2879,6.278,6.278,6.278,6.278,6.278,6.278,6.278,6.278,6.278,6.278,6.278,6.278,6.278,6.278,6.278,6.278,0.0,0.0,0.0,0.0,0.0,0.0,0.0,0.0,6.278,6.278,6.278,6.278,6.278,6.278,6.278,6.278,6.278,6.278,6.278,6.278,6.278,6.278,6.278,6.278,6.2879,6.3062,6.3686,6.4237,6.453,6.5778,6.6549,6.6733,6.7357,6.776,6.7907,6.8568,6.8972,6.9119,6.9779,7.0183,7.033,7.033,7.033,7.033,7.033,7.0257,7.011,7.011,6.9743,6.9082,6.8421,6.8054,6.7907,6.7907,6.7106,6.5922,6.5794,6.5746,6.569,0.0,0.0,0.0,0.0,0.0,0.0,0.0,0.0,6.278,6.278,6.278,6.278,6.278,6.278,6.278,6.278,6.278,6.278,6.278,6.278,6.278,6.278,6.278,6.278,6.278,6.278,6.278,6.278,6.278,6.278,6.278,6.278,6.3209,6.3943,6.3943,6.4347,6.4971,6.4273,6.3943,6.387,6.3135,6.278,6.278,6.278,6.278,6.278,6.278,6.278,6.278,6.278,6.278,6.278,6.278,6.278,6.278,6.278,6.278,6.278,6.278,6.278,6.278,6.278,6.278,6.278,0.0,6.278,6.278,6.278,6.278,6.278,6.278,6.278,6.278,6.278,6.278,6.278,6.278,6.278,6.278,6.278,6.278,6.3099,6.387,6.4016,6.4677,6.6109,6.6402,6.6806,6.7504,6.7677,6.8017,6.8752,6.8862,6.9229,6.9963,7.0073,7.0477,7.1174,7.1174,7.1174,7.1174,7.1174,7.077,7.011,7.011,7.0036,6.9963,6.9853,6.9412,6.8788,6.8788,6.8498,6.8084,6.7594,6.7269,6.7077,0.0,0.0,0.0,0.0,0.0,0.0,0.0,0.0,6.278,6.278,6.278,6.278,6.278,6.278,6.278,6.278,6.278,6.278,6.278,6.278,6.278,6.278,6.278,6.278,6.278,6.278,6.278,6.278,6.278,6.278,6.278,6.3319,6.3759,6.4127,6.4604,6.5007,6.5301,6.4934,6.4787,6.4787,6.442,6.4273,6.4273,6.4273,6.4273,6.42,6.3723,6.3576,0.0,6.3576,6.3576,6.3466,6.2989,6.3172,6.3466,6.2952,6.3172,6.3466,6.2952,6.278,6.288,6.3191,6.3038,6.2904,6.3191,6.3038,6.2904,6.3191,6.3285,6.3285,6.3285,6.3285,6.3168,6.2855,6.278,6.278,6.278,6.278,6.278,6.278,6.3246,6.3686,6.4053,6.453,6.5264,6.6402,6.6916,6.7357,6.7677,6.8128,6.8568,6.8898,6.9816,7.0477,7.0807,7.1248,7.1688,7.2018,7.2018,7.2018,7.2018,7.2018,7.2014,7.1976,7.1532,7.1503,7.1736,7.1274,7.0901,7.0565,7.0565,7.0503,7.0203,6.8391,6.8012,6.8425,0.0,0.0,0.0,0.0,0.0,0.0,0.0,0.0,0.0,0.0,6.278,6.278,6.278,6.278,6.278,6.278,6.278,6.278,6.278,6.278,6.278,6.278,6.278,6.278,6.278,6.278,6.278,6.278,6.278,6.278,6.2817,6.3686,6.42,6.4457,6.5264,6.5742,6.5962,6.5742,6.5632,6.5632,6.5411,6.5301,6.5301,6.5301,6.5301,6.5228,6.464,6.442,6.442,6.442,6.442,6.431,6.3686,6.3943,6.4273,6.3429,6.3429,6.3663,6.3174,6.3014,6.3097,6.352,6.3331,6.3147,6.365,6.3442,6.3346,6.4153,6.4301,6.4301,6.4301,6.4301,6.4167,6.3798,6.3591,6.3516,6.3677,6.3566,6.3477,6.3477,6.4053,6.453,6.4751,6.5301,6.5962,6.6769,6.7357,6.7797,6.8017,6.8568,6.9119,6.9559,7.0697,7.1403,7.1651,7.2202,7.2496,7.2496,7.2496,7.261,7.2733,7.2916,7.325,7.3626,7.3052,7.301,7.3333,7.2751,7.2335,7.2109,7.2109,7.2099,7.1779,6.9615,6.9274,6.9775,0.0,0.0,0.0,0.0,0.0,0.0,0.0,0.0,0.0,0.0,0.0,6.278,6.278,6.278,6.278,6.278,6.278,6.278,6.278,6.278,6.278,6.278,6.278,6.278,6.278,6.278,6.278,6.278,6.278,6.278,6.2817,6.3686,6.453,6.5301,6.6109,6.688,6.7577,6.6769,6.6476,6.6402,6.5632,6.5301,6.5301,6.5301,6.5301,6.5301,6.5264,6.5264,6.5264,6.5264,6.5264,6.5264,6.5228,6.5264,6.5118,6.431,6.3466,6.2929,6.3431,6.3587,6.3587,6.3609,6.3609,6.3676,6.4008,6.4079,6.4438,6.5737,6.6023,6.6023,6.6023,6.6023,6.6,6.6,6.5546,6.5421,6.5946,6.5546,6.5228,6.5228,6.5264,6.5595,6.6366,6.6439,6.6806,6.7577,6.7687,6.8017,6.8825,6.8898,6.9633,7.1211,7.1256,7.1688,7.2459,7.2496,7.2496,7.2496,7.2496,7.2816,7.3391,7.398,7.4249,7.4271,7.4234,7.4234,7.4255,7.4218,7.3727,7.2956,7.2956,7.2792,7.2521,7.1895,7.1541,7.1222,0.0,0.0,0.0,0.0,0.0,0.0,0.0,0.0,0.0,0.0,0.0,0.0,0.0,0.0,0.0,0.0,6.278,6.278,6.278,6.278,6.278,6.278,6.278,6.278,6.278,6.278,6.278,6.278,6.278,6.278,6.2817,6.4237,6.5044,6.5375,6.6696,6.743,6.7677,6.7393,6.7283,6.7247,6.699,6.688,6.688,6.688,6.688,6.688,0.0,6.6549,6.6109,6.6109,6.6109,6.5999,6.5485,6.5668,6.5925,6.5118,6.4132,6.3363,6.3565,6.4246,6.4946,6.4925,6.5106,6.5374,6.5774,6.5642,6.5739,6.6843,6.7088,6.6995,6.6623,6.6861,6.6763,6.5766,6.5717,6.5753,6.5571,6.5419,6.5301,6.5301,6.5778,6.6219,6.6476,6.6512,6.6843,6.7614,6.8201,6.8605,6.8898,7.0275,7.1141,7.1284,7.2197,7.263,7.2496,7.2496,7.2714,7.3093,7.3516,7.3794,7.4003,7.4206,7.4506,7.4847,7.4847,7.5074,7.5434,7.5434,7.5243,7.4992,7.4992,7.4922,7.4765,7.4008,7.3674,7.3392,0.0,0.0,0.0,0.0,0.0,0.0,0.0,0.0,0.0,0.0,0.0,0.0,0.0,0.0,0.0,0.0,0.0,6.278,6.278,6.278,6.278,6.278,6.278,6.278,6.278,6.278,6.278,6.278,6.278,6.278,6.2817,6.4237,6.5044,6.5375,6.6659,6.743,6.7687,6.7687,6.7687,6.7687,6.7687,6.7687,6.7687,6.7687,6.7687,0.0,6.7687,6.7357,6.6916,6.6916,6.6916,6.6843,6.6329,6.6109,6.6051,6.6024,6.5096,6.4224,6.4847,6.5653,6.6311,6.6292,6.6484,6.6739,6.718,6.7033,6.7129,6.8244,6.8337,6.818,6.7996,6.8088,6.796,6.7135,6.7135,6.7201,6.706,6.683,6.6725,6.6725,6.7208,6.7444,6.7232,6.7465,6.7793,6.8118,6.8605,6.9155,6.9743,7.1324,7.2146,7.2069,7.2938,7.3224,7.2844,7.2816,7.3119,7.3723,7.4299,7.4609,7.4609,7.4789,7.5092,7.543,7.543,7.5616,7.6015,7.6015,7.6015,7.6015,7.6015,7.6015,7.5938,7.5361,7.5168,7.4932,0.0,0.0,0.0,0.0,0.0,0.0,0.0,0.0,0.0,0.0,0.0,0.0,0.0,0.0,0.0,0.0,0.0,0.0,6.278,6.278,6.278,6.278,6.278,6.278,6.278,6.278,6.278,6.278,6.278,6.278,6.2817,6.3686,6.453,6.5338,6.6145,6.6953,6.7687,6.7687,6.7687,6.7687,6.7687,6.7687,6.7687,6.7687,6.7714,6.7741,6.7741,6.7767,6.7757,6.7767,6.7741,6.7741,6.7714,6.6649,6.5665,6.6932,6.6232,6.5415,6.7148,6.7649,6.7703,6.767,6.7709,6.78,6.8149,6.8222,6.8546,6.9853,6.9738,6.953,7.0026,6.9683,6.9511,6.9954,6.9645,6.9492,7.0009,6.9626,6.9313,6.9313,6.9272,6.9101,6.8595,6.9232,6.9496,6.9063,6.9045,6.9706,7.1239,7.1969,7.2684,7.3404,7.3492,7.3454,7.3442,7.3454,7.377,7.4358,7.4905,7.5145,7.5145,7.5733,7.6015,7.6015,7.6015,7.6015,7.6015,7.6015,7.6015,7.6015,7.6015,7.6015,7.6015,7.6015,7.6015,7.5784,0.0,0.0,0.0,0.0,0.0,0.0,0.0,0.0,0.0,0.0,0.0,0.0,0.0,0.0,0.0,0.0,0.0,0.0,6.278,6.278,6.278,6.278,6.278,6.278,6.278,6.278,6.278,6.278,6.278,6.278,6.2817,6.3686,6.453,6.5338,6.6145,6.6953,6.7687,6.7687,6.7687,6.7687,6.7687,6.7687,6.7687,6.7687,6.7956,6.8308,6.8308,6.8544,6.884,6.844,6.8308,6.821,6.7836,6.728,6.6847,6.7198,6.7129,6.7002,6.7469,6.835,6.9073,6.8613,6.8989,6.9468,6.9576,6.9596,6.9794,7.0531,7.0593,7.0432,7.0145,7.0009,6.9811,6.955,6.9393,6.9353,6.9492,6.9393,6.9313,6.9313,6.8935,6.8898,6.9331,6.9221,6.953,7.0624,7.0697,7.1057,7.1921,7.311,7.3846,7.4072,7.4468,7.4468,7.4072,7.4468,7.4751,7.4924,7.5501,7.5787,7.5787,7.5932,7.6015,7.6015,7.6015,7.6015,7.6015,7.6015,7.6015,7.6015,7.6015,7.6015,7.6015,7.6015,7.6015,7.5938,0.0,0.0,0.0,0.0,0.0,0.0,0.0,0.0,0.0,0.0,0.0,0.0,0.0,0.0,0.0,0.0,0.0,0.0,0.0,6.278,6.278,6.278,6.278,6.278,6.278,6.278,6.2989,6.3392,6.2989,6.3025,6.3392,6.3466,6.398,6.4824,6.5595,6.6402,6.7173,6.754,6.7836,0.0,0.0,6.8185,6.8392,6.8392,6.8567,6.8825,6.8825,6.921,6.9569,6.9021,6.8825,6.8818,6.8511,6.8054,6.7787,6.8357,6.8356,6.8291,6.8901,6.963,7.0151,6.9819,7.008,7.0463,7.0463,7.0463,7.0524,7.0857,7.0695,7.0524,7.0463,7.0266,7.0078,7.0026,7.0009,7.0009,7.0009,7.0009,7.0009,7.0009,6.9833,6.9926,7.0416,7.0597,7.107,7.1962,7.1828,7.1976,7.2683,7.3964,7.467,7.467,7.4961,7.4961,7.4632,7.4961,7.5236,7.548,7.5833,7.6015,7.6015,7.6015,7.6015,7.6015,7.6015,7.6015,7.6015,7.6015,7.6015,7.6015,7.6015,7.6015,7.6015,7.6015,7.6015,7.6015,0.0,0.0,0.0,0.0,0.0,0.0,0.0,0.0,0.0,0.0,0.0,0.0,0.0,0.0,0.0,0.0,0.0,0.0,0.0,0.0,6.278,6.278,6.278,6.278,6.278,6.278,6.3172,6.3906,6.3172,6.3209,6.3906,6.3172,6.3282,6.4127,6.4824,6.5668,6.6549,6.7247,6.7871,6.8392,6.8487,6.8795,6.921,0.0,6.9353,6.9433,6.9492,6.9811,7.0129,6.9664,6.9472,6.9393,6.9333,6.8882,6.8584,6.9763,6.9666,6.9413,7.0584,7.0898,7.0898,7.0898,7.0898,7.0898,7.0898,7.0898,7.0898,7.0898,7.0524,7.0346,7.0805,7.0463,7.0282,7.0805,7.0857,7.0805,7.0885,7.0898,7.0937,7.1052,7.122,7.1412,7.1697,7.2487,7.3027,7.3183,7.2823,7.2878,7.3589,7.4571,7.5127,7.5236,7.5236,7.5236,7.5236,7.5236,7.5463,7.6015,7.6015,7.6015,7.6015,7.6015,7.6015,7.6015,7.6015,7.6015,7.6015,7.6015,7.6015,7.6015,7.6015,7.6015,7.6015,7.6015,7.6015,7.6015,0.0,0.0,0.0,0.0,0.0,0.0,0.0,0.0,0.0,0.0,6.141,6.2071,0.0,0.0,0.0,0.0,0.0,0.0,0.0,0.0,0.0,6.278,6.278,6.278,6.278,6.278,6.2879,6.3025,6.2879,6.2879,6.3025,6.2879,6.3282,6.409,6.4237,6.5118,6.6512,6.6659,6.7143,6.7889,6.8333,6.8581,6.8682,6.9127,0.0,0.0,7.0463,7.0666,7.0748,7.0652,7.033,6.9865,6.9452,6.9493,6.9819,7.004,7.0317,7.0598,7.0846,7.0898,7.0898,7.0898,7.0898,7.0898,7.0898,7.0898,7.0898,7.0898,7.0843,7.0791,7.0885,7.0463,7.0282,7.0805,7.0524,7.0378,7.0857,7.0898,7.1168,7.1898,7.1619,7.1925,7.3336,7.3189,7.3312,7.4029,7.4422,7.4657,7.4809,7.5017,7.5323,7.5833,7.5833,7.5833,7.5833,7.5833,7.5902,7.6015,7.6015,7.6015,7.6015,7.6015,7.6015,7.6015,7.6015,7.6015,7.6015,7.6015,7.6015,7.6015,7.6015,7.6015,7.6015,7.6015,7.6015,7.6015,0.0,0.0,0.0,0.0,0.0,0.0,0.0,5.8584,5.8877,5.9685,6.0126,6.0823,6.2034,6.2548,0.0,0.0,0.0,0.0,0.0,0.0,0.0,6.278,6.278,6.278,6.278,6.278,6.3025,6.3466,0.0,6.3025,6.3466,6.3025,6.3025,6.3429,6.3906,6.453,6.5301,6.6145,6.6868,6.7555,6.8243,6.8825,6.9373,6.9626,0.0,0.0,7.0791,7.0898,7.0898,7.0898,7.0748,7.0478,7.0233,7.0314,7.0509,7.0509,7.0681,7.0898,7.0898,7.0898,7.0898,7.0898,7.0898,7.0898,7.0898,7.0898,7.0898,7.0898,7.0898,7.0898,7.0898,7.0681,7.0608,7.0871,7.0666,7.0622,7.0871,7.0898,7.1052,7.1475,7.181,7.2469,7.3581,7.3931,7.4391,7.5147,7.5413,7.543,7.5109,7.5413,7.5702,7.5976,7.6015,7.6015,7.6015,7.6015,7.6015,7.6015,7.6015,7.6015,7.6015,7.6015,7.6015,7.6015,7.6015,7.6015,7.6015,7.6015,7.6015,7.6015,7.6015,7.6015,7.6015,7.6015,7.6015,7.6015,0.0,0.0,0.0,0.0,0.0,0.0,0.0,5.7997,5.8217,5.8854,5.9074,5.9661,6.0933,6.1961,6.2622,0.0,0.0,0.0,0.0,0.0,0.0,0.0,0.0,0.0,6.2965,0.0,0.0,6.4142,6.3477,0.0,0.0,0.0,0.0,0.0,6.3846,6.4253,6.4511,6.5743,6.6762,0.0,0.0,6.9164,7.0112,0.0,0.0,0.0,0.0,7.0898,7.0898,7.0898,7.0783,7.0629,7.0629,7.0744,7.086,7.0706,7.0744,7.0898,7.0898,7.0898,7.0898,7.0898,7.0898,7.0898,7.0898,7.0898,7.0898,7.0898,7.0898,7.0898,7.0898,7.0898,7.0898,7.0898,7.0898,7.0898,7.0898,7.0898,7.1052,7.1398,7.2272,7.3111,7.3947,7.4801,7.548,7.5947,7.6015,7.5803,7.5306,7.5733,7.6015,7.6015,7.6015,7.6015,7.6015,7.6015,7.6015,7.6015,7.6015,7.6015,7.6015,7.6015,7.6015,7.6015,7.6015,7.6015,7.6015,7.6015,7.6015,7.6015,7.6015,7.6015,7.6015,7.6015,7.6015,7.6015,0.0,0.0,0.0,0.0,0.0,0.0,0.0,5.7997,5.8033,5.8107,5.8767,5.9258,5.9404,6.0786,6.1998,0.0,0.0,0.0,0.0,0.0,0.0,0.0,0.0,0.0,0.0,0.0,0.0,6.4349,6.4274,0.0,0.0,0.0,0.0,0.0,0.0,6.4781,6.5477,6.5627,0.0,0.0,0.0,0.0,0.0,0.0,0.0,0.0,0.0,7.0898,7.0898,7.0898,7.0398,6.9821,6.9821,7.0321,7.0744,7.0014,7.0321,7.0898,7.0898,7.0898,7.0898,7.0898,7.0898,7.0898,7.0898,7.0898,7.0898,7.0898,7.0898,7.0898,7.0898,7.0898,7.0898,7.0898,7.0898,7.0898,7.0898,7.0898,7.1475,7.3091,7.3356,7.4048,7.563,7.587,7.5932,7.6015,7.6015,7.6,7.5932,7.5962,7.6015,7.6015,7.6015,7.6015,7.6015,7.6015,7.6015,7.6015,7.6015,7.6015,7.6015,7.6015,7.6015,7.6015,7.6015,7.6015,7.6015,7.6015,7.6015,7.6015,7.6015,7.6015,7.6015,7.6015,7.6015,7.6015,0.0,0.0,0.0,0.0,0.0,0.0,5.7997,5.7997,5.7997,5.7997,5.829,5.8657,5.9148,5.9795,6.0676,0.0,0.0,0.0,0.0,0.0,0.0,0.0,0.0,0.0,0.0,0.0,6.4096,6.4389,6.4389,0.0,0.0,0.0,0.0,0.0,0.0,6.4558,6.4898,6.5407,0.0,0.0,0.0,0.0,0.0,0.0,0.0,0.0,0.0,0.0,7.0898,7.0898,7.036,6.9629,6.909,6.9129,6.9436,6.9629,6.9937,7.0283,7.0783,7.0898,7.0898,7.0898,7.0898,7.0898,7.0898,7.0898,7.0898,7.0898,7.0898,7.0898,7.0898,7.0898,7.0898,7.0898,7.0898,7.0898,7.0898,7.0898,7.136,7.2552,7.3168,7.3937,7.513,7.5707,7.6015,7.6015,7.6015,7.6015,7.6015,7.6015,7.6015,7.6015,7.6015,7.6015,7.6015,7.6015,7.6015,7.6015,7.6015,7.6015,7.6015,7.6015,7.6015,7.6015,7.6015,7.6015,7.6015,7.6015,7.6015,7.6015,7.6015,7.6015,7.6015,7.6015,7.6015,7.6015,0.0,0.0,0.0,0.0,0.0,5.7997,5.7997,5.7997,5.7997,5.7997,5.7997,5.8217,5.8804,5.8877,5.9391,6.0786,0.0,0.0,0.0,0.0,0.0,0.0,0.0,0.0,0.0,0.0,6.4313,6.4837,6.4837,6.4837,0.0,0.0,6.4837,6.4837,0.0,0.0,0.0,0.0,0.0,0.0,0.0,0.0,0.0,0.0,0.0,0.0,0.0,0.0,0.0,0.0,0.0,6.9206,6.859,6.8052,6.7821,6.8667,6.9283,6.9821,7.0398,7.0706,7.0898,7.0898,7.0898,7.0898,7.0898,7.0898,7.0898,7.0898,7.0898,7.0898,7.0898,7.0898,7.0898,7.0898,7.0898,7.0898,7.0898,7.0898,7.1206,7.2091,7.2976,7.3822,7.463,7.5476,7.6015,7.6015,7.6015,7.6015,7.6015,7.6015,7.6015,7.6015,7.6015,7.6015,7.6015,7.6015,7.6015,7.6015,7.6015,7.6015,7.6015,7.6015,7.6015,7.6015,7.6015,7.6015,7.6015,7.6015,7.6015,7.6015,7.6015,7.6015,7.6015,7.6015,7.6015,7.6015,0.0,0.0,0.0,0.0,0.0,0.0,0.0,5.7997,5.7997,5.7997,5.7997,5.7997,5.7997,5.7997,5.8327,5.9148,0.0,0.0,0.0,0.0,0.0,0.0,0.0,0.0,0.0,0.0,6.5335,6.5885,6.5885,6.5885,6.5885,6.5885,6.5885,6.5885,0.0,0.0,0.0,0.0,0.0,0.0,0.0,0.0,6.8423,0.0,0.0,0.0,0.0,0.0,0.0,0.0,0.0,0.0,0.0,6.7244,6.609,6.6898,6.8359,6.9706,6.9706,7.0283,7.0898,7.0898,7.0898,7.0898,7.0898,7.0898,7.0898,7.0898,7.0898,7.0898,7.0898,7.0898,7.0898,7.0898,7.0898,7.0898,7.0898,7.0898,7.1206,7.2091,7.2976,7.3822,7.463,7.5476,7.6015,7.6015,7.6015,7.6015,7.6015,7.6015,7.6015,7.6015,7.6015,7.6015,7.6015,7.6015,7.6015,7.6015,7.6015,7.6015,7.6015,7.6015,7.6015,7.6015,7.6015,7.6015,7.6015,7.6015,7.6015,7.6015,7.6015,7.6015,7.6015,7.6015,7.6015,7.6015,0.0,0.0,0.0,0.0,0.0,0.0,0.0,5.7997,5.7997,5.7997,5.7997,5.7997,5.7997,5.7997,5.823,5.881,0.0,0.0,0.0,0.0,0.0,0.0,0.0,0.0,0.0,6.5035,6.535,6.5897,6.5897,6.5897,6.5897,6.5897,6.5897,6.5897,6.5897,6.5897,0.0,0.0,0.0,0.0,0.0,6.7513,6.759,0.0,0.0,0.0,0.0,0.0,0.0,0.0,0.0,0.0,0.0,0.0,0.0,6.6859,6.7898,6.8936,6.9552,7.0283,7.0898,7.0898,7.0898,7.0898,7.0898,7.0898,7.0898,7.0898,7.0898,7.0898,7.0898,7.0898,7.0898,7.0898,7.0898,7.0898,7.0898,7.0898,7.1206,7.2091,7.3437,7.4668,7.5515,7.5822,7.6015,7.6015,7.6015,7.6015,7.6015,7.6015,7.6015,7.6015,7.6015,7.6015,7.6015,7.6015,7.6015,7.6015,7.6015,7.6015,7.6015,7.6015,7.6015,7.6015,7.6015,7.6015,7.6015,7.6015,7.6015,7.6015,7.6015,7.6015,7.6015,7.6015,7.6015,7.6015,0.0,0.0,0.0,0.0,0.0,0.0,0.0,5.7997,5.7997,5.7997,5.7997,5.7997,5.7997,5.8164,5.8375,5.8693,0.0,0.0,0.0,0.0,0.0,0.0,0.0,0.0,6.5099,6.5099,6.535,6.5897,6.5897,6.5897,6.5897,6.5897,6.5897,6.5897,6.5897,6.5897,0.0,0.0,0.0,0.0,6.6436,6.6628,6.6705,0.0,0.0,0.0,0.0,0.0,0.0,0.0,0.0,0.0,0.0,0.0,0.0,0.0,6.7705,6.859,6.9475,7.0283,7.0898,7.0898,7.0898,7.0898,7.0898,7.0898,7.0898,7.0898,7.0898,7.0898,7.0898,7.0898,7.0898,7.0898,7.0898,7.0898,7.0898,7.0898,7.136,7.2552,7.363,7.4707,7.5899,7.6015,7.6015,7.6015,7.6015,7.6015,7.6015,7.6015,7.6015,7.6015,7.6015,7.6015,7.6015,7.6015,7.6015,7.6015,7.6015,7.6015,7.6015,7.6015,7.6015,7.6015,7.6015,7.6015,0.0,7.6015,7.6015,7.6015,7.6015,7.6015,7.6015,7.6015,7.6015,7.6015,0.0,0.0,0.0,0.0,0.0,0.0,0.0,0.0,5.7997,5.7997,5.7997,5.7997,5.7997,5.8418,5.8696,5.8773,0.0,0.0,0.0,0.0,0.0,0.0,0.0,0.0,6.5146,6.5146,6.5403,6.5897,6.5897,6.5897,6.5897,6.5897,6.5897,6.5897,6.5897,6.5897,6.5897,0.0,0.0,0.0,6.5897,6.5897,0.0,0.0,0.0,0.0,0.0,0.0,0.0,0.0,0.0,0.0,0.0,0.0,0.0,0.0,0.0,0.0,0.0,7.0321,7.0898,7.0898,7.0898,7.0898,7.0898,7.0898,0.0,7.0898,7.0898,7.0898,7.0898,7.0898,7.0898,7.0898,7.0898,7.0898,7.0898,7.0937,7.1629,7.3322,7.3553,7.4207,7.5822,7.6015,7.6015,7.6015,7.6015,7.6015,7.6015,7.6015,7.6015,7.6015,7.6015,7.6015,7.6015,7.6015,7.6015,7.6015,7.6015,7.6015,7.6015,7.6015,7.6015,7.6015,7.6015,7.6015,7.6015,7.6015,7.6015,7.6015,7.6015,7.6015,7.6015,7.6015,7.6015,7.6015,0.0,0.0,0.0,0.0,0.0,0.0,0.0,0.0,0.0,0.0,5.7997,5.7997,5.7997,5.8418,5.8835,0.0,0.0,0.0,0.0,0.0,0.0,0.0,0.0,0.0,6.5703,6.5703,6.5781,6.5897,6.5897,6.5897,6.5897,6.5897,6.5897,6.5897,6.5897,6.5897,6.5897,6.5897,0.0,0.0,6.5897,6.5897,0.0,0.0,0.0,0.0,6.609,6.6167,0.0,0.0,0.0,0.0,0.0,0.0,0.0,0.0,6.8244,6.8744,7.0206,0.0,7.0898,7.0898,7.0898,7.0898,0.0,7.0898,7.0898,7.0898,7.0898,7.0898,7.0898,7.0898,7.0898,7.0898,7.0898,7.0898,7.0898,7.1475,7.2283,7.336,7.4053,7.4822,7.5899,7.6015,7.6015,7.6015,7.6015,7.6015,7.6015,7.6015,7.6015,7.6015,7.6015,7.6015,7.6015,7.6015,7.6015,7.6015,7.6015,7.6015,7.6015,7.6015,7.6015,7.6015,7.6015,7.6015,7.6015,7.6015,7.6015,7.6015,7.6015,7.6015,7.6015,7.6015,7.6015,7.6015,0.0,0.0,0.0,0.0,0.0,0.0,0.0,0.0,0.0,0.0,0.0,0.0,0.0,0.0,0.0,0.0,0.0,0.0,0.0,0.0,0.0,0.0,0.0,6.5897,6.5897,6.5897,6.5897,6.5897,6.5897,6.5897,6.5897,6.5897,6.5897,6.5897,6.5897,6.5897,6.5897,6.5897,6.5897,6.5897,6.5897,0.0,0.0,0.0,0.0,0.0,6.5897,6.5897,0.0,6.5897,6.5897,6.5897,0.0,0.0,0.0,0.0,6.809,6.8706,6.9975,7.0629,7.0898,7.0898,7.0898,7.0898,7.0898,7.0898,7.0898,7.0898,7.0898,7.0898,7.0898,7.0898,7.0898,7.0898,7.0898,7.0898,7.0898,7.1629,7.2514,7.3399,7.4207,7.5053,7.5938,7.6015,7.6015,7.6015,7.6015,7.6015,7.6015,7.6015,7.6015,7.6015,7.6015,7.6015,7.6015,7.6015,7.6015,7.6015,7.6015,7.6015,7.6015,7.6015,7.6015,7.6015,7.6015,7.6015,7.6015,7.6015,7.6015,7.6015,7.6015,7.6015,7.6015,7.6015,7.6015,7.6015,0.0,0.0,0.0,0.0,0.0,0.0,0.0,0.0,0.0,0.0,0.0,0.0,0.0,0.0,0.0,0.0,0.0,0.0,0.0,0.0,0.0,0.0,6.5051,6.5897,6.5897,6.5897,6.5897,6.5897,6.5897,6.5897,6.5897,6.5897,6.5897,6.5897,6.5897,6.5897,6.5897,6.5897,6.5897,6.5897,6.5897,0.0,0.0,0.0,0.0,0.0,0.0,0.0,0.0,6.5897,6.5897,6.5897,6.5897,0.0,0.0,0.0,0.0,0.0,6.9475,7.0283,7.0898,7.0898,7.0898,7.0898,7.0898,7.0898,7.0898,7.0898,7.0898,7.0898,7.0898,7.0898,7.0898,7.0898,7.0898,7.0898,7.0898,7.1745,7.2668,7.3399,7.4322,7.5207,7.5938,7.6015,7.6015,7.6015,7.6015,7.6015,7.6015,7.6015,7.6015,7.6015,7.6015,7.6015,7.6015,7.6015,7.6015,7.6015,7.6015,7.6015,7.6015,7.6015,7.6015,7.6015,7.6015,7.6015,7.6015,7.6015,7.6015,7.6015,7.6015,7.6015,7.6015,7.6015,7.6015,7.6015,0.0,0.0,0.0,0.0,0.0,0.0,0.0,0.0,0.0,0.0,0.0,0.0,0.0,0.0,0.0,0.0,0.0,0.0,0.0,0.0,0.0,6.4397,6.5359,6.5897,6.5897,6.5897,6.5897,6.5897,6.5897,6.5897,6.5897,6.5897,6.5897,6.5897,6.5897,6.5897,6.5897,6.5897,6.5897,6.5897,6.5897,0.0,0.0,0.0,0.0,0.0,0.0,0.0,0.0,6.5897,6.5897,6.5897,6.5897,0.0,0.0,0.0,0.0,0.0,6.9475,7.0283,7.0898,7.0898,7.0898,7.0898,7.0898,7.0898,7.0898,7.0898,7.0898,7.0898,7.0898,7.0898,7.0898,7.0898,7.0898,7.0898,7.0898,7.2283,7.336,7.3462,7.4861,7.5861,7.5976,7.6015,7.6015,7.6015,7.6015,7.6015,7.6015,7.6015,7.6015,7.6015,7.6015,7.6015,7.6015,7.6015,7.6015,7.6015,7.6015,7.6015,7.6015,7.6015,7.6015,7.6015,7.6015,7.6015,7.6015,7.6015,7.6015,7.6015,7.6015,7.6015,7.6015,7.6015,7.6015,7.6015,0.0,0.0,0.0,0.0,0.0,0.0,0.0,0.0,0.0,0.0,0.0,0.0,0.0,0.0,0.0,0.0,0.0,0.0,0.0,0.0,6.482,6.5282,6.5705,6.5897,6.5897,6.5897,6.5897,6.5897,6.5897,6.5897,6.5897,6.5897,6.5897,6.5897,6.5897,6.5897,6.5897,6.5897,6.5897,6.5897,0.0,0.0,0.0,0.0,0.0,0.0,0.0,0.0,0.0,0.0,6.5897,6.5897,6.5897,0.0,0.0,0.0,0.0,0.0,6.8783,6.9629,7.036,7.0783,7.0898,7.0898,7.0898,7.0898,7.0898,7.0898,7.0898,7.0898,7.0898,7.0898,7.0898,7.0898,7.0898,7.0898,7.0898,7.2399,7.3514,7.3514,7.4976,7.6015,7.6015,7.6015,7.6015,7.6015,7.6015,7.6015,7.6015,7.6015,7.6015,7.6015,7.6015,7.6015,7.6015,7.6015,7.6015,7.6015,7.6015,7.6015,7.6015,7.6015,7.6015,7.6015,7.6015,7.6015,7.6015,7.6015,7.6015,7.6015,7.6015,7.6015,7.6015,7.6015,7.6015,7.6015,0.0,0.0,0.0,0.0,0.0,0.0,0.0,0.0,0.0,0.0,0.0,0.0,0.0,0.0,0.0,0.0,0.0,0.0,0.0,6.4897,6.5205,6.5859,6.5897,6.5897,6.5897,6.5897,6.5897,6.5897,6.5897,6.5897,6.5897,6.5897,6.5897,6.5897,6.5897,6.5897,6.5897,6.5897,6.5897,6.5897,0.0,0.0,0.0,0.0,0.0,0.0,0.0,0.0,0.0,0.0,0.0,0.0,0.0,0.0,0.0,6.5897,6.6474,6.7244,6.7898,6.8898,6.986,7.0475,7.0744,7.0898,7.0898,7.0898,7.0898,7.0898,7.0898,7.0898,7.0898,7.0898,7.0898,7.0898,7.0898,7.0975,7.1168,7.2552,7.3591,7.3783,7.5091,7.6015,7.6015,7.6015,7.6015,7.6015,7.6015,7.6015,7.6015,7.6015,7.6015,7.6015,7.6015,7.6015,7.6015,7.6015,7.6015,7.6015,7.6015,7.6015,7.6015,7.6015,7.6015,7.6015,7.6015,7.6015,7.6015,7.6015,7.6015,7.6015,7.6015,7.6015,7.6015,7.6015,7.6015,7.6015,0.0,0.0,0.0,0.0,0.0,0.0,0.0,0.0,0.0,0.0,0.0,0.0,0.0,0.0,0.0,0.0,0.0,0.0,0.0,6.582,6.582,6.5897,6.5897,6.5897,6.5897,6.5897,6.5897,6.5897,6.5897,6.5897,6.5897,6.5897,6.5897,6.5897,6.5897,6.5897,6.5897,6.5897,6.5897,6.5897,6.5897,0.0,0.0,0.0,0.0,0.0,0.0,0.0,0.0,0.0,0.0,0.0,0.0,0.0,6.5897,6.5897,6.6474,6.709,6.7167,6.8436,6.9706,6.9783,7.036,7.0898,7.0898,7.0898,7.0898,7.0898,7.0898,7.0898,7.0898,7.0898,7.0898,7.0898,7.0898,7.1168,7.1975,7.2899,7.3783,7.4514,7.5438,7.6015,7.6015,7.6015,7.6015,7.6015,7.6015,7.6015,7.6015,7.6015,7.6015,7.6015,7.6015,7.6015,7.6015,7.6015,7.6015,7.6015,7.6015,7.6015,7.6015,7.6015,7.6015,7.6015,7.6015,7.6015,7.6015,7.6015,7.6015,7.6015,7.6015,7.6015,7.6015,7.6015,7.6015,7.6015,0.0,0.0,0.0,0.0,0.0,0.0,0.0,0.0,0.0,0.0,0.0,0.0,0.0,0.0,0.0,0.0,0.0,0.0,0.0,6.5897,6.5897,6.5897,6.5897,6.5897,6.5897,6.5897,6.5897,6.5897,6.5897,6.5897,6.5897,6.5897,6.5897,6.5897,6.5897,6.5897,6.5897,6.5897,6.5897,6.5897,6.5897,6.5897,0.0,0.0,0.0,0.0,0.0,0.0,0.0,0.0,6.5897,6.5897,6.5897,6.5897,6.5897,6.5897,6.6128,6.6436,6.6974,6.759,6.8321,6.9436,6.9937,7.0283,7.0783,7.0898,7.0898,7.0898,7.0898,7.0898,7.0898,7.0898,7.0898,7.0898,7.0898,7.1206,7.2091,7.2937,7.3822,7.4591,7.5476,7.6015,7.6015,7.6015,7.6015,7.6015,7.6015,7.6015,7.6015,7.6015,7.6015,7.6015,7.6015,7.6015,7.6015,7.6015,7.6015,7.6015,7.6015,7.6015,7.6015,7.6015,7.6015,7.6015,7.6015,7.6015,7.6015,7.6015,7.6015,7.6015,7.6015,7.6015,7.6015,7.6015,7.6015,7.6015,0.0,0.0,0.0,0.0,0.0,0.0,0.0,0.0,0.0,0.0,0.0,0.0,0.0,0.0,0.0,0.0,0.0,0.0,6.5885,6.5897,6.5897,6.5897,6.5897,6.5897,6.5897,6.5897,6.5897,6.5897,6.5897,6.5897,6.5897,6.5897,6.5897,6.5897,6.5897,6.5897,6.5897,6.5897,6.5897,6.5897,6.5897,6.5897,0.0,0.0,0.0,0.0,0.0,0.0,0.0,0.0,6.5897,6.5897,6.5897,6.5897,6.5897,6.5897,6.5897,6.6013,6.6551,6.6898,6.7398,6.859,6.9283,6.986,7.0398,7.0706,7.0898,7.0898,7.0898,7.0898,7.0898,7.0898,7.0898,7.0898,7.0898,7.1283,7.2437,7.3129,7.3899,7.4976,7.563,7.6015,7.6015,7.6015,7.6015,7.6015,7.6015,7.6015,7.6015,7.6015,7.6015,7.6015,7.6015,7.6015,7.6015,7.6015,7.6015,7.6015,7.6015,7.6015,7.6015,7.6015,7.6015,7.6015,7.6015,7.6015,7.6015,7.6015,7.6015,7.6015,7.6015,7.6015,7.6015,7.6015,7.6015,7.6053,0.0,0.0,0.0,0.0,0.0,0.0,0.0,0.0,0.0,0.0,0.0,0.0,0.0,0.0,0.0,0.0,0.0,0.0,6.5885,6.5897,6.5897,6.5897,6.5897,6.5897,6.5897,6.5897,6.5897,6.5897,6.5897,6.5897,6.5897,6.5897,6.5897,6.5897,6.5897,6.5897,6.5897,6.5897,6.5897,6.5897,6.5897,6.5897,6.5897,0.0,0.0,0.0,0.0,0.0,0.0,0.0,6.5897,6.5897,6.5897,6.5897,6.5897,6.5897,6.5897,6.5897,6.5897,6.6474,6.709,6.709,6.8398,6.9667,6.9706,7.0321,7.0898,7.0898,7.0898,7.0898,7.0898,7.0898,7.0898,7.0898,7.0898,7.1514,7.3245,7.3514,7.413,7.5784,7.6015,7.6015,7.6015,7.6015,7.6015,7.6015,7.6015,7.6015,7.6015,7.6015,7.6015,7.6015,7.6015,7.6015,7.6015,7.6015,7.6015,7.6015,7.6015,7.6015,7.6015,7.6015,7.6015,7.6015,7.6015,7.6015,7.6015,7.6015,7.6015,7.6015,7.6015,7.6015,7.6015,7.6015,7.6015,7.613,0.0,0.0,0.0,0.0,0.0,0.0,0.0,0.0,0.0,0.0,0.0,0.0,0.0,0.0,0.0,0.0,0.0,0.0,6.5897,6.5897,6.5897,6.5897,6.5897,6.5897,6.5897,6.5897,6.5897,6.5897,6.5897,6.5897,6.5897,6.5897,6.5897,6.5897,6.5897,6.5897,6.5897,6.5897,6.5897,6.5897,6.5897,6.5897,6.5897,0.0,0.0,0.0,0.0,0.0,0.0,0.0,0.0,0.0,6.5897,6.5897,6.5897,6.5897,6.5897,6.5897,6.5897,6.6051,6.6397,6.6974,6.7475,6.8205,6.9436,7.0321,7.0898,7.0898,7.0898,7.0898,7.0898,7.0898,7.0898,7.0898,7.0898,7.1514,7.3245,7.3514,7.413,7.5784,7.6015,7.6015,7.6015,7.6015,7.6015,7.6015,7.6015,7.6015,7.6015,7.6015,7.6015,7.6015,7.6015,7.6015,7.6015,7.6015,7.6015,7.6015,7.6015,7.6015,7.6015,7.6015,7.6015,7.6015,7.6015,7.6015,7.6015,7.6015,7.6015,7.6015,7.6015,7.6015,7.6015,7.6015,7.6399,7.6938,0.0,0.0,0.0,0.0,0.0,0.0,0.0,0.0,0.0,0.0,6.3937,6.4332,0.0,0.0,0.0,0.0,0.0,0.0,6.5897,6.5897,6.5897,6.5897,6.5897,6.5897,6.5897,6.5897,6.5897,6.5897,6.5897,6.5897,6.5897,6.5897,6.5897,6.5897,6.5897,6.5897,6.5897,6.5897,6.5897,6.5897,6.5897,6.5897,6.5897,0.0,0.0,0.0,0.0,0.0,0.0,0.0,0.0,0.0,6.5897,6.5897,6.5897,6.5897,6.5897,6.5897,6.5897,6.5897,6.6013,6.6513,6.6859,6.7475,6.8859,7.009,7.0898,7.0898,7.0898,7.0898,7.0898,7.0898,7.0898,7.0898,7.0898,7.1514,7.3245,7.3514,7.413,7.5784,7.6015,7.6015,7.6015,7.6015,7.6015,7.6015,7.6015,7.6015,7.6015,7.6015,7.6015,7.6015,7.6015,7.6015,7.6015,7.6015,7.6015,7.6015,7.6015,7.6015,7.6015,7.6015,7.6015,7.6015,7.6015,7.6015,7.6015,7.6015,7.6015,7.6015,7.6015,7.6015,7.6053,7.6399,7.6861,7.74,0.0,0.0,0.0,0.0,0.0,0.0,0.0,0.0,0.0,0.0,6.4518,6.5115,0.0,0.0,0.0,0.0,0.0,0.0,0.0,6.5897,6.5897,6.5897,6.5897,6.5897,6.5897,6.5897,6.5897,6.5897,6.5897,6.5897,6.5897,6.5897,6.5897,6.5897,6.5897,6.5897,6.5897,6.5897,6.5897,6.591,6.5897,6.5909,6.5909,6.5946,0.0,0.0,0.0,0.0,0.0,0.0,0.0,0.0,6.5897,6.5897,6.5897,6.5897,6.5897,6.5897,6.5897,6.5897,6.5897,6.5897,6.6513,6.7321,6.809,6.959,7.0783,7.0783,7.086,7.0898,7.0898,7.0898,7.0898,7.0898,7.0975,7.1591,7.3283,7.3553,7.4207,7.5822,7.6015,7.6015,7.6015,7.6015,7.6015,7.6015,7.6015,7.6015,7.6015,7.6015,7.6015,7.6015,7.6015,7.6015,7.6015,7.6015,7.6015,7.6015,7.6015,7.6015,7.6015,7.6015,7.6015,7.6015,7.6015,7.6015,7.6015,7.6015,7.6015,7.6015,7.6015,7.6053,7.6207,7.7015,7.74,7.7746,0.0,0.0,0.0,0.0,0.0,0.0,0.0,0.0,0.0,0.0,0.0,0.0,0.0,0.0,0.0,0.0,0.0,0.0,0.0,6.5897,6.5897,6.5897,6.5897,6.5897,6.5897,6.5897,6.5897,6.5897,6.5897,6.5897,6.5897,6.5897,6.5897,6.5897,6.5897,6.5897,6.5897,6.5897,6.5897,6.5923,6.6014,6.6059,6.6089,6.6243,6.6307,0.0,0.0,0.0,0.0,0.0,0.0,0.0,6.5897,6.5897,6.5897,6.5897,6.5897,6.5897,6.5897,6.5897,6.5897,6.5897,6.6513,6.7128,6.7321,6.8706,6.9975,6.9975,7.0475,7.0898,7.0898,7.0898,7.0898,7.0898,7.1475,7.2283,7.336,7.4053,7.4822,7.5861,7.6015,7.6015,7.6015,7.6015,7.6015,7.6015,7.6015,7.6015,7.6015,7.6015,7.6015,7.6015,7.6015,7.6015,7.6015,7.6015,7.6015,7.6015,7.6015,7.6015,7.6015,7.6015,7.6015,7.6015,7.6015,7.6015,7.6015,7.6015,7.6015,7.6015,7.6015,7.6399,7.7053,7.7207,7.813,7.9323,0.0,0.0,0.0,0.0,0.0,0.0,0.0,0.0,0.0,0.0,0.0,0.0,0.0,0.0,0.0,0.0,0.0,0.0,0.0,0.0,6.5897,6.5897,6.5897,6.5897,6.5897,6.5897,6.5897,6.5897,6.5897,6.5897,6.5897,6.5897,6.5897,6.5897,6.5897,6.5897,6.5897,6.5897,6.5897,6.5897,6.6039,6.6109,6.6137,6.632,6.6387,6.6387,6.6387,0.0,0.0,0.0,0.0,0.0,0.0,0.0,6.6008,6.6008,6.5943,6.5897,6.5897,6.5897,6.5897,6.5897,6.6205,6.6513,6.6513,6.7859,6.909,6.909,7.0052,7.0898,7.0898,7.0898,7.0898,7.0898,7.1629,7.2514,7.3399,7.4207,7.5014,7.5899,7.6015,7.6015,7.6015,7.6015,7.6015,7.6015,7.6015,7.6015,7.6015,7.6015,7.6015,7.6015,7.6015,7.6015,7.6015,7.6015,7.6015,7.6015,7.6015,7.6015,7.6015,7.6015,7.6015,7.6015,7.6015,7.6015,7.6015,7.6015,7.6015,7.6053,7.6476,7.6899,7.74,7.8207,7.9054,7.9862,0.0,0.0,0.0,0.0,0.0,0.0,0.0,0.0,0.0,0.0,0.0,0.0,0.0,0.0,0.0,0.0,0.0,0.0,0.0,0.0,0.0,6.5897,6.5897,6.5897,6.5897,6.5897,6.5897,6.5897,6.5897,6.5897,6.5897,6.5897,6.5897,6.5897,6.5897,6.5897,6.5897,6.5897,6.5897,6.5897,6.6089,6.6135,6.6161,6.6399,6.6507,6.6507,6.6507,6.6452,6.6429,6.6429,0.0,0.0,0.0,0.0,6.6109,6.6109,6.6024,6.5933,6.5923,6.5897,6.5897,6.5897,6.5897,6.5897,6.5897,6.709,6.8244,6.8359,6.9744,7.0898,7.0898,7.0898,7.0898,7.0898,7.1745,7.2668,7.3399,7.4322,7.5207,7.5899,7.6015,7.6015,7.6015,7.6015,7.6015,7.6015,7.6015,7.6015,7.6015,7.6015,7.6015,7.6015,7.6015,7.6015,7.6015,7.6015,7.6015,7.6015,7.6015,7.6015,7.6015,7.6015,7.6015,7.6015,7.6015,7.6015,7.6015,7.6015,7.6092,7.6284,7.7015,7.7476,7.79,7.9285,7.99,8.0131,0.0,0.0,0.0,0.0,0.0,0.0,0.0,0.0,0.0,0.0,6.5569,6.5897,0.0,0.0,0.0,0.0,0.0,0.0,0.0,0.0,0.0,6.5897,6.5897,6.5897,6.5897,6.5897,6.5897,6.5897,6.5897,6.5897,6.5897,6.5897,6.5897,6.5897,6.5897,6.5897,6.5897,6.5897,6.5897,6.5921,6.6243,6.6354,6.6387,6.6722,6.6831,6.6831,6.6831,6.6731,6.656,6.656,6.6493,0.0,0.0,0.0,6.6109,6.6109,6.609,6.6049,6.5946,6.5897,6.5897,6.5897,6.5897,6.5897,6.5897,6.659,6.7475,6.8244,6.9744,7.0898,7.0898,7.0898,7.0898,7.0898,7.2283,7.336,7.3462,7.4861,7.5861,7.5976,7.6015,7.6015,7.6015,7.6015,7.6015,7.6015,7.6015,7.6015,7.6015,7.6015,7.6015,7.6015,7.6015,7.6015,7.6015,7.6015,7.6015,7.6015,7.6015,7.6015,7.6015,7.6015,7.6015,7.6015,7.6015,7.6015,7.6015,7.6015,7.6438,7.713,7.7246,7.8207,7.9477,7.9708,8.0285,8.0939,0.0,0.0,0.0,0.0,0.0,0.0,0.0,0.0,0.0,0.0,0.0,6.6051,0.0,0.0,0.0,6.7244,0.0,0.0,0.0,0.0,0.0,6.7321,6.6821,6.6551,6.6551,6.6128,6.5897,6.5897,6.5897,6.5897,6.5897,6.5897,6.5897,6.5897,6.5897,6.5897,6.5897,6.5897,6.5897,6.5921,6.6275,6.6387,6.6423,6.6781,6.6914,6.6914,6.6914,6.6833,6.6784,6.6784,6.6733,6.667,6.667,0.0,0.0,0.0,6.6347,6.622,6.6049,6.6014,6.6008,6.5909,6.5897,6.5897,6.5897,6.6513,6.7359,6.8244,6.936,7.036,7.0821,7.0898,7.0898,7.0898,7.236,7.3514,7.3514,7.4938,7.6015,7.6015,7.6015,7.6015,7.6015,7.6015,7.6015,7.6015,7.6015,7.6015,7.6015,7.6015,7.6015,7.6015,7.6015,7.6015,7.6015,7.6015,7.6015,7.6015,7.6015,7.6015,7.6015,7.6015,7.6015,7.6015,7.6015,7.6015,7.6053,7.6515,7.6938,7.74,7.8323,7.9169,7.9862,8.0362,8.0785,8.1093,0.0,0.0,0.0,0.0,0.0,0.0,0.0,0.0,0.0,0.0,0.0,0.0,0.0,0.0,0.0,0.0,6.8385,0.0,0.0,0.0,0.0,6.8385,6.7782,6.7436,6.7436,6.6821,6.6436,6.6205,6.6205,6.609,6.5897,6.5897,6.5897,6.5897,6.5897,6.5909,6.5943,6.5943,6.599,6.6074,6.6327,6.6446,6.6473,6.6784,6.6914,6.6914,6.6914,6.6914,6.6914,6.6914,6.6914,6.6914,6.6914,6.6745,0.0,0.0,0.0,6.6368,6.6275,6.6204,6.6146,6.5986,6.5943,6.5931,6.5923,6.6359,6.709,6.8167,6.8936,6.9667,7.0706,7.0898,7.0898,7.0898,7.236,7.3514,7.3514,7.4938,7.6015,7.6015,7.6015,7.6015,7.6015,7.6015,7.6015,7.6015,7.6015,7.6015,7.6015,7.6015,7.6015,7.6015,7.6015,7.6015,7.6015,7.6015,7.6015,7.6015,7.6015,7.6015,7.6015,7.6015,7.6015,7.6015,7.6015,7.613,7.6361,7.7015,7.7553,7.8054,7.9323,7.9939,8.0208,8.0862,8.1093,8.1093,0.0,0.0,0.0,0.0,0.0,0.0,0.0,0.0,0.0,0.0,0.0,0.0,6.8244,6.8321,6.8359,6.8385,6.8385,6.8385,6.8385,6.8385,0.0,6.8385,6.8359,0.0,6.8321,6.8269,6.7859,6.7051,6.7051,6.6628,6.5897,6.5897,6.5897,6.5897,6.5897,6.5951,6.609,6.609,6.6187,6.6374,6.6529,6.6571,6.6619,6.6831,6.6914,6.6914,6.6914,6.6914,6.6914,6.6914,6.6914,6.6914,6.6914,6.6745,6.6616,0.0,0.0,0.0,6.6537,6.6483,6.6334,6.6156,6.609,6.6059,6.5933,6.5936,6.6436,6.8052,6.8423,6.8975,7.0591,7.0898,7.0898,7.0898,7.236,7.3514,7.3514,7.4938,7.6015,7.6015,7.6015,7.6015,7.6015,7.6015,7.6015,7.6015,7.6015,7.6015,7.6015,7.6015,7.6015,7.6015,7.6015,7.6015,7.6015,7.6015,7.6015,7.6015,7.6015,7.6015,7.6015,7.6015,7.6015,7.6015,7.6015,7.6476,7.7246,7.7284,7.8246,7.9669,7.9785,8.0285,8.1054,8.1093,8.1093,8.1093,0.0,0.0,0.0,0.0,0.0,0.0,0.0,0.0,0.0,0.0,0.0,0.0,0.0,6.9244,6.9436,6.9975,7.0014,7.0014,7.0014,7.0014,0.0,7.0014,6.9513,6.9244,6.9244,6.8706,6.8244,6.7936,6.7936,6.7513,6.6667,6.6667,6.6397,6.5897,6.5897,6.5963,6.6109,6.6109,6.6212,6.6393,6.6452,6.6521,6.6619,6.6685,6.6788,6.6914,6.6914,6.6914,6.6914,6.6914,6.6914,6.6914,6.6914,6.6834,6.6789,6.6789,6.6779,6.6683,6.6622,6.6553,6.6493,6.6334,6.6187,6.609,6.6028,6.5978,6.6397,6.8052,6.8385,6.8898,7.0591,7.0898,7.0898,7.0898,7.1898,7.286,7.3437,7.4476,7.5361,7.5938,7.6015,7.6015,7.6015,7.6015,7.6015,7.6015,7.6015,7.6015,7.6015,7.6015,7.6015,7.6015,7.6015,7.6015,7.6015,7.6015,7.6015,7.6015,7.6015,7.6015,7.6015,7.6015,7.6322,7.6823,7.6823,7.7015,7.7361,7.8477,7.9246,7.9862,8.0439,8.0823,8.1093,8.1093,8.1093,8.1093,0.0,0.0,0.0,0.0,0.0,0.0,0.0,0.0,6.7859,6.8706,0.0,0.0,0.0,0.0,7.0321,7.086,7.0898,7.0898,7.0898,7.0898,7.0898,7.0898,7.0398,7.009,7.009,6.8975,6.8552,6.8859,6.8244,6.7821,6.7552,6.7552,6.7244,6.6744,6.6436,6.6233,6.6119,6.6161,6.6312,6.6468,6.6468,6.658,6.669,6.6628,6.6737,6.6875,6.6832,6.679,6.6788,6.6735,6.674,6.679,6.679,6.6834,6.6914,6.6914,6.6914,6.6874,6.6738,6.6692,6.6675,6.6498,6.6341,6.617,6.6128,6.6008,6.6397,6.8052,6.8385,6.8898,7.0591,7.0898,7.0898,7.0898,7.1629,7.2514,7.3399,7.4207,7.5014,7.5899,7.6015,7.6015,7.6015,7.6015,7.6015,7.6015,7.6015,7.6015,7.6015,7.6015,7.6015,7.6015,7.6015,7.6015,7.6015,7.6015,7.6015,7.6015,7.6015,7.6015,7.6015,7.6284,7.6746,7.7323,7.79,7.813,7.8246,7.9361,7.9977,8.0285,8.0862,8.1093,8.1093,8.1093,8.1093,8.1093,0.0,0.0,0.0,0.0,0.0,0.0,0.0,0.0,6.8744,6.9629,0.0,0.0,0.0,0.0,0.0,7.0898,7.0898,7.0898,7.0898,7.0898,7.0898,7.0898,0.0,0.0,7.0898,6.9321,6.8898,6.9744,6.8052,6.7628,6.8423,6.8423,6.8436,6.8359,6.7513,6.6761,6.6196,6.6344,6.6473,6.6619,6.6616,6.6733,6.6913,6.6719,6.6772,6.6912,6.6717,6.6613,6.6599,6.6441,6.6488,6.6616,6.6619,6.674,6.6914,6.6914,6.6914,6.6914,0.0,0.0,0.0,6.6678,6.6503,6.6347,6.6144,6.5992,6.6372,6.8026,6.8398,6.8898,7.0552,7.0898,7.0898,7.0898,7.1591,7.2476,7.336,7.4168,7.5014,7.5899,7.6015,7.6015,7.6015,7.6015,7.6015,7.6015,7.6015,7.6015,7.6015,7.6015,7.6015,7.6015,7.6015,7.6015,7.6015,7.6015,7.6015,7.6015,7.6015,7.6015,7.6015,7.6899,7.7323,7.7438,7.9092,7.9823,7.9862,7.9862,8.0323,8.1093,8.1093,8.1093,8.1093,8.1093,8.1093,8.1093,0.0,0.0,0.0,0.0,0.0,6.8629,6.9244,6.936,6.9629,0.0,0.0,0.0,7.0898,7.0898,7.0898,7.0898,7.0898,7.0898,7.0898,7.0898,7.0898,7.0898,7.0898,7.0898,7.0898,7.0437,7.0321,7.0552,7.009,6.9667,6.936,6.936,6.9013,6.8385,6.8167,6.7949,6.7702,6.6642,6.6441,6.6789,6.6568,6.6919,6.7612,6.7394,6.7754,6.8242,6.7587,6.7303,6.722,6.6594,6.6488,6.6628,6.6785,6.6873,6.6914,6.6914,6.6914,6.6914,6.6914,0.0,0.0,0.0,0.0,0.0,6.6459,6.626,6.6348,6.7459,6.8061,6.8744,6.9821,7.0514,7.0898,7.0898,7.1091,7.1783,7.3283,7.3707,7.4361,7.5822,7.6015,7.6015,7.6015,7.6015,7.6015,7.6015,7.6015,7.6015,7.6015,7.6015,7.6015,7.6015,7.6015,7.6015,7.6015,7.6015,7.6015,7.6015,7.6015,7.6015,7.6015,7.6899,7.763,7.8207,7.9323,8.0169,8.0746,8.0746,8.09,8.1093,8.1093,8.1093,8.1093,8.1093,8.1093,8.1093,0.0,0.0,0.0,0.0,0.0,6.9629,7.0129,7.0206,7.036,0.0,0.0,0.0,7.0898,7.0898,7.0898,7.0898,7.0898,7.0898,7.0898,7.0898,7.0898,7.0898,7.0898,7.0898,7.0898,7.0206,7.0206,7.0898,7.0206,6.9975,7.0206,7.0206,6.9937,6.9436,6.909,6.8976,6.8945,6.7614,6.726,6.7573,6.7397,6.778,6.8437,6.8232,6.8566,6.9077,6.8486,6.8276,6.8182,6.7571,6.721,6.6997,6.6811,6.6833,6.6914,6.6914,6.6914,6.6914,6.6914,6.6914,6.6914,6.6914,0.0,0.0,6.6525,6.6288,6.6313,6.7128,6.787,6.8667,6.9552,7.036,7.0898,7.0898,7.0898,7.1398,7.2745,7.3283,7.4014,7.5284,7.5784,7.6015,7.6015,7.6015,7.6015,7.6015,7.6015,7.6015,7.6015,7.6015,7.6015,7.6015,7.6015,7.6015,7.6015,7.6015,7.6015,7.6015,7.6015,7.6207,7.6553,7.74,7.8246,7.9092,7.9977,8.0631,8.1093,8.1093,8.1093,8.1093,8.1093,8.1093,8.1093,8.1093,8.1093,8.1093,0.0,0.0,7.0052,7.0783,7.0898,7.0898,7.0898,7.0898,7.0898,0.0,7.0898,7.0898,7.0898,7.0898,7.0898,7.0898,7.0898,7.0898,7.0898,7.0898,7.0898,7.0898,7.0898,7.0898,7.0898,6.9436,6.9398,7.0898,6.9398,6.9436,7.0898,7.0898,7.0898,7.086,7.0167,6.9899,6.9938,6.9052,6.8755,6.8837,6.8674,6.8863,6.9259,6.9059,6.928,6.963,6.9384,6.928,6.9216,6.8854,6.8311,6.7618,6.6974,6.6852,6.6991,6.6914,6.6914,6.6914,6.6914,6.6914,6.6914,6.6914,6.6784,0.0,6.6468,6.6305,6.6322,6.6923,6.7805,6.8693,6.9476,7.0363,7.0979,7.0979,7.094,7.1208,7.2066,7.286,7.3707,7.4591,7.5399,7.5899,7.5976,7.6015,7.6015,7.6015,7.6015,7.6015,7.6015,7.6015,7.6015,7.6015,7.6015,7.6015,7.6015,7.6015,7.6015,7.6015,7.6092,7.6553,7.7323,7.8207,7.9054,7.9862,8.0708,8.1093,8.1093,8.1093,8.1093,8.1093,8.1093,8.1093,8.1093,8.1093,8.1093,8.1093,0.0,7.0667,7.0706,7.086,7.0898,7.0898,7.0898,7.0898,7.0898,7.0898,7.0898,7.0898,7.0898,7.0898,7.0898,7.0898,7.0898,7.0898,7.0898,7.0898,7.0898,7.0898,7.0898,7.0898,7.0898,7.0591,7.0552,7.0898,7.0552,7.0591,7.0898,7.0898,7.0898,7.0898,7.0744,7.0669,7.0684,7.0502,7.0438,7.0324,6.9093,6.9053,6.9756,6.9711,7.0088,7.0556,6.9962,6.9744,6.9675,6.9072,6.8773,6.852,6.7868,0.0,0.0,6.7068,0.0,0.0,0.0,0.0,0.0,0.0,6.6874,0.0,6.6828,6.6667,6.6551,6.6678,6.782,6.8847,6.9034,7.0316,7.1365,7.1365,7.1242,7.1394,7.2094,7.236,7.3014,7.4514,7.4861,7.5245,7.5938,7.6015,7.6015,7.6015,7.6015,7.6015,7.6015,7.6015,7.6015,7.6015,7.6015,7.6015,7.6015,7.6015,7.6015,7.6015,7.6707,7.713,7.7361,7.8861,7.9631,7.9862,8.0708,8.1093,8.1093,8.1093,8.1093,8.1093,8.1093,8.1093,8.1093,8.1093,8.1093,8.1093,7.0898,7.0898,7.0898,7.0898,7.0898,7.0898,7.0898,7.0898,7.0898,7.0898,7.0898,7.0898,7.0898,7.0898,7.0898,7.0898,7.0898,7.0898,7.0898,7.0898,7.0898,7.0898,7.0898,7.0898,7.0898,7.0898,7.0898,7.0898,7.0898,7.0898,7.0898,7.0898,7.0898,7.0898,7.0898,7.0953,7.1038,7.1038,7.1038,7.0961,7.01,7.0076,7.0553,7.0553,7.0824,7.1154,7.0822,7.063,7.0448,6.9755,6.9539,6.939,6.8655,6.8522,6.8615,0.0,6.7807,6.7539,0.0,0.0,0.0,6.6914,0.0,0.0,0.0,6.6683,6.6681,6.7058,6.8082,6.904,6.9468,7.0628,7.1478,7.1478,7.1344,7.1337,7.1792,7.2044,7.2668,7.3937,7.4476,7.5053,7.5938,7.6015,7.6015,7.6015,7.6015,7.6015,7.6015,7.6015,7.6015,7.6015,7.6015,7.6015,7.6015,7.6015,7.6015,7.6015,7.6861,7.7515,7.7938,7.9208,8.0054,8.0477,8.09,8.1093,8.1093,8.1093,8.1093,8.1093,8.1093,8.1093,8.1093,8.1093,8.1093,8.1093,7.0898,7.0898,7.0898,7.0898,7.0898,7.0898,7.0898,7.0898,7.0898,7.0898,7.0898,7.0898,7.0898,7.0898,7.0898,7.0898,7.0898,7.0898,7.0898,7.0898,7.0898,7.0898,7.0898,7.0898,7.0898,7.0898,7.0898,7.0898,7.0898,7.0898,7.0898,7.0898,7.0898,7.0898,7.0898,7.0979,7.1137,7.119,7.1268,7.1396,7.1274,7.1157,7.1148,7.1201,7.128,7.1373,7.1412,7.134,7.1173,7.0625,7.0434,7.031,6.946,6.9419,0.0,0.0,0.0,0.0,0.0,0.0,0.0,0.0,0.0,6.7342,0.0,0.0,0.0,6.7906,6.866,6.944,7.0185,7.0998,7.1499,7.1188,7.1233,7.124,7.1083,7.162,7.2418,7.3432,7.4095,7.4861,7.5899,7.6015,7.6015,7.6015,7.6015,7.6015,7.6015,7.6015,7.6015,7.6015,7.6015,7.6015,7.6015,7.6015,7.6092,7.6245,7.713,7.7938,7.8784,7.9669,8.0439,8.1093,8.1131,8.1176,8.1176,8.121,8.12,8.1186,8.1116,8.11,8.1176,8.1176,8.1176,8.1137,7.0898,7.0898,7.0898,7.0898,7.0898,7.0898,7.0898,7.0898,7.0898,7.0898,7.0898,7.0898,7.0898,7.0898,7.0898,7.0898,7.0898,7.0898,7.0898,7.0898,7.0898,7.0898,7.0898,7.0898,7.0898,7.0898,7.0898,7.0898,7.0898,7.0898,7.0898,7.0898,7.0898,7.0898,7.0898,7.0925,7.094,7.1115,7.1533,7.2109,7.2279,7.1769,7.0953,7.1126,7.112,7.0979,7.118,7.1344,7.1449,7.14,7.1368,7.1232,0.0,7.0359,7.023,6.9565,0.0,0.0,0.0,0.0,0.0,0.0,6.914,0.0,0.0,0.0,6.9178,6.9216,0.0,7.0543,7.0621,0.0,0.0,6.9957,7.0816,7.1113,6.9678,7.0686,7.2116,7.3513,7.3665,7.4245,7.5861,7.6015,7.6015,7.6015,7.6015,7.6015,7.6015,7.6015,7.6015,7.6015,7.6015,7.6015,7.6015,7.6015,7.6399,7.7169,7.7977,7.8823,7.9669,8.0554,8.1016,8.1108,8.1298,8.1359,8.1371,8.1553,8.1645,8.1609,8.1256,8.12,8.1359,8.1359,8.1359,8.1395,7.0898,7.0898,7.0898,7.0898,7.0898,7.0898,7.0898,7.1321,7.1629,7.1629,7.2091,7.2399,7.2399,7.2399,7.2399,7.2399,7.1937,7.186,7.2399,7.1937,7.1629,7.1629,7.1629,7.1398,7.0898,7.0898,7.0898,7.0898,7.0898,7.0966,7.1074,7.1074,7.1126,7.1233,7.1115,7.1407,7.193,7.1929,7.2386,7.3106,7.3307,7.2971,7.2412,7.2521,7.2482,7.2412,7.2482,7.258,7.2678,0.0,7.2857,0.0,0.0,0.0,0.0,7.1487,0.0,0.0,0.0,0.0,0.0,0.0,0.0,0.0,6.9374,0.0,6.9609,0.0,0.0,0.0,0.0,0.0,0.0,0.0,7.1386,7.1513,7.0922,7.1204,7.1916,7.2988,7.351,7.4436,7.603,7.6172,7.6134,7.5991,7.6108,7.6134,7.6029,7.6015,7.6015,7.6015,7.6015,7.6015,7.6015,7.6015,7.6438,7.7323,7.813,7.8977,7.9823,8.0828,8.1271,8.1298,8.1501,8.1582,8.1582,8.1687,8.1688,8.1664,8.1504,8.1522,8.1582,8.1582,8.1582,8.1591,7.1629,7.1437,7.1321,7.1591,7.1629,7.1629,7.1629,7.2168,7.2552,7.2552,7.3129,7.3514,7.3514,7.3514,7.3514,7.3514,7.2937,7.2822,7.3476,7.2899,7.2552,7.2552,7.2552,0.0,7.1283,7.13,7.1236,7.0966,7.1053,7.1137,7.129,7.1523,7.1728,7.1867,7.1881,7.2337,7.2982,7.288,7.3259,7.3976,7.4207,7.4231,7.413,7.3668,7.3514,7.3514,7.3514,7.3514,7.3532,7.3667,7.3782,0.0,7.3791,7.3646,7.3434,0.0,0.0,0.0,7.1671,0.0,0.0,0.0,0.0,0.0,0.0,0.0,0.0,0.0,0.0,0.0,0.0,0.0,0.0,0.0,0.0,7.1659,7.1328,7.1474,7.1905,7.2678,7.3723,7.4888,7.6264,7.6371,7.6295,7.612,7.6207,7.6207,7.5991,7.6015,7.6015,7.6015,7.6015,7.6015,7.6015,7.6245,7.6784,7.763,7.8438,7.9323,8.0185,8.1028,8.1407,8.1391,8.1648,8.176,8.1805,8.185,8.1867,8.1867,8.1867,8.1867,8.1861,8.1819,8.176,8.1805,7.3437,7.2745,7.2399,7.3283,7.3437,7.3437,7.3437,7.3437,7.3476,7.3476,7.3462,7.3514,7.3514,7.3514,7.3514,7.3514,7.3476,7.3476,7.3514,7.3476,7.3476,7.3476,7.3476,7.3053,0.0,0.0,0.0,7.1201,7.1403,7.1464,7.151,7.2334,7.2769,7.2808,7.3442,7.3721,7.376,7.37,7.406,7.4672,7.4893,7.5374,7.5745,7.413,7.3514,7.3514,7.3514,7.3514,0.0,7.3667,7.3689,0.0,0.0,0.0,0.0,0.0,0.0,0.0,0.0,0.0,0.0,7.3123,0.0,0.0,0.0,0.0,7.1914,0.0,0.0,0.0,0.0,0.0,0.0,0.0,0.0,0.0,0.0,7.0937,7.2219,7.2899,7.4338,7.5602,7.6497,7.6575,7.6518,7.6295,7.6295,7.6207,7.5991,7.6015,7.6015,7.6015,7.6015,7.6015,7.6015,7.6823,7.7669,7.8477,7.9323,8.0208,8.107,8.1298,8.1407,8.1403,8.1831,8.1988,8.1996,8.2218,8.2265,8.2265,8.2265,8.2265,8.2264,8.2059,8.1988,8.2,7.4207,7.4053,7.3783,7.3553,7.3514,7.3514,7.3514,7.3976,7.4284,7.4284,7.4822,7.5168,7.5168,7.5168,7.5168,7.5168,7.463,7.4553,7.513,7.463,7.4284,7.4284,7.4284,7.3899,0.0,0.0,0.0,7.2936,7.2987,7.3138,7.3358,7.3631,7.3864,7.3989,7.409,7.4392,7.4792,7.4635,7.4949,7.5568,7.5642,7.5821,7.5938,7.5361,7.5168,7.5168,7.5168,7.5168,0.0,7.5193,7.5309,7.5421,7.5357,7.512,7.4833,7.4712,7.4347,7.4007,0.0,0.0,7.3518,7.3882,0.0,0.0,0.0,0.0,0.0,0.0,0.0,0.0,0.0,0.0,0.0,0.0,0.0,0.0,0.0,7.164,7.2499,7.3899,7.4386,7.5216,7.6663,7.669,7.6535,7.6306,7.6295,7.6207,7.5991,7.6015,7.6015,7.6015,7.6015,7.6015,7.6015,7.6861,7.7707,7.853,7.9505,8.0474,8.1298,8.1662,8.1812,8.1825,8.2068,8.2217,8.2218,8.2265,8.2304,8.2304,8.2304,8.2304,8.2304,8.2221,8.2217,8.2219,7.5053,7.5168,7.5014,7.4476,7.4399,7.4399,7.4399,7.4822,7.5168,7.5168,7.5668,7.6015,7.6015,7.6015,7.6015,7.6015,7.5476,7.5399,7.5976,7.5476,7.5168,7.5168,7.5168,7.4784,0.0,0.0,0.0,7.3739,7.3924,7.41,7.4308,7.4689,7.4949,7.5078,7.5163,7.5416,7.5743,7.5556,7.5656,7.6015,7.6015,7.6015,7.6015,7.6015,7.6015,7.6015,0.0,7.6015,7.6015,7.6015,7.6106,7.6172,7.6048,7.5786,7.5516,7.5395,7.505,7.4742,7.4796,7.4509,0.0,7.4572,7.4326,0.0,7.4425,0.0,7.4525,0.0,0.0,0.0,0.0,0.0,0.0,0.0,0.0,0.0,0.0,7.293,7.3476,7.4883,7.4676,7.5084,7.6844,7.6876,7.6732,7.6544,7.6457,7.6327,7.6121,7.6048,7.6015,7.6015,7.6015,7.6015,7.6015,7.713,7.7977,7.853,7.9906,8.0865,8.1391,8.1825,8.1992,8.1996,8.2219,8.2304,8.2304,8.2304,8.2304,8.2304,8.2304,8.2304,8.2304,8.2304,8.2304,8.2304,7.6015,7.6015,7.6015,7.6015,7.6015,7.6015,7.6015,7.6015,7.6015,7.6015,7.6015,7.6015,7.6015,7.6015,7.6015,7.6015,7.6015,7.6015,7.6015,7.6015,7.6015,0.0,7.6015,7.563,7.4784,0.0,0.0,0.0,7.4191,7.4406,7.446,7.546,7.5937,7.5976,7.6605,7.678,7.6606,7.641,7.6185,7.6015,7.6015,7.6015,7.6015,7.6015,7.6015,7.6015,7.6015,7.6015,7.6015,7.6015,7.6015,7.6015,7.6015,7.6015,7.6015,7.6015,7.6015,7.6048,7.6231,7.5681,7.5087,7.53,7.4724,0.0,0.0,0.0,7.4483,0.0,0.0,0.0,0.0,0.0,0.0,0.0,0.0,0.0,0.0,0.0,7.4922,7.5781,7.5156,7.5312,7.7031,7.7187,7.7103,7.6929,7.6721,7.6488,7.6316,7.6121,7.5991,7.6015,7.6015,7.6015,7.6053,7.7669,7.853,7.8599,8.0512,8.1403,8.1436,8.1844,8.2,8.2042,8.222,8.2304,8.2304,8.2304,8.2304,8.2304,8.2304,8.2304,8.2304,8.2304,8.2304,8.2304,7.6015,7.6015,7.6015,7.6015,7.6015,7.6015,7.6015,7.6015,7.6015,7.6015,7.6015,7.6015,7.6015,7.6015,7.6015,7.6015,7.6015,7.6015,7.6015,7.6015,7.6015,7.6015,7.6015,7.5899,7.5668,7.5716,0.0,7.5625,7.5731,7.5921,7.6255,7.6513,7.6702,7.6875,7.6878,7.6775,7.6606,7.641,7.6185,7.6015,7.6015,7.6015,7.6015,7.6015,7.6015,7.6015,7.6015,7.6015,7.6015,7.6015,7.6015,7.6015,7.6015,7.6015,7.6015,7.6015,7.6015,7.5991,7.6052,7.5925,7.5774,7.5978,7.5895,7.576,0.0,0.0,0.0,0.0,0.0,0.0,0.0,0.0,0.0,0.0,0.0,0.0,0.0,0.0,0.0,7.5781,7.5703,7.6015,7.7109,7.7055,7.6942,7.688,7.6721,7.6527,7.6306,7.6266,7.6147,7.5991,7.6015,7.6322,7.6938,7.7977,7.8907,7.9712,8.1019,8.168,8.1855,8.2115,8.2221,8.2221,8.2265,8.2304,8.2304,8.2304,8.2304,8.2304,8.2304,8.2304,8.2304,8.2304,8.2304,8.2304,7.6015,7.6015,7.6015,7.6015,7.6015,7.6015,7.6015,7.6015,7.6015,7.6015,7.6015,7.6015,7.6015,7.6015,7.6015,7.6015,7.6015,7.6015,7.6015,7.6015,7.6015,7.6015,7.6015,7.6015,7.6015,7.6015,0.0,7.616,0.0,7.6466,7.6765,7.6856,7.7,7.7187,7.7097,7.6926,7.676,7.6846,7.6764,7.6592,7.6938,7.7092,0.0,7.7092,7.7092,7.7092,7.7092,7.663,7.6015,7.6015,7.6015,7.6015,7.6015,7.6015,7.6015,7.6015,7.6015,7.6015,7.6015,7.6015,7.6034,7.6122,7.6172,7.6207,7.6429,7.6576,7.6702,0.0,7.6605,7.6358,0.0,0.0,0.0,0.0,0.0,0.0,0.0,0.0,0.0,0.0,7.6484,7.664,7.7148,7.71,7.7046,7.7046,7.6847,7.6624,7.6448,7.6359,7.6195,7.6029,7.6015,7.6399,7.7284,7.8092,7.9026,8.0101,8.1191,8.1819,8.1996,8.2219,8.2304,8.2304,8.2304,8.2304,8.2304,8.2304,8.2304,8.2304,8.2304,8.2304,8.2304,8.2304,8.2304,8.2304,7.6015,7.6015,7.6015,7.6015,7.6015,7.6015,7.6015,7.6015,7.6015,7.6015,7.6015,7.6053,7.6169,7.6169,7.6207,7.6322,7.6322,7.6284,7.6169,7.6169,7.613,7.6015,7.6015,7.6015,7.6015,7.6015,7.6015,0.0,0.0,7.64,7.659,7.677,7.6993,7.7187,7.7304,7.7243,7.717,7.7574,7.7615,7.7515,7.8207,7.8477,7.8477,7.8477,7.8477,7.8477,7.8477,7.7553,7.6322,7.6322,7.6322,7.6322,7.6322,7.6322,7.6322,7.6207,7.6169,7.613,7.6015,7.6015,7.6015,7.6015,7.6015,7.6062,7.6219,7.6261,7.6391,7.6744,7.686,7.6939,0.0,0.0,0.0,0.0,0.0,0.0,0.0,0.0,0.0,0.0,0.0,0.0,7.7187,7.7187,7.7187,7.7187,7.7048,7.6847,7.6597,7.6438,7.6231,7.6029,7.6092,7.6583,7.7487,7.8296,7.9275,8.0366,8.129,8.1855,8.2053,8.222,8.2304,8.2304,8.2304,8.2304,8.2304,8.2304,8.2304,8.2304,8.2304,8.2304,8.2304,8.2304,8.2304,8.2304,7.6015,7.6015,7.6015,7.6015,7.6015,7.6015,7.6015,7.6015,7.6015,7.6015,7.6015,7.6284,7.6976,7.7053,7.7323,7.7977,7.8054,7.7784,7.713,7.7053,0.0,7.6015,7.6015,7.6015,7.6015,7.6015,7.6015,0.0,0.0,7.6243,7.6582,7.6657,7.6852,7.7226,7.7788,7.8191,7.8476,7.8387,7.832,7.8284,7.8438,7.8477,7.8477,7.8477,7.8477,7.8477,7.8477,7.8284,7.8054,7.8054,7.8054,7.8054,7.8054,7.8054,7.7938,7.7284,7.7053,7.6899,7.6207,7.6015,7.6015,7.6015,7.6015,7.5991,7.6024,7.6185,7.6316,7.6371,7.6683,7.6856,7.6732,0.0,0.0,0.0,0.0,0.0,0.0,0.0,0.0,0.0,0.0,7.7187,7.7187,7.7187,7.7187,7.7187,7.7187,7.6995,7.6604,7.6583,7.6361,0.0,7.6707,7.7519,0.0,0.0,8.0437,8.1655,8.1875,8.2056,8.2263,8.2265,8.2304,8.2304,8.2304,8.2304,8.2304,8.2304,8.2304,8.2304,8.2304,8.2304,8.2304,8.2304,8.2304,8.2304,7.6015,7.6015,7.6015,7.6015,7.6361,7.6669,7.6669,7.7015,7.713,7.6746,7.7053,7.7438,7.7861,7.79,7.8092,7.8492,7.8477,7.8323,7.7938,7.79,7.7746,7.7323,7.7284,7.7284,7.7284,7.7284,7.7284,7.7284,0.0,7.751,7.7905,7.7783,7.8006,7.8515,7.871,7.8882,7.8971,7.9221,7.9268,7.9208,7.9669,7.9862,7.9862,7.9862,7.9862,7.9862,7.9862,7.9862,7.9708,7.8784,7.8477,7.8477,7.8477,7.8477,7.84,7.8015,7.79,7.7823,7.74,7.7284,7.7207,7.6784,7.6669,7.6553,7.6092,7.6079,7.6172,7.6261,7.6457,7.6606,7.6582,7.676,0.0,0.0,0.0,0.0,0.0,0.0,0.0,0.0,0.0,0.0,0.0,7.7187,7.7187,7.7187,7.7187,7.7007,7.6604,7.6582,7.641,0.0,0.0,0.0,7.8644,0.0,8.0699,8.1855,8.1962,8.2115,8.2304,8.2304,8.2304,8.2304,8.2304,8.2304,8.2304,8.2304,8.2304,8.2304,8.2304,8.2304,8.2304,8.2304,8.2578,8.2969,7.6245,7.6284,7.6322,7.6515,7.7092,7.7553,7.7553,7.8246,7.8477,7.7669,7.8092,7.8554,7.8746,7.8784,7.8861,7.9015,7.9054,7.8977,7.8784,7.8784,7.8669,7.8515,7.8477,7.8477,7.8477,7.8477,7.8477,0.0,0.0,0.0,7.8839,7.8901,7.926,7.9917,7.9697,7.961,7.9615,8.0113,8.0316,8.04,8.1093,8.1477,8.1631,8.1631,8.1631,8.1631,8.1631,8.1631,8.14,7.9823,7.9169,7.9054,7.9054,7.9054,7.9015,7.8823,7.8784,7.8746,7.8554,7.8477,7.8353,7.7785,7.7607,7.7442,7.6829,7.6688,7.6662,7.6582,7.6393,7.6306,7.6576,7.6709,0.0,0.0,0.0,0.0,0.0,0.0,0.0,0.0,0.0,0.0,7.7187,7.7187,7.7187,7.7187,7.7187,7.705,7.6696,0.0,0.0,0.0,0.0,7.8104,7.8953,0.0,8.0945,8.1844,8.1984,8.2166,8.2304,8.2304,8.2304,8.2304,8.2304,8.2304,8.2304,8.2304,8.2304,8.2304,8.2304,8.2422,8.2578,8.2578,8.3125,8.3906,7.7015,7.7169,7.74,7.813,7.8323,7.84,7.84,7.9131,7.9361,7.8477,7.8438,7.8784,7.9592,7.9669,8.0015,8.0785,8.0862,8.0516,7.9746,7.9669,7.9323,7.8515,7.8477,7.8477,7.8477,7.8477,7.8477,0.0,0.0,7.8465,0.0,7.891,7.9795,8.0595,8.0383,8.0647,0.0,8.1046,8.1431,8.2054,8.2131,8.267,8.3362,8.3362,8.3362,8.3362,8.3362,8.3362,8.3208,8.2285,8.1439,8.0862,8.0862,8.0862,8.0708,7.99,7.9669,7.9515,7.8707,7.8477,7.8527,7.8629,7.8661,7.8701,7.8867,7.8917,7.8634,7.7677,7.6688,7.616,7.6552,7.6475,7.6484,0.0,0.0,0.0,0.0,0.0,7.7187,7.7187,0.0,0.0,7.7187,7.7187,7.7187,7.7187,7.7187,7.7101,7.6872,0.0,0.0,7.7711,7.8512,7.9421,8.0466,8.1373,8.1975,8.2224,8.2264,8.2265,8.2304,8.2304,8.2304,8.2304,8.2304,8.2304,8.2304,8.2304,8.2304,8.2304,8.2304,8.2773,8.3476,8.3476,8.4023,8.4883,7.7938,7.8015,7.813,7.8438,7.8938,7.9285,7.9285,8.0015,8.0477,8.0092,8.0054,8.0169,8.0554,8.0592,8.0708,8.1054,8.1093,8.0939,8.0592,8.0592,8.0439,8.0092,8.0054,8.0054,8.0054,8.0054,8.0054,0.0,0.0,0.0,0.0,0.0,8.065,0.0,0.0,8.1857,8.2119,8.2453,8.2785,8.3093,8.3093,8.3285,8.3593,8.3593,8.3593,8.3593,8.3593,8.3593,8.3555,8.3208,8.2516,8.1747,8.1246,8.1093,8.1016,8.0669,8.0592,8.0523,8.0304,8.0254,8.0176,7.9825,7.9765,7.9675,7.9306,7.9212,7.9073,7.8634,7.8224,7.7922,7.7923,7.7665,7.743,7.7455,0.0,0.0,0.0,0.0,0.0,0.0,0.0,0.0,0.0,7.7187,7.7187,7.7187,7.7187,7.7103,0.0,0.0,0.0,7.7881,0.0,8.009,8.0512,8.149,8.2049,8.212,8.2223,8.2304,8.2304,8.2304,8.2304,8.2304,8.2304,8.2304,8.2304,8.2304,8.2617,8.3086,8.3086,8.3594,8.4375,8.4375,8.4922,8.5742,7.8823,7.8861,7.8938,7.9208,7.9785,8.0169,8.0169,8.0708,8.1093,8.1093,8.1323,8.1362,8.1131,8.1093,8.1093,8.1093,8.1093,8.1093,8.1093,8.1093,8.1093,8.1093,8.1093,0.0,8.1093,8.1093,8.1208,8.1439,8.1522,0.0,0.0,0.0,0.0,0.0,8.2712,8.2934,8.2947,8.341,8.3747,8.3978,8.3978,8.4132,8.4324,8.4324,8.4324,8.4324,8.4324,8.4324,8.4286,8.4055,8.3595,8.2993,8.2101,8.1823,8.1785,8.1516,8.1493,8.1523,8.1424,8.1436,8.1378,8.0985,8.0877,8.0734,8.024,8.0095,8.0007,7.9727,7.9403,7.9128,7.8952,7.8674,7.8457,7.8273,0.0,0.0,0.0,0.0,0.0,0.0,7.7734,7.7578,7.7578,7.7578,7.7578,7.7578,7.7812,0.0,0.0,0.0,0.0,0.0,0.0,0.0,8.0948,8.173,8.211,8.2071,8.2222,8.2304,8.2304,8.2304,8.2304,8.2304,8.2578,8.2695,8.2695,8.2969,8.3437,8.3984,8.3984,8.4492,8.5273,8.5273,8.582,8.6562,7.9631,7.9785,8.0054,8.0939,8.1093,8.1093,8.1093,8.1093,8.1093,8.1093,8.1785,8.1977,8.1208,8.1093,8.1093,8.1093,8.1093,8.1093,8.1093,8.1093,8.1093,0.0,0.0,8.1093,8.1093,8.1093,8.1477,8.2285,0.0,0.0,8.2571,0.0,8.3233,8.3861,8.3861,8.3757,8.3609,8.3609,8.4093,8.4901,8.4901,8.5363,8.6055,8.6055,8.6055,8.6055,8.6055,8.6055,8.594,8.517,8.5024,8.4985,8.3926,8.3555,8.3401,8.2554,8.2452,8.2402,8.16,8.1543,8.1725,8.1923,8.1988,8.2014,8.2224,8.2265,8.195,8.0882,7.9873,7.9212,7.9204,7.9212,7.9234,7.9366,0.0,0.0,0.0,0.0,0.0,0.0,7.8984,7.8476,7.8476,7.8476,7.8476,7.8476,7.9219,0.0,0.0,0.0,0.0,8.0898,8.0976,0.0,8.2265,8.2304,8.2304,8.2304,8.2304,8.2304,8.2304,8.2304,8.2304,8.2344,8.3203,8.3594,8.3633,8.4492,8.4883,8.4883,8.4883,8.5429,8.6172,8.6172,8.6758,8.7461,8.0631,8.0708,8.0785,8.1054,8.1554,8.19,8.19,8.2401,8.2785,8.2785,8.3016,8.3093,8.2824,8.2785,8.2785,0.0,8.2785,8.2785,0.0,8.2785,8.2785,8.2785,8.2785,8.2785,8.2785,8.2785,8.2939,8.317,0.0,0.0,0.0,8.3354,8.3509,8.3702,8.4319,8.4551,8.4516,8.5055,8.5478,8.5709,8.5709,8.5863,8.6094,8.6094,8.6094,8.6094,8.6094,8.6094,8.6055,8.5786,8.5873,8.6029,8.5693,8.4904,8.3995,8.354,8.3552,8.3723,8.3591,8.3621,8.3571,8.3185,8.3077,8.2964,8.2421,8.2304,8.2187,8.187,8.1547,8.1284,8.1138,8.0754,8.0392,8.0282,7.9892,0.0,0.0,0.0,0.0,0.0,7.9453,7.9336,7.9336,7.9336,0.0,0.0,0.0,0.0,0.0,0.0,0.0,0.0,8.1562,0.0,8.2304,8.2304,8.2304,8.2304,8.2304,8.2304,8.2304,8.2929,8.3203,8.3242,8.4101,8.4492,8.4492,8.4804,8.5234,8.5781,8.5781,8.6328,8.7109,8.7109,8.7265,8.75,8.1554,8.1823,8.2054,8.2054,8.2439,8.2785,8.2785,8.3247,8.3593,8.3593,8.3901,8.4093,8.4093,8.4362,0.0,8.3632,8.3593,8.3593,8.3593,8.3593,8.3593,8.3593,8.3593,8.3593,8.3593,8.3593,0.0,8.4093,8.4401,8.4555,8.4555,8.4555,8.4555,8.4555,8.5093,8.5363,8.5401,8.5901,8.6094,8.6094,8.6094,8.6286,8.6594,8.6594,8.6594,8.6594,8.6594,8.6363,8.611,8.6231,8.6429,8.6616,8.6616,8.6085,8.5354,8.4689,8.4682,8.4818,8.4633,8.4675,8.4628,8.4179,8.4101,8.3867,8.3008,8.2773,8.2695,8.2383,8.2304,8.2264,8.2125,8.1752,8.1443,8.1302,8.0931,8.0664,8.0664,0.0,0.0,0.0,0.0,0.0,0.0,8.0195,8.0195,0.0,0.0,0.0,0.0,0.0,8.1133,8.1484,8.2031,8.2304,8.2304,8.2304,8.2304,8.2304,8.2617,8.2773,8.2812,8.3672,8.4101,8.414,8.5,8.539,8.539,8.5742,8.6211,8.6679,8.6679,8.7031,8.75,8.75,8.75,8.75,8.2401,8.3016,8.3593,8.3593,8.3632,8.367,8.367,8.3747,8.3747,8.3747,8.4478,8.4978,8.4978,8.567,8.5478,8.3901,0.0,0.0,8.3747,8.3747,8.3747,8.3747,8.3747,8.3747,8.3747,8.3747,8.417,8.4978,8.5747,8.6094,8.6094,8.6094,8.6094,8.6094,8.617,8.6209,8.6209,8.6247,8.6286,8.6286,8.6286,8.6786,8.7478,8.7478,8.7478,8.7478,8.7478,8.6957,8.6361,8.661,8.6775,8.6919,8.6919,8.7174,8.726,8.5981,8.5765,8.575,8.5012,8.4944,8.5078,8.5,8.4922,8.4687,8.3867,8.3672,8.3476,8.2656,8.2422,8.2383,8.2383,8.2344,8.2304,8.2304,8.2304,8.2304,8.2304,0.0,0.0,0.0,0.0,0.0,8.1094,8.1094,8.1094,0.0,0.0,0.0,0.0,0.0,8.1445,8.2265,8.2304,8.2304,8.2304,8.2304,8.2344,8.2383,8.3281,8.3672,8.3711,8.4609,8.5,8.5039,8.5898,8.6289,8.6367,8.7187,8.75,8.75,8.75,8.75,8.75,8.75,8.75,8.75,8.3285,8.3439,8.3593,8.3593,8.4132,8.4593,8.4593,8.5093,8.5517,8.5517,8.5709,8.5824,8.5824,8.5978,8.594,8.5555,8.5517,8.5517,8.5517,8.5517,8.5517,8.5517,8.5517,8.5517,8.5517,8.5517,8.5593,8.5824,8.6017,8.6094,8.6094,8.6094,8.6094,8.6132,8.6786,8.7094,8.7132,8.7786,8.8094,8.8094,8.8094,8.8209,8.8402,8.8402,8.8402,8.8402,8.8402,8.8359,8.8325,8.8404,8.8225,8.8038,8.8038,8.7777,8.7381,8.6874,8.6906,8.7066,8.6871,8.6834,8.6719,8.6054,8.539,8.4844,8.4648,8.4609,8.4531,8.4336,8.375,8.3281,8.3281,8.2734,8.2304,8.2304,8.2304,8.2304,8.2304,8.2304,0.0,0.0,8.2109,8.1992,8.1992,8.1992,8.1992,0.0,0.0,8.2304,8.2304,8.2109,8.2109,8.2304,8.2304,8.2304,8.2304,8.2304,8.2617,8.3281,8.4179,8.4609,8.4609,8.5508,8.5898,8.5937,8.6797,8.7187,8.7226,8.7422,8.75,8.75,8.75,8.75,8.75,8.75,8.75,8.75,8.417,8.4478,8.4747,8.4747,8.5132,8.544,8.544,8.5824,8.6094,8.6094,8.6094,8.6094,8.6094,8.6094,8.6094,8.6094,8.6094,8.6094,8.6094,8.6094,8.6094,8.6094,8.6094,8.6094,8.6094,8.6094,8.6286,8.6709,8.6709,8.6901,8.7286,8.7286,8.7286,8.7325,8.7786,8.7979,8.8017,8.8479,8.8709,8.8709,8.8709,8.8902,8.9248,8.9248,8.9248,8.9282,8.9401,8.9276,8.9021,8.9246,8.9164,8.9029,8.9107,8.89,8.8554,8.7992,8.7689,8.75,8.75,8.75,8.7383,8.6914,8.6445,8.5976,8.5586,8.5508,8.539,8.4961,8.4531,8.4179,8.4179,8.3828,8.3359,8.2969,8.289,8.2773,8.2344,8.2304,8.2304,8.2304,8.2304,8.2304,8.2304,8.2304,8.2304,8.2304,8.2304,0.0,8.2304,8.2304,8.2304,8.2304,8.2304,8.25,8.289,8.3281,8.3711,8.4219,8.5078,8.5508,8.5508,8.6406,8.6797,8.6836,8.7304,8.75,8.75,8.75,8.75,8.75,8.75,8.75,8.75,8.75,8.75,8.75,8.5093,8.5632,8.6094,8.6094,8.6094,8.6094,8.6094,8.6094,8.6094,8.6094,8.6094,8.6094,8.6094,8.6094,8.6094,8.6094,8.6094,8.6094,8.6094,8.6094,8.6094,8.6094,8.6094,8.617,8.6286,8.644,8.6863,8.7594,8.7594,8.7979,8.8709,8.8709,8.8709,8.8709,8.8825,8.8863,8.8902,8.9017,8.9094,8.9094,8.9094,8.9479,9.0094,9.0094,9.0094,9.0146,9.0387,9.0043,8.9488,8.991,9.0008,8.9955,9.0153,9.0117,8.9844,8.9101,8.8398,8.7812,8.7578,8.75,8.75,8.75,8.75,8.7304,8.6562,8.6406,8.6172,8.5469,8.5195,8.5117,8.5117,8.5,8.4648,8.3906,8.3789,8.3554,8.2812,0.0,8.2695,8.2695,8.2695,8.2695,8.2695,8.2695,8.2695,8.2695,8.2695,8.2695,8.2695,8.2695,8.2695,8.2695,8.2578,8.289,8.3789,8.4648,8.5117,8.5117,8.5976,8.6406,8.6406,8.7148,8.75,8.75,8.75,8.75,8.75,8.75,8.75,8.75,8.75,8.75,8.75,8.75,8.75,8.75,8.5901,8.6017,8.6094,8.6094,8.6094,8.6094,8.6094,8.6094,8.6094,8.6094,8.6094,8.6094,8.6094,8.6094,8.6094,8.6094,8.6094,8.6094,8.6094,8.6094,8.6094,8.6094,8.6094,8.644,8.7171,8.7902,8.8363,8.8479,8.8479,8.8556,8.8709,8.8709,8.8709,8.8709,8.9402,8.971,8.9748,9.0517,9.0825,9.0825,9.0825,9.0902,9.1018,9.1018,9.1018,9.1031,9.1223,9.1389,9.1477,9.1738,9.145,9.1053,9.1093,9.0586,8.9961,8.9844,8.9726,8.9297,8.789,8.75,8.75,8.75,8.75,8.7461,8.7344,8.7304,8.7265,8.7109,8.6523,8.6015,8.6015,8.539,8.4844,8.4726,8.4687,8.4648,8.4531,0.0,8.4492,8.4492,8.4492,8.4492,8.4492,8.4492,8.4492,8.4492,8.4492,8.4492,8.4492,8.4492,8.4492,8.4492,8.3789,8.3828,8.4687,8.5547,8.6015,8.6015,8.6875,8.7304,8.7304,8.7422,8.75,8.75,8.75,8.75,8.75,8.75,8.75,8.75,8.75,8.75,8.75,8.75,8.75,8.75,8.6094,8.6094,8.6094,8.6094,8.6094,8.6094,8.6094,8.6094,8.6094,8.6094,8.6094,8.6094,8.6094,8.6094,8.6094,8.6094,8.6517,8.6786,8.6786,8.6786,8.6786,8.6786,8.7248,8.7671,8.8094,8.8479,8.8902,8.9363,8.9363,8.9594,9.0056,9.0056,9.0056,9.0056,9.0441,9.0594,9.0633,9.1018,9.121,9.121,9.121,9.121,9.121,9.121,9.121,9.1258,9.1604,9.1782,9.1934,9.2287,9.2221,9.1992,9.1992,9.1719,9.1328,9.0859,9.0039,8.914,8.8359,8.7812,8.75,8.75,8.75,8.75,8.75,8.75,8.75,8.75,8.7187,8.6914,8.6914,8.6562,8.6133,8.5664,8.5586,0.0,8.4961,8.4883,8.4883,8.4883,8.4883,8.4883,8.4883,8.4883,8.4883,8.4883,8.4883,8.4883,8.4883,8.4883,8.5117,8.5586,8.5195,8.5195,8.5586,8.6445,8.6914,8.6914,8.7304,8.75,8.75,8.75,8.75,8.75,8.75,8.75,8.75,8.75,8.75,8.75,8.75,8.75,8.75,8.75,8.75,8.75,8.6094,8.6094,8.6094,8.6094,8.6094,8.6094,8.6094,8.6094,8.6094,8.6094,8.6094,8.6094,8.6094,8.6286,8.6401,8.6401,8.7209,8.7709,8.7709,8.7863,8.7902,8.7709,8.8517,8.8979,8.8979,8.9171,8.9594,9.021,9.021,9.0556,9.121,9.121,9.121,9.121,9.121,9.121,9.121,9.121,9.121,9.121,9.121,9.121,9.121,9.121,9.121,9.1253,9.1728,9.1914,9.1989,9.2443,9.2617,9.2617,9.2617,9.2617,9.2461,9.1797,9.0508,8.9258,8.9062,8.8398,8.7773,8.7773,8.7656,8.75,8.75,8.75,8.75,8.75,8.75,8.75,8.75,8.75,8.7265,8.6601,0.0,8.6289,8.5586,8.5508,8.5508,8.5508,8.5508,8.5508,8.5508,8.5508,8.5508,8.5508,8.5508,8.5508,8.5508,8.5508,8.582,8.6484,8.6484,8.6484,8.6484,8.7187,8.75,8.75,8.75,8.75,8.75,8.75,8.75,8.75,8.75,8.75,8.75,8.75,8.75,8.75,8.75,8.75,8.75,8.75,8.75,8.75,8.6094,8.6094,8.6094,8.6094,8.6094,8.6094,8.6094,8.6094,8.6094,8.6094,8.6094,8.6094,8.6094,8.6824,8.7286,8.7286,8.8094,8.8594,8.8594,8.9286,8.9402,8.8632,8.9363,8.9825,8.9825,9.0594,9.1056,9.1095,9.1095,9.1133,9.121,9.121,9.121,9.121,9.121,9.121,9.121,9.121,9.121,9.121,9.121,9.121,9.121,9.121,9.121,9.1253,9.1728,9.1914,9.1989,9.2443,9.2617,9.2617,9.2617,9.2617,9.2578,9.2539,9.1836,9.0937,9.0117,8.9258,8.8594,8.8594,8.8047,8.75,8.75,8.75,8.75,8.75,8.75,8.75,8.75,8.75,8.7461,8.7422,0.0,0.0,8.7304,8.7304,8.7304,8.7304,8.7304,8.7304,8.7304,8.7304,8.7304,8.7304,8.7304,8.7304,8.7304,8.7304,8.7344,8.7383,8.7383,8.7383,8.7383,8.7461,8.75,8.75,8.75,8.75,8.75,8.75,8.75,8.75,8.75,8.75,8.75,8.75,8.75,8.75,8.75,8.75,8.75,8.75,8.75,8.75,8.6094,8.6094,8.6094,8.6094,8.6094,8.6094,8.6094,8.6094,8.6094,8.6094,8.6094,8.6324,8.6863,8.7209,8.7632,8.8171,8.8979,8.944,8.944,9.0248,9.0556,9.0248,9.0556,9.071,9.071,9.1018,9.121,9.121,9.121,9.121,9.121,9.121,9.121,9.121,9.121,9.121,9.121,9.121,9.1248,9.1392,9.1236,9.1264,9.1392,9.1236,9.121,9.1253,9.1728,9.1914,9.1989,9.2443,9.2617,9.2617,9.2617,9.2617,9.2617,9.2617,9.2383,9.2031,9.1719,9.0586,8.9375,8.8828,8.8476,8.8125,8.7617,8.75,8.75,8.75,8.75,8.75,8.75,8.75,8.75,8.75,0.0,8.75,8.75,8.75,8.75,8.75,8.75,8.75,8.75,8.75,8.75,8.75,8.75,8.75,8.75,8.75,8.75,8.75,8.75,8.75,8.75,8.75,8.75,8.75,8.75,8.75,8.75,8.75,8.75,8.75,8.75,8.75,8.75,8.75,8.75,8.75,8.75,8.75,8.75,8.75,8.75,8.75,8.6094,8.6094,8.6094,8.6094,8.6094,8.6094,8.6094,8.6094,8.6209,8.6478,8.6517,8.6824,8.7709,8.8017,8.844,8.9017,8.9825,9.0325,9.0325,9.0864,9.121,9.121,9.121,9.121,9.121,9.121,9.121,9.121,9.121,9.121,9.121,9.121,9.121,9.121,9.121,9.121,9.121,9.121,9.1264,9.1397,9.1322,9.1354,9.1397,9.1322,9.1253,9.1253,9.1728,9.1914,9.1989,9.2443,9.2617,9.2617,9.2617,9.2617,9.2617,9.2617,9.2617,9.2617,9.2617,9.1719,9.0625,8.9726,8.9297,8.8906,8.8086,8.789,8.7812,8.7539,8.75,8.75,8.75,8.75,8.75,8.75,8.75,8.75,8.75,8.75,8.75,8.75,8.75,8.75,8.75,8.75,8.75,8.75,8.75,8.75,8.75,8.75,8.75,8.75,8.75,8.75,8.75,8.75,8.75,8.75,8.75,8.75,8.75,8.75,8.75,8.75,8.75,8.75,8.75,8.75,8.75,8.75,8.75,8.75,8.75,8.75,8.75,8.75,8.6094,8.6094,8.6094,8.6094,8.6094,8.6094,8.6094,8.6094,8.644,8.7286,8.7401,8.7748,8.8594,8.944,8.9902,8.9902,9.071,9.121,9.121,9.121,9.121,9.121,9.121,9.121,9.121,9.121,9.121,9.121,9.121,9.121,9.121,9.121,9.121,9.121,9.121,9.121,9.121,9.121,9.121,9.1224,9.1402,9.1368,9.1224,9.1417,9.1392,9.1253,9.1728,9.1884,9.1989,9.2443,9.2617,9.2617,9.2617,9.2617,9.2617,9.2617,9.2617,9.2617,9.2617,9.2617,9.2383,9.1523,9.0664,8.9765,8.8906,8.8711,8.8476,8.7695,8.75,8.75,8.75,8.75,8.75,8.75,8.75,8.75,8.75,8.75,8.75,8.75,8.75,8.75,8.75,8.75,8.75,8.75,8.75,8.75,8.75,8.75,8.75,8.75,8.75,8.75,8.75,8.75,8.75,8.75,8.75,8.75,8.75,8.75,8.75,8.75,8.75,8.75,8.75,8.75,8.75,8.75,8.75,8.75,8.75,8.75,8.75,8.75,8.6094,8.6094,8.6094,8.6094,8.6094,8.6324,8.6901,8.7017,8.7325,8.8209,8.8286,8.8632,8.944,8.9748,9.0171,9.0748,9.1056,9.121,9.121,9.121,9.121,9.121,9.121,9.121,9.121,9.121,9.121,9.121,9.121,9.121,9.121,9.121,9.121,9.121,9.121,9.121,9.121,9.121,9.1376,9.1661,9.1566,9.1592,9.1684,9.177,9.1614,9.1486,9.195,9.2117,9.2149,9.2492,9.2617,9.2617,9.2617,9.2617,9.2617,9.2617,9.2617,9.2617,9.2617,9.2617,9.2383,9.1523,9.1094,9.0664,8.9804,8.9609,8.9531,8.9297,8.8789,8.8359,8.8359,8.789,8.75,8.75,8.75,8.75,8.75,8.75,8.75,8.75,8.75,8.75,8.75,8.75,8.75,8.75,8.75,8.75,8.75,8.75,8.75,8.75,8.75,8.75,8.75,8.75,8.75,8.75,8.75,8.75,8.75,8.75,8.75,8.75,8.75,8.75,8.75,8.75,8.75,8.75,8.75,8.75,8.75,8.75,8.75,8.75,8.6094,8.6094,8.6209,8.6555,8.6594,8.6901,8.7786,8.7902,8.8209,8.9056,8.9171,8.9479,9.0325,9.0402,9.0633,9.1171,9.121,9.121,9.121,9.121,9.121,9.121,9.121,9.121,9.121,9.121,9.121,9.121,9.121,9.121,9.121,9.121,9.121,9.121,9.121,9.121,9.121,9.121,9.1369,9.1629,9.1649,9.1706,9.1752,9.1942,9.1811,9.1565,9.2035,9.2144,9.2128,9.249,9.2617,9.2617,9.2617,9.2617,9.2617,9.2617,9.2617,9.2617,9.2617,9.2617,9.2461,9.1953,9.1797,9.1601,9.0703,9.0508,9.0429,9.0078,8.957,8.9219,8.9219,8.8515,8.7969,8.7969,8.7695,8.75,8.75,8.75,8.75,8.75,8.75,8.75,8.75,8.75,8.75,8.75,8.75,8.75,8.75,8.75,8.75,8.75,8.75,8.75,8.75,8.75,8.75,8.75,8.75,8.75,8.75,8.75,8.75,8.75,8.75,8.7695,8.7969,8.7969,8.8164,8.8476,8.8476,8.8476,8.8476,8.8476,8.8476,8.8476,8.6209,8.6286,8.6594,8.7363,8.7517,8.7825,8.8671,8.8786,8.9094,8.9902,9.0017,9.0325,9.1133,9.121,9.121,9.121,9.121,9.121,9.121,9.121,9.121,9.121,9.121,9.121,9.121,9.121,9.121,9.121,9.121,9.121,9.121,9.121,9.121,9.121,9.121,9.121,9.121,9.121,9.1189,9.127,9.1717,9.1732,9.159,9.2048,9.1919,9.1602,9.2054,9.2111,9.2012,9.2445,9.2617,9.2617,9.2617,9.2617,9.2617,9.2617,9.2617,9.2617,9.2617,9.2617,9.2617,9.2617,9.2617,9.2383,9.1601,9.1406,9.1172,9.039,9.0156,9.0117,9.0117,8.9414,8.8828,8.8828,8.8203,8.7695,8.7617,8.7617,8.7578,8.75,8.75,8.75,8.75,8.75,8.75,8.75,8.75,8.75,8.75,8.75,8.75,8.75,8.75,8.7539,8.7617,8.7617,8.7578,8.75,8.7578,8.7617,8.7617,8.7695,8.7734,8.7734,8.7734,8.8125,8.8828,8.8828,8.9297,9.0,9.0,9.0,9.0,9.0,9.0,9.0,8.7132,8.7671,8.8209,8.8402,8.8402,8.8671,8.9517,8.9633,8.994,9.0825,9.0941,9.0979,9.1171,9.121,9.121,9.121,9.121,9.121,9.121,9.121,9.121,9.121,9.121,9.121,9.121,9.121,9.121,9.121,9.121,9.121,9.121,9.121,9.121,9.121,9.121,9.121,9.121,9.121,9.1297,9.1473,9.1752,9.1888,9.1849,9.2336,9.2208,9.1867,9.234,9.2345,9.2164,9.2493,9.2617,9.2617,9.2617,9.2617,9.2617,9.2617,9.2617,9.2617,9.2617,9.2617,9.2617,9.2617,9.2617,9.2539,9.2344,9.2304,9.2265,9.207,9.1484,9.1015,9.1015,9.0312,8.9726,8.9726,8.957,8.9219,8.8554,8.8437,8.8203,8.7578,8.75,8.75,8.75,8.75,8.75,8.75,8.75,8.75,8.75,8.75,8.75,8.75,8.75,8.7812,8.8437,8.8437,8.8125,8.75,8.8125,8.8437,8.8476,8.914,8.9453,8.9453,8.9453,8.957,8.9726,8.9726,8.9844,9.0,9.0,9.0,9.0,9.0,9.0,9.0,8.8017,8.8402,8.8825,8.921,8.9286,8.9556,9.0402,9.0517,9.0671,9.1133,9.121,9.121,9.121,9.121,9.121,9.121,9.121,9.121,9.121,9.121,9.121,9.121,9.121,9.121,9.121,9.121,9.121,9.121,9.121,9.121,9.121,9.121,9.121,9.121,9.121,9.121,9.1227,9.1313,9.1412,9.1515,9.1901,9.2022,9.2093,9.2448,9.2387,9.2099,9.2487,9.2495,9.2402,9.2537,9.2617,9.2617,9.2617,9.2617,9.2617,9.2617,9.2617,9.2617,9.2617,9.2617,9.2617,9.2617,9.2617,9.2617,9.2617,9.2617,9.2617,9.2617,9.2226,9.1914,9.1914,9.1211,9.0625,9.0625,9.0273,8.9844,8.9375,8.9336,8.914,8.875,8.8672,8.8672,8.8672,8.8672,8.8672,8.8672,8.8672,8.8672,8.8672,8.8672,8.8672,8.8672,8.8672,8.8906,8.9336,8.9336,8.9101,8.8711,8.9101,8.9336,8.9336,8.9804,9.0,9.0,9.0,9.0234,9.0625,9.0625,9.0859,9.125,9.125,9.125,9.125,9.125,9.125,9.125,8.8902,8.9017,8.9325,9.0017,9.0133,9.0364,9.1095,9.121,9.121,9.121,9.121,9.121,9.121,9.121,9.121,9.121,9.121,9.121,9.121,9.121,9.121,9.121,9.121,9.121,9.121,9.121,9.121,9.121,9.121,9.121,9.121,9.121,9.121,9.121,9.121,9.121,9.1206,9.1427,9.1502,9.1528,9.2016,9.2217,9.2229,9.2494,9.2445,9.2233,9.2494,9.2617,9.2617,9.2617,9.2617,9.2617,9.2617,9.2617,9.2617,9.2617,9.2617,9.2617,9.2617,9.2617,9.2617,9.2617,9.2617,9.2617,9.2617,9.2617,9.2617,9.2617,9.2617,9.2617,9.2617,9.1992,9.1523,9.1523,9.0937,9.039,9.0234,9.0234,9.0156,9.0039,9.0,9.0,9.0,9.0,9.0,9.0,9.0,9.0,9.0,9.0,9.0,9.0,9.0,9.0078,9.0234,9.0234,9.0312,9.0429,9.0429,9.0351,9.0234,9.039,9.0429,9.0429,9.0429,9.0859,9.1523,9.1523,9.1953,9.2617,9.2617,9.2617,9.2617,9.2617,9.2617,9.2617,8.9748,9.0325,9.0902,9.1018,9.1018,9.1056,9.1171,9.121,9.121,9.121,9.121,9.121,9.121,9.121,9.121,9.121,9.121,9.121,9.121,9.121,9.121,9.121,9.121,9.121,9.121,9.121,9.121,9.121,9.121,9.121,9.121,9.121,9.121,9.121,9.121,9.121,9.1206,9.1427,9.1502,9.1528,9.2016,9.2217,9.2229,9.2494,9.2445,9.2233,9.2494,9.2617,9.2617,9.2617,9.2617,9.2617,9.2617,9.2617,9.2617,9.2617,9.2617,9.2617,9.2617,9.2617,9.2617,9.2617,9.2617,9.2617,9.2617,9.2617,9.2617,9.2617,9.2617,9.2617,9.2617,9.25,9.2422,9.2422,9.2344,9.1992,9.1211,9.1133,9.0859,9.0078,9.0,9.0,9.0,9.0,9.0,9.0,9.0,9.0,9.0,9.0,9.0,9.0,9.0,9.0351,9.1133,9.1133,9.1484,9.2265,9.2265,9.1836,9.1133,9.1914,9.2265,9.2265,9.2265,9.2304,9.2422,9.2422,9.25,9.2617,9.2617,9.2617,9.2617,9.2617,9.2617,9.2617,9.0633,9.0941,9.121,9.121,9.121,9.121,9.121,9.121,9.121,9.121,9.121,9.121,9.121,9.121,9.121,9.121,9.121,9.121,9.121,9.121,9.121,9.121,9.121,9.121,9.121,9.121,9.121,9.121,9.121,9.121,9.121,9.121,9.121,9.121,9.121,9.121,9.1224,9.1566,9.17,9.1752,9.2221,9.2404,9.2447,9.2538,9.2536,9.2447,9.2577,9.2617,9.2617,9.2617,9.2617,9.2617,9.2617,9.2617,9.2617,9.2617,9.2617,9.2617,9.2617,9.2617,9.2617,9.2617,9.2617,9.2617,9.2617,9.2617,9.2617,9.2617,9.2617,9.2617,9.2617,9.2617,9.2617,9.2617,9.2617,9.2461,9.207,9.2031,9.1875,9.1484,9.1445,9.1445,9.1445,9.1445,9.1445,9.1445,9.1445,9.1445,9.1445,9.1445,9.1445,9.1445,9.1445,9.164,9.2031,9.2031,9.2226,9.2617,9.2617,9.2383,9.2031,9.2422,9.2617,9.2617,9.2617,9.2617,9.2617,9.2617,9.2617,9.2617,9.2617,9.2617,9.2617,9.2617,9.2617,9.2617]}]]